GFSGL_con_mlcape_000.txt.gz
CAPE
0 0 0 0 0 0 0 0 0 0 0 0 0 0 0 0 0 0 0 0 0 0 0 0 0 0 0 0 0 0 0 0 0 0 0 0 0 0 0 0 0 0 0
0 0 0 0 0 0 0 0 0 0 0 0 0 0 0 0 0 0 0 0 0 0 0 0 0 0 0 0 0 0 0 0 0 0 0 0 0 0 0 0 0 0 0
0 0 0 0 0 0 0 0 0 0 0 0 0 0 0 0 0 0 0 0 0 0 0 0 0 0 0 0 0 0 0 0 0 0 0 0 0 0 0 0 0 0 0
0 0 0 0 0 0 0 0 0 0 0 0 0 0 0 0 0 0 0 0 0 0 0 0 0 0 0 0 0 0 0 0 0 0 0 0 0 0 0 0 0 0 0
0 0 0 0 0 0 0 0 0 0 0 0 0 0 0 0 0 0 0 0 0 0 0 0 0 0 0 0 0 0 0 0 0 0 0 0 0 0 0 0 0 0 0
0 0 0 0 0 0 0 0 0 0 0 0 0 0 0 0 0 0 0 0 0 0 0 0 0 0 0 0 0 0 0 0 0 0 0 0 0 0 0 0 0 0 0
0 0 0 0 0 0 0 0 0 0 0 0 0 0 0 0 0 0 0 0 0 0 0 0 0 0 0 0 0 0 0 0 0 0 0 0 0 0 0 0 0 0 0
0 0 0 0 0 0 0 0 0 0 0 0 0 0 0 0 0 0 0 0 0 0 0 0 0 0 0 0 0 0 0 0 0 0 0 0 0 0 0 0 0 0 0
0 0 0 0 0 0 0 0 0 0 0 0 0 0 0 0 0 0 0 0 0 0 0 0 0 0 0 0 0 0 0 0 0 0 0 0 0 0 0 0 0 0 0
0 0 0 0 0 0 0 0 0 0 0 0 0 0 0 0 0 0 0 0 0 0 0 0 0 0 0 0 0 0 0 0 0 0 0 0 0 0 0 0 0 0 0
0 0 0 0 0 0 0 0 0 0 0 0 0 0 0 0 0 0 0 0 0 0 0 0 0 0 0 0 0 0 0 0 0 0 0 0 0 0 0 0 0 0 0
0 0 0 0 0 0 0 0 0 0 0 0 0 0 0 0 0 0 0 0 0 0 0 0 0 0 0 0 0 0 0 0 0 0 0 0 0 0 0 0 0 0 0
0 0 0 0 0 0 0 0 0 0 0 0 0 0 0 0 0 0 0 0 0 0 0 0 0 0 0 0 0 0 0 0 0 0 0 0 0 0 0 0 0 0 0
0 0 0 0 0 0 0 0 0 0 0 0 0 0 0 0 0 0 0 0 0 0 0 0 0 0 0 0 0 0 0 0 0 0 0 0 0 0 0 0 0 0 0
0 0 0 0 0 0 0 0 0 0 0 0 0 0 0 0 0 0 0 0 0 0 0 0 0 0 0 0 0 0 0 0 0 0 0 0 0 0 0 0 0 0 0
0 0 0 0 0 0 0 0 0 0 0 0 0 0 0 0 0 0 0 0 0 0 0 0 0 0 0 0 0 0 0 0 0 0 0 0 0 0 0 0 0 0 0
0 0 0 0 0 0 0 0 0 0 0 0 0 0 0 0 0 0 0 0 0 0 0 0 0 0 0 0 0 0 0 0 0 0 0 0 0 0 0 0 0 0 0
0 0 0 0 0 0 0 0 0 0 0 0 0 0 0 0 0 0 0 0 0 0 0 0 0 0 0 0 0 0 0 0 0 0 0 0 0 0 0 0 0 0 0
0 0 0 0 0 0 0 0 0 0 0 0 0 0 0 0 0 0 0 0 0 0 0 0 0 0 0 0 0 0 0 0 0 0 0 0 0 0 0 0 0 0 0
0 0 0 0 0 0 0 0 0 0 0 0 0 0 0 0 0 0 0 0 0 0 0 0 0 0 0 0 0 0 0 0 0 0 0 0 0 0 0 0 0 0 0
0 0 0 0 0 0 0 0 0 0 0 0 0 0 0 0 0 0 0 0 0 0 0 0 0 0 0 0 0 0 0 0 0 0 0 0 0 0 0 0 0 0 0
0 0 0 0 0 0 0 0 0 0 0 0 0 0 0 0 0 0 0 0 0 0 0 0 0 0 0 0 0 0 0 0 0 0 0 0 0 0 0 0 0 0 0
0 0 0 0 0 0 0 0 0 0 0 0 0 0 0 0 0 0 0 0 0 0 0 0 0 0 0 0 0 0 0 0 0 0 0 0 0 0 0 0 0 0 0
0 0 0 0 0 0 0 0 0 0 0 0 0 0 0 0 0 0 0 0 0 0 0 0 0 0 0 0 0 0 0 0 0 0 0 0 0 0 0 0 0 1 1
0 0 0 0 0 0 0 0 0 0 0 0 0 0 0 0 0 0 0 0 0 0 0 0 0 0 0 0 0 0 0 0 0 0 0 0 0 0 0 0 0 1 0
0 0 0 0 0 0 0 0 0 0 0 0 0 0 0 0 0 0 0 0 0 0 0 0 0 0 0 0 0 0 0 0 0 0 0 0 0 0 0 0 0 0 0

GFSGL_con_mlcape_003.txt.gz
CAPE
0 0 0 0 0 0 0 0 0 0 0 0 0 1 27 28 0 1 24 69 51 33 26 9 0 0 0 0 0 0 0 0 0 0 0 0 0 0 0 0 0 0 0
0 0 0 0 0 0 0 0 0 0 0 0 0 0 0 1 7 0 0 7 14 9 0 0 0 0 0 0 0 0 0 0 0 0 0 0 0 0 0 0 0 0 0
0 0 0 0 0 0 0 0 0 0 0 0 0 0 0 0 0 0 0 0 0 2 5 6 0 0 0 0 0 0 0 0 0 0 0 0 0 0 0 0 0 0 0
0 0 0 0 0 0 0 0 0 0 0 0 0 0 0 0 0 0 0 0 0 0 0 0 0 0 0 0 0 0 0 0 0 0 0 0 0 0 0 0 0 0 0
0 0 0 0 0 0 0 0 0 0 0 0 0 0 0 0 0 0 0 0 0 0 0 0 0 0 0 0 0 0 0 0 0 0 0 0 0 0 0 0 0 0 0
0 0 0 0 0 0 0 0 0 0 0 0 0 0 0 0 0 0 0 0 0 0 0 0 0 0 0 0 0 0 0 0 0 0 0 0 0 0 0 0 0 0 0
0 0 0 0 0 0 0 0 0 0 0 0 0 0 0 0 0 0 0 0 0 0 0 0 0 0 0 0 0 0 0 0 0 0 0 0 0 0 0 0 0 0 0
0 0 0 0 0 0 0 0 0 0 0 0 0 0 0 0 0 0 0 0 0 0 0 0 0 0 0 0 0 0 0 0 0 0 0 0 0 0 0 0 0 0 0
0 0 0 0 0 0 0 0 0 0 0 0 0 0 0 0 0 0 0 0 0 0 0 0 0 0 0 0 0 0 0 0 0 0 0 0 0 0 0 0 0 0 0
0 0 0 0 0 0 0 0 0 0 0 0 0 0 0 0 0 0 0 0 0 0 0 0 0 0 0 0 0 0 0 0 0 0 0 0 0 0 0 0 0 0 0
0 0 0 0 0 0 0 0 0 0 0 0 0 0 0 0 0 0 0 0 0 0 0 0 0 0 0 0 0 0 0 0 0 0 0 0 0 0 0 0 0 0 0
0 0 0 0 0 0 0 0 0 0 0 0 0 0 0 0 0 0 0 0 0 0 0 0 0 0 0 0 0 0 0 0 0 0 0 0 0 0 0 0 0 0 0
0 0 0 0 0 0 0 0 0 0 0 0 0 0 0 0 0 0 0 0 0 0 0 0 0 0 0 0 0 0 0 0 0 0 0 0 0 0 0 0 0 0 0
0 0 0 0 0 0 0 0 0 0 0 0 0 0 0 0 0 0 0 0 0 0 0 0 0 0 0 0 0 0 0 0 0 0 0 0 0 0 0 0 0 0 0
0 0 0 0 0 0 0 0 0 0 0 0 0 0 0 0 0 0 0 0 0 0 0 0 0 0 0 0 0 0 0 0 0 0 0 0 0 0 0 0 0 0 0
0 0 0 0 0 0 0 0 0 0 0 0 0 0 0 0 0 0 0 0 0 0 0 0 0 0 0 0 0 0 0 0 0 0 0 0 0 0 0 0 0 0 0
0 0 0 0 0 0 0 0 0 0 0 0 0 0 0 0 0 0 0 0 0 0 0 0 0 0 0 0 0 0 0 0 0 0 0 0 0 0 0 0 0 0 0
0 0 0 0 0 0 0 0 0 0 0 0 0 0 0 0 0 0 0 0 0 0 0 0 0 0 0 0 0 0 0 0 0 0 0 0 0 0 0 0 0 0 0
0 0 0 0 0 0 0 0 0 0 0 0 0 0 0 0 0 0 0 0 0 0 0 0 0 0 0 0 0 0 0 0 0 0 0 0 0 0 0 0 0 0 0
0 0 0 0 0 0 0 0 0 0 0 0 0 0 0 0 0 0 1 1 0 0 0 0 0 0 0 0 0 0 0 0 0 0 0 0 0 0 0 0 0 0 0
0 0 0 0 0 0 0 0 0 0 0 0 0 0 0 0 0 0 0 0 0 0 0 0 0 0 0 0 0 0 0 0 0 0 0 0 0 0 0 0 0 2 2
0 0 0 0 0 0 0 0 0 0 0 0 0 0 0 0 0 0 0 0 0 0 0 0 0 0 0 0 0 0 0 0 0 0 0 0 0 0 0 0 2 3 8
0 0 0 0 0 0 0 0 0 0 0 0 0 0 0 0 0 0 0 0 0 0 0 0 0 0 0 0 0 0 0 0 0 0 0 0 0 0 0 2 1 3 1
0 0 0 0 0 0 0 0 0 0 0 0 0 0 0 0 0 0 0 0 0 0 0 0 0 0 0 0 0 0 0 0 0 0 0 0 0 0 0 1 2 0 2
0 0 0 0 0 0 0 0 0 0 0 0 0 0 0 0 0 0 0 0 0 0 0 0 0 0 0 0 0 0 0 0 0 0 0 0 0 0 0 0 2 7 2
0 0 0 0 0 0 0 0 0 0 0 0 0 0 0 0 0 0 0 0 0 0 0 0 0 0 0 0 0 0 0 0 0 0 0 0 0 0 0 0 1 1 0

GFSGL_con_mlcape_009.txt.gz
CAPE
0 0 0 0 0 0 26 89 36 129 64 182 155 221 198 240 483 441 268 201 84 31 12 11 7 1 0 0 0 0 0 0 0 9 2 0 0 0 0 0 0 0 0
0 0 0 0 0 0 0 72 135 143 83 16 81 185 136 207 183 292 275 74 16 22 13 8 2 2 0 0 0 0 0 0 0 0 0 0 0 0 0 0 0 0 0
0 0 0 0 0 0 0 0 114 178 143 48 15 10 34 165 230 235 91 103 40 31 4 3 2 2 0 0 0 0 3 0 0 0 0 0 0 0 0 0 4 10 3
0 0 0 0 0 0 0 0 0 2 73 138 98 32 1 19 154 283 268 222 94 58 48 19 18 0 3 21 1 0 0 0 0 0 0 0 0 0 1 0 0 0 0
0 0 0 0 0 0 0 0 0 0 0 0 13 28 0 37 171 375 357 319 194 165 93 132 155 78 60 43 20 0 0 0 0 0 0 0 0 0 0 0 0 0 0
0 0 0 0 0 0 0 0 0 0 0 0 0 0 0 0 0 0 0 31 79 19 0 0 0 0 0 0 0 0 0 0 0 0 0 0 0 0 0 0 0 0 0
0 0 0 0 0 0 0 0 0 0 0 0 0 0 0 0 0 0 0 0 0 0 0 0 0 0 0 0 0 0 0 0 0 0 0 0 0 0 0 0 0 0 0
0 0 0 0 0 0 0 0 0 0 0 0 0 0 0 0 0 0 0 0 0 0 0 0 0 0 0 0 0 0 0 0 0 0 0 0 0 0 8 9 20 0 0
0 0 0 0 0 0 0 0 0 0 0 0 0 0 0 0 0 0 0 0 0 0 0 0 0 0 0 0 0 0 0 0 0 0 0 0 0 0 0 0 0 0 0
0 0 0 0 0 0 0 0 0 0 0 0 0 0 0 0 0 0 0 0 0 0 0 0 0 0 0 0 0 0 0 0 0 0 0 0 0 0 0 0 0 0 0
0 0 0 0 0 0 0 0 0 0 0 0 0 0 0 0 0 0 0 0 0 0 0 0 0 0 0 0 0 0 0 0 0 0 0 0 0 0 0 0 0 0 0
0 0 0 0 0 0 0 0 0 0 0 0 0 0 0 0 0 0 0 0 0 0 0 0 0 0 0 0 0 0 0 0 0 0 0 0 0 0 0 0 0 0 0
0 0 0 0 0 0 0 0 0 0 0 0 0 0 0 0 0 0 0 0 0 0 0 0 0 0 0 0 0 0 0 0 0 0 0 0 0 0 0 0 0 0 0
0 0 0 0 0 0 0 0 0 0 0 0 0 0 0 0 0 0 0 0 0 0 0 0 0 0 0 0 0 0 0 0 0 0 0 0 0 0 0 0 0 0 0
0 0 0 0 0 0 0 0 0 0 0 0 0 0 0 0 0 0 0 0 0 0 0 0 0 0 0 0 0 0 0 0 0 0 0 0 0 0 0 0 0 0 0
11 0 0 0 0 0 0 0 0 0 0 0 0 0 0 0 0 0 0 0 0 0 0 0 0 0 0 0 12 31 0 0 0 0 0 0 0 0 0 0 0 0 0
26 7 0 0 0 0 0 0 0 0 0 0 0 0 0 0 0 0 0 0 0 0 0 0 0 19 14 27 40 23 0 0 0 0 0 0 0 0 0 0 0 0 0
97 0 0 0 0 0 0 0 0 0 0 0 0 0 0 0 0 0 0 0 0 0 0 1 21 13 40 18 0 0 0 0 0 0 0 0 0 0 0 0 0 0 0
262 19 0 0 0 0 0 0 0 0 0 0 0 0 0 0 0 0 0 0 0 0 0 0 31 6 0 0 0 0 0 0 0 0 0 0 0 0 0 0 0 0 0
223 168 22 0 0 0 0 0 0 0 0 0 0 0 0 0 0 0 0 0 0 28 0 0 0 0 0 0 0 0 0 0 0 0 0 0 0 0 0 0 0 0 0
242 192 74 9 0 0 0 0 0 0 0 0 0 0 0 0 0 0 0 1 19 0 0 0 0 0 0 0 0 0 0 0 0 0 0 0 0 0 0 0 0 0 0
287 238 142 68 52 2 0 0 0 0 0 0 0 0 0 0 0 0 0 0 0 0 0 0 0 0 0 0 0 0 0 0 0 0 0 0 0 0 0 0 0 0 0
217 211 213 103 70 25 1 0 0 0 0 0 1 0 0 19 0 0 0 0 0 0 0 0 0 0 0 0 0 0 0 0 0 0 0 0 0 0 0 0 0 0 0
160 138 133 131 26 11 0 0 0 0 0 0 0 0 3 0 0 0 0 0 0 0 0 0 0 0 0 0 0 0 0 0 0 0 0 0 0 0 0 0 0 0 0
193 178 139 109 58 5 5 0 0 0 0 0 0 0 0 0 0 0 0 0 0 0 0 0 0 0 0 0 0 0 0 0 0 0 0 0 0 0 0 0 0 0 0
82 114 95 100 68 32 20 9 4 11 0 0 0 0 0 0 0 0 0 0 0 0 0 0 0 0 0 0 0 0 0 0 0 0 0 0 0 0 0 0 0 0 0

GFSGL_con_mlcape_012.txt.gz
CAPE
0 0 0 4 23 69 141 99 85 102 197 161 119 156 368 437 341 400 244 195 125 20 4 1 0 0 1 0 1 1 22 16 26 29 34 56 22 6 0 3 0 0 0
0 0 0 2 1 57 75 136 134 4 79 146 202 183 232 208 452 84 35 43 1 0 0 0 1 0 0 1 9 6 4 0 9 16 0 10 0 0 0 0 0 0 0
0 0 0 0 0 0 0 260 181 20 34 110 134 203 180 189 140 191 117 93 61 9 0 0 1 0 0 0 2 0 0 1 0 0 0 0 0 0 0 0 0 0 0
0 0 0 0 0 0 0 37 78 162 66 7 38 96 171 195 177 73 72 37 48 9 14 0 0 0 0 0 0 0 0 1 0 0 0 0 0 0 0 0 0 0 0
0 0 0 0 0 0 0 0 2 75 75 83 55 66 170 262 203 81 53 36 7 3 3 1 0 0 0 1 0 0 14 0 0 0 0 0 0 1 0 0 0 0 0
0 0 0 0 0 0 0 0 0 0 0 0 0 0 0 0 21 170 198 87 70 77 81 5 0 0 0 2 0 0 0 0 0 0 0 0 0 0 0 0 0 0 0
0 0 0 0 0 0 0 0 0 0 0 0 0 0 0 0 0 4 84 32 0 5 0 1 0 0 0 0 0 0 0 0 0 0 0 0 0 0 0 0 0 0 0
0 0 0 0 0 0 0 0 0 0 0 0 0 0 0 0 0 0 0 0 0 0 0 0 0 0 0 0 0 0 0 0 0 0 0 4 0 0 21 31 9 25 46
0 0 0 0 0 0 0 0 0 0 0 0 0 0 0 0 0 0 0 0 0 0 0 0 0 0 0 0 0 0 0 0 0 0 0 0 0 0 0 0 0 0 0
0 0 0 0 0 0 0 0 10 38 0 0 0 0 0 0 0 0 0 0 0 0 0 0 0 0 0 0 0 0 0 0 0 0 0 0 0 0 0 0 0 0 0
0 0 0 0 0 0 0 0 23 41 0 0 0 0 0 0 0 0 0 0 0 0 0 0 0 0 0 0 0 0 0 0 0 0 0 0 0 0 0 0 0 0 0
0 0 0 0 0 0 0 0 6 1 32 0 0 0 0 0 0 0 0 0 0 0 0 0 0 0 0 0 0 0 0 0 0 0 0 0 0 0 0 0 0 0 0
0 0 0 0 0 0 0 0 0 0 0 0 0 0 0 0 0 0 0 0 0 0 0 0 0 0 0 0 0 0 0 0 0 0 0 0 0 0 0 0 0 0 0
0 0 0 0 0 0 0 0 0 0 0 0 0 0 0 0 0 0 0 0 0 0 0 0 0 0 0 0 0 0 0 0 0 0 0 0 0 0 0 0 0 0 0
0 0 0 0 0 0 0 0 0 0 0 0 0 0 0 0 0 0 0 0 0 0 0 0 0 0 0 0 0 0 0 0 0 0 0 0 0 0 0 0 0 0 0
0 0 0 0 0 0 0 0 0 0 0 0 0 0 0 0 0 0 0 0 0 0 0 0 0 0 0 0 0 0 0 0 0 0 0 0 0 0 0 0 0 0 0
29 2 0 0 0 0 0 0 0 0 0 0 0 0 0 0 0 0 0 0 0 0 0 0 0 0 0 21 0 0 0 0 0 0 0 0 0 0 0 0 0 0 0
45 42 1 0 1 0 0 0 0 0 0 0 0 0 0 0 0 0 0 0 0 0 0 0 0 8 0 0 0 0 0 0 0 0 0 0 0 0 0 0 0 0 0
133 62 29 1 0 0 0 0 0 0 0 0 0 0 0 0 0 0 0 0 0 0 0 0 13 0 0 0 0 0 0 0 0 0 0 0 0 0 0 0 0 0 0
338 139 37 32 0 0 0 0 0 0 0 0 0 0 0 0 0 0 0 0 0 0 0 0 0 0 0 0 0 0 0 0 0 0 0 0 0 0 0 0 0 0 0
700 297 46 39 111 1 0 0 0 0 0 0 0 0 0 0 0 0 0 0 0 0 0 0 0 0 0 0 0 0 0 0 0 0 0 0 0 0 0 0 0 0 0
640 607 199 80 59 33 5 2 0 0 0 0 0 0 0 0 0 0 0 0 0 0 0 0 0 0 0 0 0 0 0 0 0 0 0 0 0 0 0 0 0 0 0
495 621 520 247 189 128 0 2 0 0 0 0 0 0 0 0 0 0 0 0 0 0 0 0 0 0 0 0 0 0 0 0 0 0 0 0 0 0 0 0 0 0 0
539 533 618 537 301 235 176 43 3 0 1 0 0 0 0 0 0 0 0 0 0 0 0 0 0 0 0 0 0 0 0 0 0 0 0 0 0 0 0 0 0 0 0
277 509 567 480 445 261 179 71 8 0 0 0 0 0 0 0 0 0 0 0 0 0 0 0 0 0 0 0 0 0 0 0 0 0 0 0 0 0 0 0 0 0 0
178 235 557 365 496 276 158 116 41 0 0 0 0 0 0 0 0 0 0 0 0 0 0 0 0 0 0 0 0 0 0 0 0 0 0 0 0 0 0 0 0 0 0

GFSGL_con_mlcape_015.txt.gz
CAPE
0 0 0 0 28 66 43 21 50 74 63 114 152 137 148 184 179 135 71 31 22 0 0 1 1 1 0 0 0 3 6 26 3 12 25 32 27 25 14 3 0 0 0
0 0 0 0 14 32 44 14 11 44 100 114 182 153 127 76 57 65 45 31 15 3 0 1 3 1 1 0 5 12 24 34 24 22 42 47 28 22 2 0 0 0 0
0 0 0 0 0 0 38 0 12 36 76 125 127 90 122 101 108 96 77 41 21 6 1 1 2 0 1 1 3 5 23 19 22 13 15 2 0 0 0 0 0 0 0
0 0 0 0 0 0 24 23 11 9 30 56 80 107 102 112 58 59 35 20 5 0 2 1 2 0 2 3 11 1 0 0 1 0 0 0 0 0 0 0 0 0 0
0 0 0 0 0 0 0 22 24 27 32 15 38 91 118 94 76 43 42 29 0 8 1 5 13 22 15 5 0 0 0 0 0 0 0 0 0 0 0 0 0 0 0
0 0 0 0 0 2 0 0 0 0 3 2 19 2 12 14 19 20 17 7 13 4 2 1 0 0 0 0 0 0 8 0 0 0 0 0 0 0 0 0 0 0 0
0 0 0 0 0 0 0 0 0 0 0 0 0 0 0 3 21 30 33 27 35 6 0 0 0 0 0 0 0 0 0 0 0 0 0 0 0 0 0 0 0 0 0
0 0 0 0 0 0 0 0 0 0 0 0 0 0 0 0 0 2 11 6 7 3 0 0 0 0 0 0 0 0 0 0 0 0 0 0 0 0 0 0 0 0 0
0 0 0 0 0 0 0 0 0 0 0 0 0 0 0 0 0 0 0 0 0 0 0 0 0 0 0 0 0 0 0 0 0 0 0 0 0 0 0 0 0 0 0
0 0 0 0 0 0 0 0 0 0 0 0 0 0 0 0 0 0 0 0 0 0 0 0 0 0 0 0 0 0 0 0 0 0 0 0 0 0 0 0 0 0 0
0 0 0 0 0 0 0 0 0 0 0 0 0 0 0 0 0 0 0 0 0 0 0 0 0 0 0 0 0 0 0 0 0 0 0 0 0 0 0 0 0 0 0
0 0 0 0 0 0 0 0 0 11 0 0 0 0 0 0 0 0 0 0 0 0 0 0 0 0 0 0 0 0 0 0 0 0 0 0 0 0 0 0 0 0 0
0 0 0 0 0 0 0 0 0 0 35 0 0 0 0 0 0 0 0 0 0 0 0 0 0 0 0 0 0 0 0 0 0 0 0 0 0 0 0 0 0 0 0
0 0 0 0 0 0 0 0 0 0 0 0 0 0 0 0 0 0 0 0 0 0 0 0 0 0 0 0 0 0 0 0 0 0 0 0 0 0 0 0 0 0 0
0 0 0 0 0 0 0 0 0 0 0 0 0 0 0 0 0 0 0 0 0 0 0 0 0 0 0 0 0 0 0 0 0 0 0 0 0 0 0 0 0 0 0
0 0 0 0 0 0 0 0 0 0 0 0 0 0 0 0 0 0 0 0 0 0 0 0 0 0 0 0 0 0 0 0 0 0 0 0 0 0 0 0 0 0 0
0 0 0 0 0 0 0 0 0 0 0 0 0 0 0 0 0 0 0 0 0 0 0 0 0 0 0 0 0 0 0 0 0 0 0 0 0 0 0 0 0 0 0
0 0 0 0 0 0 0 0 0 0 0 0 0 0 0 0 0 0 0 0 0 0 0 0 0 0 0 0 0 0 0 0 0 0 0 0 0 0 0 0 0 0 0
0 0 0 0 0 0 0 0 0 0 0 0 0 0 0 0 0 0 0 0 0 0 0 0 0 0 0 0 0 0 0 0 0 0 0 0 0 0 0 0 0 0 0
1 0 0 0 0 0 0 0 0 0 0 0 0 0 0 0 0 0 0 0 0 0 0 0 0 0 0 0 0 0 0 0 0 0 0 0 0 0 0 0 0 0 0
108 3 0 0 0 0 0 0 0 0 0 0 0 0 0 0 0 0 0 0 0 0 0 0 0 0 0 0 0 0 0 0 0 0 0 0 0 0 0 0 0 0 0
245 115 0 0 0 0 0 0 0 0 0 0 0 0 0 0 0 0 0 0 0 0 0 0 0 0 0 0 0 0 0 0 0 0 0 0 0 0 0 0 0 0 0
347 284 108 5 0 0 0 0 0 0 0 0 0 0 0 0 0 0 0 0 0 0 0 0 0 0 0 0 0 0 0 0 0 0 0 0 0 0 0 0 0 0 0
446 354 289 105 0 0 0 0 0 0 0 0 0 0 0 0 0 0 0 0 0 0 0 0 0 0 0 0 0 0 0 0 0 0 0 0 0 0 0 0 0 0 0
175 356 287 240 132 22 2 1 0 0 0 0 0 0 0 0 0 0 0 0 0 0 0 0 0 0 0 0 0 0 0 0 0 0 0 0 0 0 0 0 0 0 0
301 38 304 325 262 216 106 69 33 0 0 0 0 0 0 0 0 0 0 0 0 0 0 0 0 0 0 0 0 0 0 0 0 0 0 0 0 0 0 0 0 0 0

GFSGL_con_mlcape_021.txt.gz
CAPE
0 0 0 0 0 0 0 1 2 43 51 34 15 1 24 43 19 5 0 3 8 0 6 0 0 0 3 3 1 2 7 15 6 19 21 53 17 8 12 9 0 0 0
0 0 0 0 0 0 0 0 2 24 41 52 30 20 18 16 18 7 0 0 0 0 0 1 1 0 1 2 12 6 16 7 3 10 41 43 21 20 13 2 1 0 0
0 0 0 0 0 0 0 0 4 6 12 39 43 37 31 2 0 0 0 3 0 0 1 2 3 3 6 0 4 6 3 11 24 39 26 2 2 15 11 0 0 0 0
0 0 0 0 0 2 0 0 0 12 13 20 18 20 10 2 0 0 0 1 1 0 0 2 1 1 1 1 0 0 4 13 21 18 12 12 10 0 1 1 0 0 0
0 0 0 0 0 2 1 0 0 2 15 35 48 49 41 20 5 4 0 0 1 0 1 1 0 1 0 0 0 1 6 20 20 18 6 2 0 0 2 0 0 0 0
0 0 0 0 0 0 0 0 0 0 18 29 23 40 50 47 24 10 3 8 2 3 3 1 0 0 0 0 5 12 30 2 8 8 1 1 0 0 0 0 0 0 0
0 0 0 0 0 0 0 0 0 0 1 2 17 9 9 0 2 0 1 5 1 2 1 1 4 0 2 0 2 7 0 0 0 0 0 0 0 0 0 0 0 0 0
0 0 0 0 0 0 0 0 0 0 0 0 7 15 11 9 0 0 1 10 7 1 3 3 5 1 0 2 0 0 0 0 0 0 0 0 0 0 0 0 0 0 0
0 0 0 0 0 0 0 0 0 0 0 0 0 0 0 0 0 0 2 1 0 0 0 2 0 0 0 0 0 0 0 0 0 0 0 0 0 0 0 0 0 0 0
0 0 0 0 0 0 0 0 0 0 0 0 0 0 0 0 0 0 0 0 0 0 3 0 0 0 0 0 0 0 0 0 0 0 0 0 0 0 0 0 0 0 0
0 0 0 0 0 0 0 0 0 0 0 0 0 0 0 0 0 0 0 0 0 0 0 0 0 0 0 0 0 0 0 0 0 0 0 0 0 0 0 0 0 0 0
0 0 0 0 0 0 0 0 0 0 0 0 0 0 0 0 0 0 0 0 0 0 0 0 0 0 0 0 0 0 0 0 0 0 0 0 0 0 0 0 0 0 0
0 0 0 0 0 0 0 0 0 0 0 0 0 0 0 0 0 0 0 0 0 0 0 0 0 0 0 0 0 0 0 0 0 0 0 0 0 0 0 0 0 0 0
0 0 0 0 0 0 0 0 0 0 0 0 0 0 0 0 0 0 0 0 0 0 0 0 0 0 0 0 0 0 0 0 0 0 0 0 0 0 0 0 0 0 0
0 0 0 0 0 0 0 0 0 0 0 0 0 0 0 0 0 0 0 0 0 0 0 0 0 0 0 0 0 0 0 0 0 0 0 0 0 0 0 0 0 0 0
0 0 0 0 0 0 0 0 0 0 0 0 0 0 0 0 0 0 0 0 0 0 0 0 0 0 0 0 0 0 0 0 0 0 0 0 0 0 0 0 0 0 0
0 0 0 0 0 0 0 0 0 0 0 0 0 0 0 0 0 0 0 0 0 0 0 0 0 0 0 0 0 0 0 0 0 0 0 0 0 0 0 0 0 0 0
0 0 0 0 0 0 0 0 0 0 0 0 0 0 0 0 0 0 0 0 0 0 0 0 0 0 0 0 0 0 0 0 0 0 0 0 0 0 0 0 0 0 0
0 0 0 0 0 0 0 0 0 0 0 0 0 0 0 0 0 0 0 0 0 0 0 0 0 0 0 0 0 0 0 0 0 0 0 0 0 0 0 0 0 0 0
0 0 0 0 0 0 0 0 0 0 0 0 0 0 0 0 0 0 0 0 0 0 0 0 0 0 0 0 0 0 0 0 0 0 0 0 0 0 0 0 0 0 0
0 0 0 0 0 0 0 0 0 0 0 0 0 0 0 0 0 0 0 0 0 0 0 0 0 0 0 0 0 0 0 0 0 0 0 0 0 0 0 0 0 0 0
0 0 0 0 0 0 0 0 0 0 0 0 0 0 0 0 0 0 0 0 0 0 0 0 0 0 0 0 0 0 0 0 0 0 0 0 0 0 0 0 0 0 0
0 0 0 0 0 0 0 0 0 0 0 0 0 0 0 0 0 0 0 0 0 0 0 0 0 0 0 0 0 0 0 0 0 0 0 0 0 0 0 0 0 0 0
0 0 0 0 0 0 0 0 0 0 0 0 0 0 0 0 0 0 0 0 0 0 0 0 0 0 0 0 0 0 0 0 0 0 0 0 0 0 0 0 0 0 0
0 0 0 0 0 0 0 0 0 0 0 0 0 0 0 0 0 0 0 0 0 0 0 0 0 0 0 0 0 0 0 0 0 0 0 0 0 0 0 0 0 0 0
62 36 3 0 0 0 0 0 0 0 0 0 0 0 0 0 0 0 0 0 0 0 0 0 0 0 0 0 0 0 0 0 0 0 0 0 0 0 0 0 0 0 0

GFSGL_con_mlcape_024.txt.gz
CAPE
0 0 0 0 0 0 0 0 0 15 2 7 0 0 6 0 0 0 0 1 1 0 0 0 0 13 6 9 4 5 19 11 7 50 15 12 7 3 11 2 0 0 0
0 0 0 0 0 0 0 0 0 0 0 0 0 0 0 0 0 0 0 0 0 0 0 0 0 16 0 7 3 6 2 2 21 35 10 12 5 3 6 0 0 0 0
0 0 0 0 0 0 0 0 0 0 0 0 0 0 0 0 0 2 0 0 1 1 2 0 0 2 2 3 10 2 6 7 5 15 11 24 14 12 8 0 1 0 0
0 0 0 0 0 0 0 0 0 0 0 0 0 0 0 0 0 0 0 0 1 0 1 1 1 0 0 0 5 7 3 9 9 13 5 2 0 7 5 0 1 0 0
0 0 0 0 0 0 0 0 1 4 7 0 0 0 0 0 0 1 2 1 0 1 2 2 1 0 3 2 3 2 1 5 19 13 0 1 2 8 10 0 0 0 0
0 0 0 0 0 0 0 0 0 9 9 26 14 13 8 0 0 0 1 0 0 0 0 0 0 0 0 0 0 0 0 0 7 7 3 14 4 2 0 2 0 0 0
0 0 0 0 0 0 0 0 0 0 13 4 4 21 6 1 0 0 1 1 0 0 0 0 1 0 0 0 0 0 0 7 15 5 9 4 0 0 0 0 0 0 0
0 0 0 0 0 0 0 0 0 0 0 1 6 8 1 0 0 0 0 4 3 2 2 0 0 0 0 0 4 1 0 0 0 0 2 0 0 0 0 0 0 0 0
0 0 0 0 0 0 0 0 0 0 0 0 0 1 3 0 0 0 2 0 1 0 0 0 0 0 0 1 0 0 0 0 0 0 0 0 0 0 0 0 0 0 0
0 0 0 0 0 0 0 0 0 0 0 0 0 0 0 0 0 0 0 1 2 0 0 0 0 0 0 0 0 0 0 0 0 0 0 0 0 0 0 0 0 0 0
0 0 0 0 0 0 0 0 0 0 0 0 0 0 0 0 0 0 1 1 0 0 0 0 0 0 0 0 0 0 0 0 0 0 0 0 0 0 0 0 0 0 0
0 0 0 0 0 0 0 0 0 0 0 0 0 0 0 0 0 0 0 0 0 0 0 0 0 0 0 0 0 0 0 0 0 0 0 0 0 0 0 0 0 0 0
0 0 0 0 0 0 0 0 0 0 0 0 0 0 0 0 0 0 0 0 0 0 0 0 0 0 0 0 0 0 0 0 0 0 0 0 0 0 0 0 0 0 0
0 0 0 0 0 0 0 0 0 0 0 0 0 0 0 0 0 0 0 0 0 0 0 0 0 0 0 0 0 0 0 0 0 0 0 0 0 0 0 0 0 0 0
0 0 0 0 0 0 0 0 0 0 0 0 0 0 0 0 0 0 0 0 0 0 0 0 0 0 0 0 0 0 0 0 0 0 0 0 0 0 0 0 0 0 0
0 0 0 0 0 0 0 0 0 0 0 0 0 0 0 0 0 0 0 0 0 0 0 0 0 0 0 0 0 0 0 0 0 0 0 0 0 0 0 0 0 0 0
0 0 0 0 0 0 0 0 0 0 0 0 0 0 0 0 0 0 0 0 0 0 0 0 0 0 0 0 0 0 0 0 0 0 0 0 0 0 0 0 0 0 0
0 0 0 0 0 0 0 0 0 0 0 0 0 0 0 0 0 0 0 0 0 0 0 0 0 0 0 0 0 0 0 0 0 0 0 0 0 0 0 0 0 0 0
0 0 0 0 0 0 0 0 0 0 0 0 0 0 0 0 0 0 0 0 0 0 0 0 0 0 0 0 0 0 0 0 0 0 0 0 0 0 0 0 0 0 0
0 0 0 0 0 0 0 0 0 0 0 0 0 0 0 0 0 0 0 0 0 0 0 0 0 0 0 0 0 0 0 0 0 0 0 0 0 0 0 0 0 0 0
0 0 0 0 0 0 0 0 0 0 0 0 0 0 0 0 0 0 0 0 0 0 0 0 0 0 0 0 0 0 0 0 0 0 0 0 0 0 0 0 0 0 0
0 0 0 0 0 0 0 0 0 0 0 0 0 0 0 0 0 0 0 0 0 0 0 0 0 0 0 0 0 0 0 0 0 0 0 0 0 0 0 0 0 0 0
0 0 0 0 0 0 0 0 0 0 0 0 0 0 0 0 0 0 0 0 0 0 0 0 0 0 0 0 0 0 0 0 0 0 0 0 0 0 0 0 0 0 0
0 0 0 0 0 0 0 0 0 0 0 0 0 0 0 0 0 0 0 0 0 0 0 0 0 0 0 0 0 0 0 0 0 0 0 0 0 0 0 0 0 0 0
0 0 0 0 0 0 0 0 0 0 0 0 0 0 0 0 0 0 0 0 0 0 0 0 0 0 0 0 0 0 0 0 0 0 0 0 0 0 0 0 0 0 0
0 0 0 0 0 0 0 0 0 0 0 0 0 0 0 0 0 0 0 0 0 0 0 0 0 0 0 0 0 0 0 0 0 0 0 0 0 0 0 0 0 0 0

GFSGL_con_mlcape_027.txt.gz
CAPE
2 0 0 19 0 0 42 26 151 272 243 207 196 151 181 73 61 88 78 40 41 22 29 54 52 77 92 54 0 0 4 30 23 22 4 9 13 10 16 3 7 0 0
0 0 0 0 0 0 26 43 220 196 188 172 123 145 7 5 12 14 0 3 3 1 3 26 44 44 80 23 96 50 26 2 12 21 15 15 6 6 2 0 1 0 0
0 0 0 0 0 0 17 67 128 156 116 92 59 0 0 1 1 1 1 2 1 4 7 19 39 79 91 31 6 22 15 13 12 3 4 4 3 3 4 2 2 0 0
0 0 0 0 0 0 23 82 66 96 91 66 10 0 0 1 2 3 3 1 8 4 4 26 38 81 57 16 10 10 6 16 9 7 6 5 5 3 1 0 0 0 0
0 0 0 0 0 0 12 62 73 76 77 81 41 5 0 0 0 1 1 4 3 3 5 19 26 8 6 32 9 20 16 6 4 6 4 2 1 7 9 0 1 1 0
0 0 0 0 0 0 3 52 107 69 21 75 51 17 0 0 0 0 1 2 3 3 1 2 1 0 0 0 0 0 12 0 1 2 2 2 9 11 0 11 0 0 0
0 0 0 0 0 0 0 16 64 49 64 29 96 42 5 1 0 0 0 5 7 1 0 2 1 0 1 0 0 0 0 0 0 0 2 0 10 6 34 16 0 0 0
0 0 0 0 0 0 0 0 0 20 31 8 14 17 0 0 0 0 0 4 5 2 2 1 0 0 0 1 0 0 0 1 1 12 41 32 55 32 65 60 0 0 0
0 0 0 0 0 0 0 0 0 3 29 17 17 7 0 0 0 0 1 1 3 4 5 1 0 13 0 0 0 0 0 0 0 0 1 0 0 0 0 0 0 0 0
0 0 0 0 0 0 0 0 0 0 0 4 2 2 0 0 0 0 4 2 2 2 1 0 0 9 0 0 0 0 0 0 0 0 0 0 0 0 0 1 0 15 0
0 0 0 0 0 0 0 0 0 0 0 0 1 3 2 0 0 0 0 8 11 14 11 9 1 0 0 0 0 3 0 0 0 0 0 0 0 0 0 0 3 7 0
0 0 0 0 0 0 0 0 0 0 0 0 0 0 2 3 0 0 0 1 3 9 7 3 0 0 0 0 0 0 0 0 0 0 0 0 0 0 0 0 0 0 0
0 0 0 0 0 0 0 0 0 0 0 0 0 0 0 0 0 0 0 0 0 7 0 0 0 0 0 0 0 0 0 0 0 0 0 0 0 0 0 0 0 0 0
0 0 0 0 0 0 0 0 0 0 0 0 0 0 0 0 0 0 0 0 0 0 0 0 0 0 0 0 0 0 0 0 0 0 0 0 0 0 0 0 0 0 0
0 0 0 0 0 0 0 0 0 0 0 0 0 0 0 0 0 0 0 0 0 0 0 0 0 0 0 0 0 0 0 0 0 0 0 0 0 0 0 0 0 0 0
0 0 0 0 0 0 0 0 0 0 0 0 0 0 0 0 0 0 0 0 0 0 0 0 0 0 0 0 0 0 0 0 0 0 0 0 0 0 0 0 0 0 0
0 0 0 0 0 0 0 0 0 0 0 0 0 0 0 0 0 0 0 0 0 0 0 0 0 0 0 0 0 0 0 0 0 0 0 0 0 0 0 0 0 0 0
0 0 0 0 0 0 0 0 0 0 0 0 0 0 0 0 0 0 0 0 0 0 0 0 0 0 0 0 0 0 0 0 0 0 0 0 0 0 0 0 0 0 0
0 0 0 0 0 0 0 0 0 0 0 0 0 0 0 0 0 0 0 0 0 0 0 0 0 0 0 0 0 0 0 0 0 0 0 0 0 0 0 0 0 0 0
0 0 0 0 0 0 0 0 0 0 0 0 0 0 0 0 0 0 0 0 0 0 0 0 0 0 0 0 0 0 0 0 0 0 0 0 0 0 0 0 0 0 0
0 0 0 0 0 0 0 0 0 0 0 0 0 0 0 0 0 0 0 0 0 0 0 0 0 0 0 0 0 0 0 0 0 0 0 0 0 0 0 0 0 0 0
0 0 0 0 0 0 0 0 0 0 0 0 0 0 0 0 0 0 0 0 0 0 0 0 0 0 0 0 0 0 0 0 0 0 0 0 0 0 0 0 0 0 0
0 0 0 0 0 0 0 0 0 0 0 0 0 0 0 0 0 0 0 0 0 0 0 0 0 0 0 0 0 0 0 0 0 0 0 0 0 0 0 0 0 0 0
0 0 0 0 0 0 0 0 0 0 0 0 0 0 0 0 0 0 0 0 0 0 0 0 0 0 0 0 0 0 0 0 0 0 0 0 0 0 0 0 0 0 0
0 0 0 0 0 0 0 0 0 0 0 0 0 0 0 0 0 0 0 0 0 0 0 0 0 0 0 0 0 0 0 0 0 0 0 0 0 0 0 0 0 0 0
0 0 0 0 0 0 0 0 0 0 0 0 0 0 0 0 0 0 0 0 0 0 0 0 0 0 0 0 0 0 0 0 0 0 0 0 0 0 0 0 0 0 0

GFSGL_con_mlcape_030.txt.gz
CAPE
137 86 145 270 158 148 275 198 430 439 313 178 285 326 306 368 367 387 365 384 383 507 545 538 344 588 378 119 81 32 106 56 8 9 8 13 15 7 7 5 21 5 9
32 10 81 210 86 181 228 283 351 377 259 95 175 243 199 264 352 334 152 157 232 281 172 136 234 300 195 107 194 87 38 9 4 4 9 7 4 10 5 5 2 0 0
0 2 59 157 108 198 238 362 315 423 285 59 133 241 290 215 245 197 141 125 169 68 94 225 123 149 130 252 142 46 26 18 1 3 4 3 11 8 4 4 4 3 3
0 1 14 91 106 159 205 263 291 293 246 69 68 45 68 96 67 41 80 68 26 133 211 262 297 243 242 22 98 49 27 3 3 3 2 3 3 5 4 1 1 1 1
0 0 9 85 104 139 236 211 139 157 204 98 57 41 29 16 26 23 24 23 56 192 186 169 224 193 66 36 95 54 13 8 5 4 5 4 3 3 2 2 2 0 1
0 0 2 44 74 218 265 191 109 73 153 150 54 33 14 9 0 0 13 10 4 22 78 31 44 1 0 0 8 29 7 1 4 4 3 4 4 2 2 0 0 0 7
0 0 2 42 46 173 204 243 158 109 31 128 118 67 18 1 0 0 0 30 3 51 12 10 15 3 5 0 0 0 0 0 0 0 1 3 8 12 9 4 1 0 2
0 0 1 10 11 166 179 285 329 68 3 8 5 1 5 2 0 0 0 113 18 6 5 4 6 2 2 1 1 2 1 0 0 0 1 19 29 74 61 0 10 49 1
0 0 0 1 0 21 3 38 357 334 157 98 74 1 0 1 0 0 14 45 1 2 29 2 5 0 0 0 0 1 0 0 0 0 0 29 37 39 91 7 0 0 0
0 0 0 0 1 0 0 27 410 299 154 146 44 3 0 0 0 0 3 11 6 3 31 4 0 0 0 0 2 0 12 4 7 4 0 1 4 0 0 0 0 2 19
0 0 0 0 0 0 0 215 367 234 125 66 38 16 1 0 0 0 1 1 1 5 8 13 0 0 0 0 13 14 8 27 3 7 0 2 0 0 1 59 15 107 17
0 0 0 0 0 0 0 282 347 256 205 106 86 22 2 4 0 0 0 13 0 0 2 34 1 0 0 0 0 0 0 0 0 0 0 0 0 0 0 14 12 3 0
0 0 0 0 0 0 0 127 368 381 110 12 140 134 78 25 4 0 0 3 5 10 32 3 0 0 0 0 0 0 0 0 0 0 0 0 0 0 0 0 0 0 0
0 0 0 0 0 0 0 0 45 164 40 0 0 130 123 69 5 0 0 0 0 0 0 0 0 0 0 0 0 0 0 0 0 0 0 0 0 0 0 0 0 0 0
0 0 0 0 0 33 5 0 0 0 0 0 0 0 0 109 84 14 9 21 19 12 0 0 0 0 0 0 0 0 0 0 0 0 0 0 0 0 0 0 0 0 0
0 0 0 0 0 0 5 0 0 0 0 0 0 0 0 0 0 0 0 0 0 0 0 12 49 0 0 0 0 0 0 0 0 0 0 0 0 0 0 0 0 0 0
0 0 0 0 0 0 0 0 0 0 0 0 0 0 0 0 0 0 0 0 0 0 34 82 5 0 0 0 0 0 0 0 0 0 0 0 0 0 0 0 0 0 0
0 0 0 0 0 0 0 0 0 0 0 0 0 0 0 0 0 0 0 0 0 0 0 0 0 0 0 0 0 0 0 0 0 0 0 0 0 0 0 0 0 0 0
0 0 0 0 0 0 0 0 0 0 0 0 0 0 0 0 0 0 0 0 0 0 0 0 0 0 0 0 0 0 0 0 0 0 0 0 0 0 0 0 0 0 0
0 0 0 0 0 0 0 0 0 0 0 0 0 0 0 0 0 0 0 0 0 0 0 0 0 0 0 0 0 0 0 0 0 0 0 0 0 0 0 0 0 0 0
19 0 0 0 0 0 0 0 0 0 0 0 0 0 0 0 0 0 0 0 0 0 0 0 0 0 0 0 0 0 0 0 0 0 0 0 0 0 0 0 0 0 0
13 1 0 0 0 0 0 0 0 0 0 0 0 0 0 0 0 0 0 0 0 0 0 0 0 0 0 0 0 0 0 0 0 0 0 0 0 0 0 0 0 0 0
0 0 0 0 0 0 0 0 0 0 0 0 0 0 0 0 0 0 0 0 0 0 0 0 0 0 0 0 0 0 0 0 0 0 0 0 0 0 0 0 0 0 0
0 0 0 0 0 0 0 0 0 0 0 0 0 0 0 0 0 0 0 0 0 0 0 0 0 0 0 0 0 0 0 0 0 0 0 0 0 0 0 0 0 0 0
0 1 1 0 0 0 0 0 0 0 0 0 0 0 0 0 0 0 0 0 0 0 0 0 0 0 0 0 0 0 0 0 0 0 0 0 0 0 0 0 0 0 0
0 0 4 1 0 0 0 0 0 0 0 0 0 0 0 0 0 0 0 0 0 0 0 0 0 0 0 0 0 0 0 0 0 0 0 0 0 0 0 0 0 0 0

GFSGL_con_mlcape_033.txt.gz
CAPE
142 88 131 183 147 207 400 415 544 440 74 208 334 359 316 337 401 712 601 500 287 317 197 281 208 157 310 243 230 140 165 52 79 16 15 3 3 7 13 6 15 12 6
66 44 47 160 81 293 198 434 471 375 79 45 190 114 113 258 426 441 374 364 402 381 522 390 251 365 324 199 176 195 143 90 0 1 7 5 6 2 2 2 14 10 7
13 5 54 134 349 234 243 317 449 366 64 45 153 180 112 127 234 225 193 237 272 104 90 357 142 300 128 94 35 23 7 10 5 5 8 5 6 9 11 6 1 4 3
0 11 52 289 302 232 253 274 275 266 231 35 198 140 164 172 111 119 204 172 78 154 278 285 112 143 26 58 14 3 4 4 5 4 6 4 3 4 2 2 3 2 0
0 6 77 381 332 224 165 202 281 334 139 89 34 112 76 79 47 60 43 20 72 148 285 206 156 114 74 55 37 0 3 3 3 3 3 3 3 2 2 2 1 3 4
1 3 94 120 160 207 190 241 252 277 182 102 16 1 52 44 0 0 31 81 134 157 200 209 46 14 0 3 18 5 0 0 2 3 3 3 3 3 2 0 3 2 7
2 34 96 88 157 194 265 209 58 181 196 98 91 46 127 0 0 0 1 103 78 157 85 93 69 4 41 3 0 0 0 0 0 2 1 2 1 1 0 1 0 1 5
2 29 177 107 115 132 204 344 234 9 32 21 21 75 83 0 0 0 1 84 148 108 31 19 3 4 10 9 3 0 3 4 1 3 6 1 4 0 0 0 0 17 2
0 15 150 52 177 153 246 324 441 187 114 64 10 0 47 1 0 0 0 89 86 54 63 9 2 1 0 0 0 0 0 0 0 0 0 5 9 0 0 0 25 1 0
0 0 60 49 27 89 79 390 577 351 299 147 93 2 0 3 0 0 0 21 67 1 0 0 0 0 0 0 2 1 0 0 0 0 3 9 30 6 0 7 23 3 0
0 0 0 8 24 102 51 353 282 278 193 63 4 2 1 14 1 0 0 38 28 12 6 2 0 0 0 0 8 24 3 3 0 4 27 28 36 20 1 7 0 26 23
0 0 0 17 7 94 105 449 408 199 58 55 5 2 1 0 0 0 0 22 25 30 0 6 0 0 0 0 9 0 18 23 56 44 23 34 44 63 4 14 75 15 0
0 0 0 91 2 16 85 445 374 365 31 302 103 11 18 9 0 0 0 0 1 28 16 1 0 0 0 0 0 8 19 80 56 30 3 0 0 0 1 8 0 0 0
0 0 0 92 0 0 0 211 272 125 3 124 249 180 28 12 9 17 0 0 0 0 0 0 0 0 0 0 0 0 0 0 0 0 0 0 1 0 0 0 0 0 0
0 0 0 2 43 6 0 5 47 104 2 0 222 269 147 59 4 2 21 7 22 21 1 0 0 0 0 0 0 0 1 0 0 0 0 0 0 0 0 0 0 0 0
0 0 0 0 6 161 4 0 0 0 0 0 0 20 18 84 0 0 0 0 0 0 0 0 0 0 0 0 0 0 0 0 0 0 0 0 0 0 0 0 0 0 0
0 2 0 0 0 12 137 47 0 0 0 0 0 0 0 0 0 0 0 0 0 0 50 53 11 0 0 0 0 0 0 0 0 0 0 0 0 0 0 0 0 0 0
4 0 0 0 0 0 4 81 14 0 0 0 0 0 0 0 0 0 0 0 0 0 25 134 26 3 0 0 0 0 0 0 0 0 0 0 0 0 0 0 0 0 0
0 0 0 0 0 0 0 0 1 0 0 0 0 0 0 0 0 0 0 0 0 0 4 33 1 1 0 0 0 0 0 0 0 0 0 0 0 0 0 0 0 0 0
0 0 0 0 0 0 0 0 0 0 0 0 0 0 0 0 0 0 0 0 0 0 0 0 0 0 0 0 0 0 0 0 0 0 0 0 0 0 0 0 0 0 0
0 0 0 0 0 0 0 0 0 0 0 0 0 0 0 0 0 0 0 0 0 0 0 0 0 0 0 0 0 0 0 0 0 0 0 0 0 0 0 0 0 0 0
142 51 0 0 0 0 0 0 0 0 0 0 0 0 0 0 0 0 0 0 0 0 0 0 0 0 0 0 0 0 0 0 0 0 0 0 0 0 0 0 0 0 0
187 209 34 0 0 0 0 0 0 0 0 0 0 0 0 0 0 0 0 0 0 0 0 0 0 0 0 0 0 0 0 0 0 0 0 0 0 0 0 0 0 0 0
291 271 259 53 0 0 0 0 0 0 0 0 0 0 0 0 0 0 0 0 0 0 0 0 0 0 0 0 0 0 0 0 0 0 0 0 0 0 0 0 0 0 0
280 345 329 285 70 2 0 0 0 0 0 0 0 0 0 0 0 0 0 0 0 0 0 0 0 0 0 0 0 0 0 0 0 0 0 0 0 0 0 0 0 0 0
151 270 376 379 216 113 21 6 3 0 0 0 0 0 0 0 0 0 0 0 0 0 0 0 0 0 0 0 0 0 0 0 0 0 0 0 0 0 0 0 0 0 0

GFSGL_con_mlcape_039.txt.gz
CAPE
193 120 95 46 56 45 107 315 34 4 4 54 162 127 21 7 100 71 43 21 0 2 21 15 15 93 192 225 99 84 53 86 125 62 3 2 4 2 3 3 3 2 0
139 87 28 96 157 80 209 221 1 28 13 53 39 86 112 136 134 59 41 31 17 8 6 8 0 29 77 69 55 56 90 37 42 20 2 1 2 3 3 5 7 6 3
132 81 27 80 53 93 177 240 140 29 44 15 49 30 49 151 178 144 93 46 38 30 29 31 15 32 28 53 38 20 23 9 10 0 1 2 2 6 14 12 2 1 1
69 54 18 39 31 14 16 105 185 50 113 18 31 22 70 41 79 115 92 40 6 32 11 27 49 31 22 21 20 35 2 1 2 2 2 3 5 7 1 1 1 1 1
45 87 82 51 6 27 3 31 96 8 15 23 34 26 13 13 20 10 0 38 60 45 20 17 24 22 28 17 17 15 10 2 2 2 5 2 2 2 1 2 1 0 0
138 193 252 71 53 12 0 30 38 16 28 12 18 0 0 0 0 0 0 1 20 10 6 13 4 0 0 0 0 0 0 2 3 2 2 3 1 1 1 2 1 0 1
213 235 306 138 31 59 50 26 33 8 0 0 0 0 0 0 0 0 8 15 14 0 0 0 3 0 0 0 0 0 0 0 0 0 1 1 1 1 0 1 0 0 0
217 202 129 90 33 60 67 2 0 0 1 0 13 0 0 0 0 0 2 5 2 6 0 0 0 0 1 0 0 0 1 1 0 0 0 0 0 0 0 0 0 0 0
282 243 228 223 104 167 98 2 1 16 31 26 22 0 0 0 0 0 8 7 2 0 3 4 1 0 0 0 0 0 0 0 0 0 0 0 0 0 0 0 0 0 0
261 301 281 279 205 229 151 2 13 17 15 20 24 0 0 0 0 0 3 2 0 0 0 0 0 0 0 0 0 0 0 0 0 0 0 0 0 0 0 0 0 0 0
101 334 325 202 259 243 121 90 24 22 1 0 1 0 0 0 0 0 0 0 0 0 0 0 0 0 0 0 0 0 0 0 0 0 0 0 0 0 0 0 0 0 0
17 310 372 308 455 195 145 113 15 0 0 0 1 1 0 0 0 0 0 0 0 0 0 0 0 0 0 0 0 0 0 0 2 3 1 0 0 0 0 0 0 3 0
6 220 269 268 336 197 145 152 43 0 0 0 0 9 0 0 0 0 0 0 0 0 0 0 0 0 0 0 0 0 0 0 0 0 1 2 0 0 0 0 0 0 0
34 117 161 199 203 292 326 267 77 10 0 0 0 1 0 0 0 0 0 0 0 0 0 0 0 0 0 0 0 0 0 0 0 0 0 0 0 0 0 0 0 0 0
42 59 127 122 203 291 187 192 251 173 5 0 0 0 0 0 0 0 0 0 0 0 0 0 0 0 0 0 0 0 0 0 0 0 0 0 0 0 0 0 0 0 0
50 49 99 83 27 153 96 0 0 0 147 60 0 0 0 0 0 0 0 0 0 0 0 0 0 0 0 0 0 0 0 0 0 0 0 0 0 0 0 0 0 0 0
20 52 42 52 8 0 0 0 0 0 0 100 25 0 0 0 0 0 0 0 0 0 0 0 0 0 0 0 0 0 0 0 0 0 0 0 0 0 0 0 0 0 0
0 7 26 46 19 0 0 0 0 0 35 170 0 0 0 0 0 0 0 0 0 0 0 0 0 0 0 0 0 0 0 0 0 0 0 0 0 0 0 0 0 0 0
0 0 0 53 34 36 0 0 0 0 0 0 0 0 0 0 0 0 0 0 0 0 0 0 0 0 0 0 0 0 0 0 0 0 0 0 0 0 0 0 0 0 0
0 0 0 0 33 20 103 6 0 0 0 0 0 0 0 0 0 0 0 0 0 0 0 0 0 36 0 0 0 0 0 0 0 0 0 0 0 0 0 0 0 0 0
0 0 0 0 0 0 0 115 43 0 0 0 0 0 0 0 0 0 0 0 0 0 0 0 0 0 4 0 0 0 0 0 0 0 0 0 0 0 0 0 0 0 0
5 0 0 0 0 0 0 0 3 9 0 0 0 0 0 0 0 0 0 0 0 0 0 3 0 0 0 0 0 0 0 0 0 0 0 0 0 0 0 0 0 0 0
45 2 0 0 0 0 0 0 0 0 0 0 0 0 0 0 0 0 0 0 0 0 0 0 0 0 0 0 0 0 0 0 0 0 0 0 0 0 0 0 0 0 0
29 9 0 0 0 0 0 0 0 0 0 0 0 0 0 0 0 0 0 0 0 0 0 0 0 0 0 0 0 0 0 0 0 0 0 0 0 0 0 0 0 0 0
97 34 21 0 0 0 0 0 0 0 0 0 0 0 0 0 0 0 0 0 0 0 0 0 0 0 0 0 0 0 0 0 0 0 0 0 0 0 0 0 0 0 0
100 202 196 71 7 3 0 0 0 0 0 0 0 0 0 0 0 0 0 0 0 0 0 0 0 0 0 0 0 0 0 0 0 0 0 0 0 0 0 0 0 0 0

GFSGL_con_mlcape_042.txt.gz
CAPE
91 20 15 10 17 0 11 50 15 8 0 0 1 4 1 12 0 5 0 0 1 12 9 4 5 33 84 30 0 37 31 45 44 46 24 2 2 2 3 3 2 2 0
49 17 35 0 0 9 68 75 0 0 0 13 56 1 0 1 58 0 4 0 0 7 11 0 0 52 38 34 28 16 38 51 33 48 11 2 1 3 3 3 4 2 2
32 25 0 4 24 5 18 51 0 0 4 21 12 7 10 23 61 54 28 4 15 26 33 24 2 39 33 42 19 11 29 24 0 5 14 3 2 3 2 4 3 3 5
43 1 0 0 0 6 0 0 0 0 34 30 19 67 15 31 63 56 22 5 22 8 21 20 17 18 23 23 7 0 0 0 1 2 3 2 2 5 1 3 4 2 1
29 28 7 3 0 0 0 0 21 13 44 30 26 20 13 26 25 23 3 4 4 7 20 29 21 22 11 5 5 6 3 2 4 3 3 3 2 2 4 1 1 1 1
23 40 33 1 0 0 0 3 4 12 27 21 15 3 0 0 0 0 4 37 26 2 5 7 3 0 5 8 10 0 0 1 2 3 3 2 2 1 2 2 1 1 0
56 90 54 6 1 0 0 6 0 12 9 0 0 0 0 0 0 0 1 0 0 3 3 1 2 0 0 0 0 0 0 0 0 0 0 1 1 1 1 1 0 0 0
92 166 140 76 1 11 0 0 2 0 0 0 0 0 0 0 0 0 4 0 0 12 0 0 0 0 1 1 1 0 0 0 0 0 0 0 0 0 0 0 0 0 0
134 183 122 82 25 24 0 0 0 0 1 1 0 0 0 0 0 6 4 8 4 3 2 1 0 0 0 0 0 1 0 0 0 0 0 0 0 0 0 0 0 0 0
118 152 116 91 61 28 0 0 0 10 22 15 0 0 0 0 0 6 4 1 0 0 0 0 0 0 0 0 0 0 1 0 0 0 0 0 0 0 0 0 0 0 0
115 145 158 157 107 90 13 0 0 7 10 5 0 0 0 0 0 0 1 0 0 0 0 0 0 0 0 0 0 1 0 0 0 0 1 1 0 0 0 0 0 0 0
121 168 177 142 250 109 29 0 7 0 0 0 0 0 0 0 0 0 0 0 0 0 0 0 0 0 0 0 0 0 0 0 1 2 0 0 0 0 0 0 0 0 0
119 176 203 178 261 86 36 0 0 0 0 1 2 1 0 0 0 0 0 0 0 0 0 0 0 0 0 0 0 0 0 1 0 0 0 0 0 0 0 0 0 0 0
81 221 170 230 190 99 65 8 0 0 0 0 5 0 0 0 0 0 0 0 0 0 0 0 0 0 0 0 0 0 0 0 0 0 1 0 0 0 0 0 0 0 0
80 193 209 215 137 86 86 34 5 0 0 0 0 0 0 0 0 0 0 0 0 0 0 0 0 0 0 0 1 0 0 0 0 0 0 0 0 0 0 0 0 0 0
48 120 121 147 121 47 59 1 0 0 0 0 0 0 0 0 0 0 0 0 0 0 0 0 0 0 0 0 1 0 0 0 0 0 0 0 0 0 0 0 0 0 0
2 50 41 59 55 5 32 52 64 0 0 0 0 0 0 0 0 0 0 0 0 0 0 0 0 0 2 1 0 0 0 0 0 0 0 0 0 0 0 0 0 0 0
0 1 4 5 8 0 0 20 0 0 31 85 0 0 0 0 0 0 0 0 0 0 0 0 0 0 0 0 0 0 0 0 0 0 0 0 0 0 0 0 0 0 0
0 0 0 0 0 0 0 0 0 0 102 98 0 0 0 0 0 0 0 0 0 0 0 0 0 0 0 0 0 0 0 0 0 0 0 0 0 0 0 0 0 0 0
0 0 0 0 0 0 0 0 0 0 0 19 51 8 0 0 0 0 0 0 0 0 0 0 0 0 0 0 0 0 0 0 0 0 0 0 0 0 0 0 0 0 0
0 0 0 0 0 0 0 0 0 0 0 0 0 0 0 0 0 0 0 0 0 0 0 0 0 0 0 0 0 0 0 0 0 0 0 0 0 0 0 0 0 0 0
0 0 0 0 0 0 0 0 0 0 0 0 0 0 0 0 0 0 0 0 0 0 0 0 0 0 0 0 0 0 0 0 0 0 0 0 0 0 0 0 0 0 0
0 0 0 0 0 0 0 0 0 0 0 0 0 0 0 0 0 0 0 0 0 0 0 0 0 0 0 0 0 0 0 0 0 0 0 0 0 0 0 0 0 0 0
0 0 0 0 0 0 0 0 0 0 0 0 0 0 0 0 0 0 0 0 0 0 0 0 0 0 0 0 0 0 0 0 0 0 0 0 0 0 0 0 0 0 0
2 0 0 0 0 0 0 0 0 0 0 0 0 0 0 0 0 0 0 0 0 0 0 0 0 0 0 0 0 0 0 0 0 0 0 0 0 0 0 0 0 0 0
148 116 6 0 0 0 0 0 0 0 0 0 0 0 0 0 0 0 0 0 0 0 0 0 0 0 0 0 0 0 0 0 0 0 0 0 0 0 0 0 0 0 0

GFSGL_con_mlcape_045.txt.gz
CAPE
24 0 0 35 24 6 0 1 0 0 0 0 0 0 0 0 0 0 0 0 0 4 11 13 28 18 16 10 9 2 0 1 25 40 12 2 1 0 1 2 3 3 3
0 0 0 9 0 0 3 0 0 0 0 0 0 0 0 0 0 2 0 0 0 11 6 2 8 39 37 43 6 10 10 10 43 38 3 4 3 2 1 3 2 3 4
0 4 6 0 0 0 0 0 0 0 0 0 0 1 0 0 19 15 15 1 2 16 14 10 1 7 36 27 14 4 16 5 17 21 1 3 3 3 3 3 2 1 1
0 15 1 0 3 0 0 0 0 0 0 1 1 18 10 3 24 6 12 11 19 15 40 22 13 8 36 14 0 4 1 0 0 2 1 3 3 3 2 2 4 3 3
5 2 0 2 0 0 0 0 0 1 11 23 29 32 14 11 11 9 6 0 2 18 26 13 14 18 15 12 3 1 1 0 1 2 0 2 4 4 2 2 1 1 1
20 4 0 12 0 0 0 0 0 0 14 19 20 14 7 0 0 0 0 0 0 11 10 2 2 3 1 8 12 4 0 0 1 0 1 2 3 0 1 1 0 1 0
38 14 20 20 0 0 0 0 0 0 5 1 10 2 0 0 0 0 0 0 0 3 10 4 6 0 0 0 2 1 3 0 0 0 0 1 1 1 1 2 1 0 0
31 30 49 33 13 0 0 0 0 0 1 0 0 0 0 0 0 0 0 0 0 0 1 4 6 0 0 0 0 0 0 0 0 0 0 0 1 1 0 0 0 0 0
51 67 85 59 35 9 0 0 0 0 1 0 0 0 0 0 0 0 1 6 2 1 1 1 0 0 0 1 0 0 0 0 0 0 0 0 0 0 0 0 0 0 0
42 105 104 81 49 21 0 0 0 0 8 0 0 0 0 0 0 2 9 8 2 0 0 0 0 0 0 0 1 0 0 0 0 0 0 0 0 0 0 0 0 0 0
50 100 90 65 42 16 0 0 0 11 11 0 0 0 0 0 0 1 4 0 0 1 0 0 0 0 0 0 0 1 0 1 1 1 2 1 1 0 0 0 0 0 0
38 97 69 50 53 17 0 0 0 3 0 0 0 0 0 0 0 0 0 0 0 0 0 0 0 0 0 0 0 0 0 0 1 2 2 1 0 0 0 0 0 0 0
33 90 91 85 58 38 0 0 0 0 0 0 0 0 0 0 0 0 0 0 0 0 0 0 0 0 0 0 0 0 0 0 1 1 0 0 0 0 0 0 0 0 0
20 99 128 105 81 62 0 0 0 0 0 0 0 0 0 0 0 0 0 0 0 0 0 0 0 0 0 0 0 0 0 0 0 0 0 0 0 0 0 0 0 0 0
0 104 174 100 96 31 5 0 0 0 0 1 2 0 0 0 0 0 0 0 0 0 0 0 0 0 0 1 1 0 0 0 0 0 0 0 0 0 0 0 0 0 0
3 99 182 78 103 3 0 0 0 0 0 0 0 0 0 0 0 0 0 0 0 0 0 0 0 0 0 1 1 1 0 0 0 0 0 0 0 0 0 0 0 0 0
1 77 134 93 94 0 0 0 0 0 0 0 0 0 0 0 0 0 0 0 0 0 0 0 0 0 0 0 0 0 1 0 0 0 0 0 0 0 0 0 0 0 0
0 14 102 115 63 0 0 0 0 0 7 2 0 0 0 0 0 0 0 0 0 0 0 0 0 0 0 0 0 0 0 0 0 0 0 0 0 0 0 0 0 0 0
0 0 20 27 20 0 0 0 1 3 0 8 0 0 0 0 0 0 0 0 0 0 0 0 0 0 1 0 0 0 0 0 0 0 0 0 0 0 0 0 0 0 0
0 0 0 0 0 0 0 0 0 0 0 22 7 0 0 0 0 0 0 0 0 0 0 0 0 0 0 0 0 0 0 0 0 0 0 0 0 0 0 0 0 0 0
0 0 0 0 0 0 0 0 0 0 0 0 26 0 0 0 0 0 0 0 0 0 0 0 0 0 0 0 0 0 0 0 0 0 0 0 0 0 0 0 0 0 0
0 0 0 0 0 0 0 0 0 0 0 0 0 0 0 0 0 0 0 0 0 0 0 0 0 0 0 0 0 0 0 0 0 0 0 0 0 0 0 0 0 0 0
0 0 0 0 0 0 0 0 0 0 0 0 0 0 0 0 0 0 0 0 0 0 0 0 0 0 0 0 0 0 0 0 0 0 0 0 0 0 0 0 0 0 0
0 0 0 0 0 0 0 0 0 0 0 0 0 0 0 0 0 0 0 0 0 0 0 0 0 0 0 0 0 0 0 0 0 0 0 0 0 0 0 0 0 0 0
0 0 0 0 0 0 0 0 0 0 0 0 0 0 0 0 0 0 0 0 0 0 0 0 0 0 0 0 0 0 0 0 0 0 0 0 0 0 0 0 0 0 0
1 0 0 0 0 0 0 0 0 0 0 0 0 0 0 0 0 0 0 0 0 0 0 0 0 0 0 0 0 0 0 0 0 0 0 0 0 0 0 0 0 0 0

GFSGL_con_mlcape_048.txt.gz
CAPE
0 0 0 0 1 4 0 0 0 0 0 0 0 0 0 0 0 0 0 0 0 12 22 34 28 23 51 40 4 3 0 4 3 12 2 2 0 0 0 3 1 2 0
0 0 0 0 0 0 0 0 0 0 0 0 0 0 0 0 0 0 0 0 0 19 17 17 26 30 14 13 3 2 2 25 9 2 3 2 2 2 3 2 3 3 3
0 0 0 0 0 0 0 0 0 0 0 0 0 0 0 0 0 0 0 2 0 13 2 2 7 4 10 17 6 3 12 15 2 3 2 4 3 3 2 2 2 1 3
0 0 0 0 0 0 0 0 0 0 0 0 0 0 0 0 0 7 4 2 3 16 24 11 19 3 15 9 11 7 11 10 1 1 3 3 3 3 2 2 3 4 4
0 0 0 0 0 0 0 0 0 0 0 5 4 8 7 7 0 0 0 0 11 18 19 23 17 27 21 8 1 0 0 0 1 3 4 2 3 3 2 1 1 1 1
0 0 0 0 1 0 0 0 0 0 7 31 24 13 11 0 0 0 0 0 0 16 14 13 4 0 8 5 3 0 0 5 0 1 2 2 3 2 2 2 2 2 1
0 0 0 0 4 0 0 0 0 0 5 15 15 6 0 0 0 0 0 0 0 1 12 9 8 0 0 2 3 1 0 0 0 0 0 1 2 1 1 2 2 2 0
0 0 1 9 1 0 0 0 0 0 1 0 0 0 0 0 0 0 0 0 0 1 7 17 1 1 0 1 6 0 0 0 0 0 1 0 2 0 0 0 0 0 1
19 10 13 17 17 6 0 0 0 0 0 0 0 0 0 0 0 0 0 2 2 0 0 1 0 0 0 0 0 2 0 0 0 0 0 0 0 0 0 0 0 0 1
15 13 11 27 40 16 0 0 0 3 1 0 0 0 0 0 0 0 11 13 4 1 0 0 0 0 0 0 0 0 0 0 0 0 0 0 0 0 0 0 0 0 0
13 10 27 43 48 6 0 0 0 13 10 1 0 0 0 0 0 2 8 8 3 2 0 0 0 0 0 0 1 0 0 1 0 1 1 1 2 0 0 0 0 0 0
5 18 54 43 42 0 0 0 0 13 9 0 0 0 0 0 0 0 0 1 0 2 0 0 0 0 0 0 0 0 0 1 2 2 2 2 1 0 0 0 0 0 0
0 38 56 31 16 0 0 0 0 0 0 0 0 0 0 0 0 0 0 0 0 0 0 0 0 0 0 0 0 0 1 2 2 2 1 1 0 0 0 0 0 0 0
0 17 28 39 19 0 0 0 0 3 1 0 0 0 0 0 0 0 0 0 0 0 0 0 0 0 0 0 0 1 1 1 2 2 0 1 0 0 0 0 0 0 0
0 4 37 28 26 17 0 0 0 2 1 0 0 0 0 0 0 0 0 0 0 0 0 1 0 0 0 1 3 1 1 1 1 1 0 0 0 0 0 0 0 0 0
0 7 55 69 47 26 0 0 0 0 0 0 1 0 0 0 0 0 0 0 0 0 1 0 0 0 1 2 1 1 1 0 0 0 0 0 0 0 0 0 0 0 0
0 0 26 100 81 33 0 0 0 0 0 0 0 0 0 0 0 0 0 0 0 0 0 1 0 1 1 1 1 1 1 0 0 0 0 0 0 0 0 0 0 0 0
0 0 21 120 116 60 0 0 0 0 1 0 0 0 0 0 0 0 0 0 0 0 0 0 0 0 1 1 1 1 0 1 0 0 0 0 0 0 0 0 0 0 0
0 0 5 87 106 76 0 0 0 0 0 0 0 0 0 0 0 0 0 0 0 0 0 0 0 0 0 0 0 0 0 0 0 0 0 0 0 0 0 0 0 0 0
0 0 0 16 44 55 0 0 0 0 0 0 0 0 0 0 0 0 0 0 0 0 0 0 0 0 0 0 0 0 1 1 0 1 0 0 0 0 0 0 0 0 0
0 0 0 0 2 19 4 0 0 0 0 0 0 0 0 0 0 0 0 0 0 0 0 0 0 0 1 1 0 0 0 0 0 0 0 0 0 0 0 0 0 0 0
0 0 0 0 0 0 0 0 0 0 0 0 0 0 0 0 0 0 0 0 0 0 0 0 0 0 0 0 0 0 0 0 0 0 0 0 0 0 0 0 0 0 0
0 0 0 0 0 0 0 0 0 0 0 0 0 0 0 0 0 0 0 0 0 0 0 0 0 0 0 0 0 0 0 0 0 0 0 0 0 0 0 0 0 0 0
0 0 0 0 0 0 0 0 0 0 0 0 0 0 0 0 0 0 0 0 0 0 0 0 0 0 0 0 0 0 0 0 0 0 0 0 0 0 0 0 0 0 0
0 0 0 0 0 0 0 0 0 0 0 0 0 0 0 0 0 0 0 0 0 0 0 0 0 0 0 0 0 0 0 0 0 0 0 0 0 0 0 0 0 0 0
0 0 0 0 0 0 0 0 0 0 0 0 0 0 0 0 0 0 0 0 0 0 0 0 0 0 0 0 0 0 0 0 0 0 0 0 0 0 0 0 0 0 0

GFSGL_con_mlcape_051.txt.gz
CAPE
298 184 166 143 112 129 155 129 128 93 31 18 6 17 11 81 171 87 35 35 33 205 222 228 284 306 380 318 135 284 143 177 104 1 1 1 2 5 104 37 2 2 1
114 120 114 88 88 85 80 101 106 32 19 0 0 4 74 106 120 117 84 49 82 82 120 107 21 114 211 182 96 22 223 288 47 0 3 2 1 3 2 2 3 4 3
60 58 55 36 28 54 91 87 48 0 0 7 1 55 91 155 211 273 114 68 28 19 13 0 3 10 40 149 35 146 367 232 76 5 2 3 2 2 2 2 2 2 2
46 16 0 0 30 102 101 44 13 36 0 8 21 61 103 179 231 213 184 53 16 23 6 48 19 14 27 39 79 257 173 39 43 1 1 2 3 2 3 2 3 3 3
0 0 0 5 47 95 82 1 2 4 35 26 65 120 195 234 75 111 59 42 86 38 17 10 16 22 21 21 84 122 37 19 3 1 4 2 3 3 3 2 2 1 2
0 0 0 10 58 86 103 2 0 14 49 68 50 57 26 9 0 0 10 59 63 29 6 24 13 7 6 3 7 62 13 16 1 0 2 2 3 1 2 2 1 1 2
0 5 5 46 75 77 86 37 11 18 30 62 41 25 32 3 0 0 0 48 49 73 25 19 3 1 25 4 0 0 0 0 5 0 1 3 3 2 2 2 2 2 2
0 6 22 70 77 111 117 63 0 2 32 34 62 56 32 0 0 0 0 84 42 34 26 25 2 0 10 5 9 4 4 4 1 2 3 3 3 5 1 2 1 2 2
0 19 35 72 72 113 139 55 6 24 40 42 44 19 23 0 0 0 8 15 6 6 2 1 1 0 0 1 5 3 2 0 0 0 1 0 0 4 1 0 0 1 3
30 55 66 84 104 132 107 8 1 63 45 6 9 3 0 0 0 0 16 15 5 0 0 0 0 0 0 0 2 2 0 0 0 0 0 0 1 0 0 0 0 0 1
67 94 109 136 164 191 87 31 38 42 23 21 4 1 0 2 1 2 11 13 2 1 0 0 0 0 0 0 0 1 0 3 0 2 2 3 3 0 0 0 0 0 0
90 116 152 213 127 123 117 57 65 40 23 0 11 3 0 0 0 0 0 2 1 1 0 0 0 0 0 0 1 0 0 0 3 3 2 2 1 1 0 0 0 0 0
111 176 256 232 199 176 169 17 15 30 20 0 5 7 2 0 0 0 0 0 0 2 0 0 0 0 0 0 0 0 1 2 2 3 3 3 2 0 0 0 0 0 0
147 243 261 236 188 179 76 7 8 6 5 3 3 6 5 1 0 1 1 0 0 0 0 0 0 0 0 0 0 2 2 2 2 3 4 3 6 4 0 0 0 0 0
132 235 297 244 254 48 4 2 6 7 12 3 2 1 2 0 1 0 1 1 0 0 0 1 1 1 2 3 2 2 3 3 4 6 4 3 2 2 7 6 3 0 0
102 219 299 268 187 29 0 0 0 0 0 0 0 8 3 1 0 0 0 0 0 0 1 1 1 2 3 2 2 2 4 3 0 8 6 5 11 8 6 6 3 0 0
62 219 238 350 256 6 0 1 0 0 0 0 0 0 0 0 0 0 0 0 0 1 1 1 2 2 4 3 3 2 4 7 8 15 8 5 6 8 2 1 0 0 0
87 77 194 354 376 104 7 28 50 17 2 1 0 0 0 0 0 0 0 0 0 1 2 1 1 5 4 3 3 6 6 5 9 8 10 10 5 4 0 0 0 0 0
68 65 198 345 413 284 170 85 119 178 195 2 0 0 0 0 0 0 0 1 1 3 5 1 2 2 1 1 1 4 7 3 4 5 6 6 4 3 1 0 0 0 0
15 13 98 253 330 272 197 51 117 169 160 52 0 0 0 0 0 0 0 1 2 1 6 9 5 0 0 2 7 3 3 3 2 5 8 8 5 1 0 0 0 0 0
19 0 21 170 227 309 233 106 63 138 195 56 183 0 0 0 0 0 0 2 1 0 0 0 2 6 4 5 3 2 2 1 0 0 0 0 0 0 0 0 0 0 0
5 0 2 78 153 228 239 148 48 39 156 129 192 0 0 0 0 0 0 0 0 0 0 0 0 0 0 0 0 0 0 0 0 0 0 0 0 0 0 0 0 0 0
0 0 16 43 62 66 78 155 96 39 1 62 141 0 0 0 15 4 0 0 0 5 11 3 0 0 0 0 0 0 0 0 0 0 0 0 0 0 0 0 0 0 0
0 0 6 13 10 8 32 91 70 9 17 0 1 0 0 0 11 37 29 11 2 0 0 1 1 0 0 0 0 0 0 0 0 0 0 0 0 0 0 0 0 0 0
0 0 0 0 0 1 0 4 9 4 0 0 0 0 0 0 0 0 20 60 60 23 2 0 0 0 0 0 0 0 0 0 0 0 0 0 0 0 0 0 0 0 0
1 0 0 0 0 0 0 0 0 0 0 0 0 0 0 0 0 0 0 0 0 0 0 0 0 0 0 0 0 0 0 0 0 0 0 0 0 0 0 0 0 0 0

GFSGL_con_mlcape_054.txt.gz
CAPE
1433 1201 1027 796 831 846 856 804 805 747 623 540 451 332 204 177 211 311 371 309 258 256 231 299 302 407 414 298 444 422 439 587 489 145 3 3 1 231 666 398 369 90 0
887 732 715 716 716 717 621 601 561 422 327 212 91 59 35 179 384 438 324 184 243 255 314 293 283 344 478 501 365 149 479 438 334 27 1 2 1 1 159 39 3 4 4
637 666 651 623 552 491 378 322 323 232 108 19 11 8 38 260 341 329 228 179 132 76 6 53 130 93 370 526 416 294 582 630 242 17 1 2 3 1 1 3 4 3 3
463 401 419 306 112 140 312 301 161 132 57 25 29 18 56 264 280 255 173 175 84 17 4 26 5 0 11 336 442 297 531 347 219 8 2 3 2 1 3 2 3 4 3
364 170 9 58 255 354 297 186 160 46 7 20 28 45 101 147 171 219 277 154 168 25 16 9 19 20 19 33 352 459 334 253 39 2 3 4 3 2 3 3 4 2 2
1 0 31 156 273 325 237 179 99 49 96 66 48 109 178 33 0 0 114 232 210 113 10 18 32 11 10 2 36 152 345 149 4 1 3 4 4 2 3 3 2 2 2
0 3 73 187 244 283 261 182 86 159 160 45 65 65 161 5 0 0 0 157 149 135 24 24 2 26 10 26 8 18 8 12 2 0 2 3 4 2 2 2 2 1 1
0 22 137 169 192 200 204 163 216 213 234 165 58 44 191 0 0 0 0 126 158 114 23 23 1 51 72 1 17 12 10 16 1 26 3 3 2 3 1 0 1 1 1
7 66 123 175 176 187 298 277 290 210 281 171 94 58 143 0 0 0 0 116 108 43 7 3 3 1 0 0 11 12 28 11 0 0 1 1 0 1 2 0 1 1 4
17 45 117 175 199 180 311 374 310 292 315 213 186 93 18 0 0 0 0 19 1 2 1 0 0 1 0 0 4 4 14 6 2 0 0 0 0 0 0 0 0 0 2
57 68 159 191 282 355 341 394 366 333 197 102 86 86 67 46 0 2 7 13 2 3 3 1 0 0 0 0 22 47 13 16 7 11 6 6 2 3 1 0 3 0 0
52 47 168 272 365 335 443 428 330 200 133 100 85 42 15 5 1 1 4 6 1 4 3 4 0 0 0 0 7 0 0 1 6 5 4 2 2 3 0 0 0 0 25
59 58 186 354 364 391 424 421 233 101 75 45 51 33 10 7 1 0 0 0 0 5 2 1 0 0 0 0 0 0 0 3 4 4 3 3 2 1 0 0 26 18 2
74 89 149 309 385 377 403 328 142 75 49 33 49 8 7 11 1 1 0 0 0 0 0 0 0 0 0 0 0 0 3 4 7 3 2 1 2 2 0 0 8 8 5
100 142 207 280 306 337 292 84 52 22 24 39 24 28 26 16 6 7 11 2 3 1 1 3 3 2 2 3 3 2 0 5 3 3 2 2 3 4 3 16 18 10 6
133 148 207 270 446 239 169 1 0 1 0 0 1 3 2 3 0 0 0 0 0 0 2 1 2 3 3 4 3 2 1 3 3 0 2 15 16 16 16 6 8 6 2
121 47 159 304 432 224 139 108 5 0 0 0 0 0 0 0 0 0 0 0 0 1 1 2 2 2 2 2 1 2 3 7 9 7 12 21 11 11 6 8 9 15 18
119 90 135 178 344 320 62 109 119 8 3 3 0 0 0 0 0 0 0 0 2 1 1 11 7 5 1 4 3 9 14 31 20 22 21 14 9 7 8 10 15 4 0
98 107 90 127 254 284 18 91 256 294 78 10 0 0 0 0 0 0 0 13 8 4 6 4 32 27 3 5 7 10 8 14 10 6 5 3 3 21 19 8 0 0 0
33 10 88 153 321 258 39 177 346 489 285 19 0 0 0 0 0 0 0 2 14 7 0 4 5 16 11 8 9 7 11 7 9 6 5 11 8 10 3 0 0 0 0
6 70 126 169 251 227 43 38 203 293 275 213 90 0 0 0 0 0 0 0 12 21 19 6 2 4 6 12 13 6 2 9 7 10 14 26 25 6 1 0 0 0 0
0 31 76 98 120 195 154 21 5 107 152 211 169 0 0 0 2 0 0 0 3 55 16 10 28 30 17 4 3 3 2 1 2 3 1 31 49 24 11 4 0 1 0
0 13 5 25 67 75 189 146 46 0 21 47 112 0 0 51 113 60 26 23 55 140 154 63 15 1 3 10 17 25 13 5 0 11 20 54 28 17 12 5 2 3 8
90 0 0 9 36 82 100 209 169 54 0 4 92 65 78 128 131 81 84 100 119 152 173 185 159 121 76 31 20 31 21 12 35 34 66 66 50 28 8 16 10 3 2
187 120 80 124 127 110 210 334 344 230 125 81 96 92 64 125 217 292 414 418 415 363 312 265 237 204 173 156 112 64 31 0 0 0 12 40 37 24 10 8 6 1 1
56 95 103 136 166 152 178 227 240 204 171 129 100 92 76 97 71 77 69 68 128 216 221 205 161 63 0 0 0 0 0 0 0 0 0 0 0 3 5 5 6 6 6

GFSGL_con_mlcape_057.txt.gz
CAPE
2035 1994 1951 1789 1738 1460 1057 1001 992 861 673 515 577 528 516 372 299 343 369 296 123 239 266 230 337 567 468 293 477 480 558 214 500 330 128 79 281 386 399 845 498 333 57
1864 1797 1605 1292 1068 1035 912 795 772 621 418 363 444 391 213 101 180 319 323 244 216 298 324 204 239 381 388 629 433 455 406 578 309 155 5 2 0 459 504 364 45 21 4
1444 1223 1092 974 952 826 654 572 445 321 281 257 168 53 10 37 235 351 173 139 337 384 361 115 160 305 228 549 700 517 543 731 423 55 1 2 1 0 0 1 1 2 3
1049 973 939 884 719 547 382 246 160 194 158 85 25 15 10 55 90 95 57 324 185 40 6 7 6 2 40 282 138 575 496 540 277 15 3 2 1 1 2 0 2 3 3
863 752 693 512 263 181 210 294 203 170 82 35 16 13 21 20 25 160 271 280 199 32 0 3 14 13 3 4 273 439 616 364 129 0 5 2 2 3 3 4 4 3 2
599 406 128 111 220 296 295 280 164 81 55 14 7 17 91 2 0 0 126 294 275 97 0 1 13 9 4 0 4 60 485 418 117 20 4 1 3 1 3 4 3 2 2
158 29 73 176 310 294 215 182 125 146 61 12 20 42 160 13 0 0 0 351 164 171 2 9 2 2 6 35 9 30 58 26 17 30 1 3 2 2 2 4 3 2 2
55 20 94 154 309 273 173 152 214 449 321 326 285 244 316 0 0 0 0 270 229 192 13 6 0 40 63 61 103 96 85 13 0 10 0 1 1 2 2 1 1 2 2
17 69 88 232 212 212 209 215 489 446 518 362 130 226 249 0 0 0 0 130 127 60 17 2 0 54 2 5 74 60 46 7 0 0 0 0 0 0 0 0 3 3 3
28 52 142 152 212 217 282 378 473 460 428 294 135 200 38 0 0 0 0 46 52 1 1 0 0 30 0 1 59 46 4 3 1 0 0 0 0 0 0 0 0 2 1
21 51 152 170 212 253 379 560 512 393 285 311 250 125 70 48 0 0 0 47 10 1 1 2 0 0 0 0 27 75 24 8 0 1 3 2 1 1 1 0 0 0 1
22 53 178 170 261 399 416 440 342 299 344 239 110 60 53 19 0 0 0 1 3 0 17 8 0 0 0 0 0 0 1 4 8 2 2 2 2 1 1 3 0 0 0
45 71 231 290 278 338 453 343 362 345 204 193 61 32 33 28 4 0 0 0 1 14 1 0 0 0 0 0 0 0 6 19 4 2 3 4 1 0 0 0 0 0 17
94 97 316 286 358 412 420 373 264 264 133 33 62 34 6 12 13 9 0 0 0 0 0 2 0 0 0 0 0 0 2 5 0 1 2 4 4 7 0 4 2 1 38
117 56 86 323 446 478 383 207 233 143 76 41 26 13 12 7 4 3 7 2 19 2 2 3 1 0 0 0 1 3 3 0 6 1 2 3 4 3 4 8 19 25 23
82 61 100 78 180 301 168 45 0 0 0 0 0 2 0 4 0 0 0 0 0 0 5 1 2 2 2 3 1 1 0 1 5 3 3 0 0 0 0 0 27 21 17
69 66 128 149 29 79 190 211 3 0 0 0 0 0 0 0 0 0 0 0 0 0 3 3 2 3 3 2 1 0 0 4 0 3 1 1 0 0 0 9 10 8 10
86 58 47 198 73 12 225 211 32 6 8 2 0 0 0 0 0 0 0 0 1 0 4 3 1 1 2 2 1 0 0 0 2 9 15 6 11 12 11 10 9 18 34
105 55 35 121 75 8 143 295 154 21 12 3 0 0 0 0 0 0 0 2 2 0 0 17 0 0 1 0 0 0 17 20 20 21 19 20 11 4 10 21 21 14 10
89 9 65 65 104 85 122 229 369 157 57 7 0 0 0 1 1 0 0 0 19 2 11 21 13 0 0 0 17 16 28 23 18 15 18 19 5 7 25 11 18 23 0
72 5 54 121 87 137 125 241 426 381 227 40 2 0 0 0 3 2 6 6 12 2 2 14 14 17 2 0 4 7 14 14 11 24 12 7 17 8 18 24 7 0 0
26 0 121 144 45 98 32 311 380 425 383 304 166 0 0 0 10 1 2 2 10 6 11 10 8 3 12 12 7 12 10 21 14 27 15 20 30 54 26 5 2 0 1
25 0 31 131 52 34 4 3 130 278 232 447 99 0 0 3 186 135 82 94 111 94 87 85 42 28 28 19 25 24 42 37 56 88 74 55 112 99 38 11 4 6 6
30 2 0 71 67 157 64 58 4 16 64 262 65 18 85 302 232 224 194 210 201 222 179 184 121 97 91 120 154 174 173 180 202 168 180 163 180 187 151 176 160 140 136
11 9 1 13 59 45 69 122 83 26 11 132 82 13 6 33 132 107 178 133 139 164 172 76 30 16 0 0 0 0 0 0 0 0 93 204 147 109 85 63 58 39 21
101 19 19 93 99 101 25 5 23 61 36 0 0 0 0 0 0 0 2 0 2 0 0 0 0 0 0 0 0 0 0 0 0 0 0 1 26 28 28 11 10 10 9

GFSGL_con_mlcape_060.txt.gz
CAPE
2290 2619 2604 2789 2488 2180 1910 1498 1362 1295 1158 1009 941 585 451 448 430 362 418 340 249 284 244 83 198 376 382 200 168 198 171 25 123 183 168 268 257 233 417 238 92 4 2
2490 2538 2495 2158 2016 1713 1356 1293 1029 908 613 597 609 146 260 379 302 268 388 382 84 106 204 197 85 419 194 410 64 153 178 81 48 28 2 0 50 355 528 283 185 16 0
2282 2124 1973 1745 1468 1369 1182 1022 811 678 466 326 384 215 221 125 31 195 157 120 252 83 345 242 215 217 49 66 147 73 297 151 240 1 1 2 2 70 0 9 0 0 0
1904 1629 1449 1351 1268 1114 923 725 609 380 368 341 236 94 31 202 26 231 215 157 182 95 37 32 2 13 29 25 86 204 232 104 121 0 3 0 0 1 0 0 0 1 2
1447 1377 1262 1216 993 799 579 371 260 353 246 142 68 29 53 137 50 130 115 226 104 17 0 0 0 0 7 0 49 35 114 126 8 0 3 0 0 0 0 2 1 3 3
1238 1272 1103 860 567 340 310 403 383 311 227 138 88 55 4 4 2 61 235 236 140 21 0 0 1 2 1 1 0 28 52 126 0 3 0 0 1 1 2 0 1 0 1
1002 833 509 301 451 439 434 204 285 234 95 51 73 89 118 0 0 0 0 230 122 99 14 0 4 12 4 15 6 1 19 72 0 1 0 1 0 0 3 3 2 0 0
535 235 210 459 454 387 193 139 134 191 58 67 124 111 226 0 0 0 0 293 118 138 12 6 1 24 9 60 52 46 21 7 17 11 0 0 0 0 2 0 0 3 2
190 168 201 531 400 296 133 147 247 229 159 229 241 252 98 0 0 0 0 145 119 34 19 2 5 49 18 22 77 45 0 0 0 0 0 0 0 0 0 0 2 0 4
150 166 162 417 421 237 263 310 313 309 434 404 144 244 42 0 0 0 0 30 1 1 0 1 0 14 0 3 53 20 0 0 0 0 0 0 0 0 0 0 0 0 1
205 177 368 385 277 285 222 295 250 353 436 222 160 22 75 0 0 0 0 26 0 0 1 0 0 0 0 1 14 5 0 0 0 0 2 1 1 2 1 0 0 0 0
189 368 438 163 311 374 364 284 384 305 203 165 111 47 47 21 0 0 0 0 0 0 1 2 0 0 0 0 6 0 0 0 0 1 2 1 2 1 0 0 0 0 0
328 545 359 254 414 419 316 481 269 224 144 118 59 64 19 1 0 0 0 0 0 0 0 0 0 0 0 0 0 0 0 0 0 2 3 2 0 0 1 0 0 0 0
745 565 421 397 403 340 381 291 178 135 176 160 49 20 19 39 0 0 0 0 0 0 0 0 0 0 0 0 0 13 13 0 0 1 1 1 1 3 0 0 0 0 0
774 640 469 309 353 345 158 79 119 0 37 18 42 12 2 8 32 3 3 5 0 0 0 2 0 0 0 1 2 6 5 0 0 0 1 1 0 0 0 0 0 0 4
530 665 384 331 605 382 106 1 0 0 0 0 2 15 0 1 0 0 0 0 0 0 1 1 0 0 0 1 3 3 4 0 0 0 0 1 1 0 0 0 1 0 1
180 299 274 514 451 354 194 105 0 0 0 0 0 0 0 0 0 0 0 0 0 1 0 1 1 1 2 1 0 2 1 0 0 0 1 1 0 0 0 0 0 2 4
397 95 74 35 374 219 183 143 4 1 0 0 0 0 0 0 0 0 0 0 0 1 0 1 2 2 2 0 0 0 2 0 1 0 0 0 0 0 0 0 4 0 0
303 61 101 98 30 206 238 70 3 3 2 0 0 0 0 0 0 0 0 1 0 1 2 1 1 0 0 0 0 0 0 0 0 4 3 3 0 0 4 0 0 0 0
162 63 70 126 14 305 310 160 157 56 0 0 0 0 0 1 1 0 0 6 3 0 9 1 0 0 0 0 0 0 1 5 0 12 9 12 14 13 8 3 0 9 0
98 10 14 141 119 211 400 521 412 222 132 0 0 0 0 0 0 0 1 4 14 9 14 5 1 0 0 0 0 2 7 4 15 17 16 13 15 4 7 6 7 12 20
77 18 59 210 111 321 328 446 580 374 259 55 5 0 0 0 0 0 5 11 20 21 26 11 2 3 0 0 2 9 12 18 17 20 11 5 10 17 8 25 66 44 11
51 13 133 171 120 130 302 534 625 526 355 142 0 0 0 0 8 6 0 12 52 38 36 38 19 21 10 7 7 15 21 29 26 66 45 82 87 78 95 137 144 47 41
40 0 69 183 63 31 45 251 425 440 374 75 0 0 0 3 38 119 64 51 62 6 4 16 0 1 0 0 0 0 0 0 0 15 101 130 161 115 137 146 112 112 87
106 9 0 41 90 133 37 2 21 246 192 41 36 108 0 0 2 0 0 0 0 0 0 0 0 0 0 0 0 0 0 0 0 0 0 38 171 165 107 103 160 139 90
83 81 52 9 26 56 138 37 4 0 0 0 0 0 0 0 0 0 0 0 0 0 0 0 0 0 0 0 0 0 0 0 0 0 0 0 5 13 11 1 6 9 25

GFSGL_con_mlcape_063.txt.gz
CAPE
338 739 1382 1701 1892 2541 2168 2170 1826 1684 1578 1515 1500 996 705 437 395 195 245 309 252 229 135 122 8 109 212 104 38 74 47 1 11 15 1 45 43 74 95 21 11 4 10
1608 1829 1786 2001 2427 2146 1783 1578 1723 1799 1544 1246 895 563 109 191 268 137 82 158 27 9 2 32 12 190 49 66 25 79 67 16 28 21 11 7 63 61 45 39 0 0 10
1977 1988 2321 2160 1984 1456 943 826 855 849 660 641 428 41 34 215 78 79 127 171 31 3 6 46 39 55 40 30 52 40 75 81 13 13 5 0 13 26 11 0 0 0 0
1665 1859 2021 1659 1331 879 609 487 407 303 238 255 186 29 169 115 5 2 95 70 72 13 43 9 2 15 10 8 21 40 72 74 4 0 0 0 0 0 0 0 0 0 1
1685 1666 1642 1236 965 748 569 431 303 172 209 190 84 64 39 29 17 114 184 86 6 8 0 0 0 0 1 7 7 13 41 22 0 0 0 2 0 0 0 1 0 0 1
1478 1424 1207 979 785 609 406 324 152 196 105 30 15 29 21 6 17 48 144 49 12 2 0 0 0 0 4 1 1 24 14 9 1 0 0 1 1 0 0 0 0 0 1
1205 1117 981 743 542 355 222 243 221 133 129 39 11 4 3 2 5 14 67 32 3 8 0 0 0 10 10 3 0 1 35 17 0 0 0 0 0 0 0 1 0 0 0
1046 821 627 445 360 288 279 184 280 78 8 41 35 1 0 0 0 0 1 40 42 33 2 0 1 13 4 21 11 5 15 0 0 0 0 0 0 0 0 0 0 0 1
581 450 352 399 373 273 142 31 121 37 5 14 50 11 0 0 0 0 29 46 12 6 1 5 11 27 4 4 3 0 0 0 0 0 0 0 0 0 0 0 0 0 1
225 206 446 379 263 80 22 147 66 16 10 45 105 45 0 0 0 0 38 9 0 0 0 6 8 1 0 13 2 0 0 0 0 0 0 0 0 0 0 0 0 0 1
145 216 505 393 242 135 101 174 131 90 81 122 111 36 0 0 0 0 0 0 0 0 0 3 0 0 0 5 0 0 0 0 0 0 1 0 1 1 0 0 0 0 1
164 390 564 358 198 253 209 135 123 155 99 90 44 31 1 0 0 0 0 0 0 0 0 0 0 0 0 3 0 0 0 0 1 1 1 1 1 0 0 0 0 0 0
366 389 343 198 84 163 146 146 241 171 101 69 30 26 23 0 0 0 0 0 0 0 0 0 0 0 0 0 0 0 0 0 1 1 2 2 0 0 0 0 0 0 0
283 250 196 111 218 207 194 239 142 83 64 51 32 44 11 0 0 0 0 0 0 0 0 0 0 0 0 0 0 0 0 0 0 0 1 0 0 0 0 0 0 0 0
266 223 165 252 228 21 0 10 20 0 47 33 21 12 13 6 1 0 0 0 0 0 0 0 0 1 0 1 1 2 0 0 0 0 1 0 1 0 0 0 0 0 0
311 221 240 299 45 1 0 0 0 0 0 8 11 3 0 13 0 0 1 0 0 0 0 0 0 1 2 0 4 3 1 0 0 0 0 0 0 0 0 0 0 0 0
329 186 197 280 53 0 0 0 0 0 0 0 0 0 0 0 0 0 0 0 0 0 0 1 0 0 0 0 2 3 0 0 0 0 0 0 0 0 0 0 0 0 0
306 107 209 352 228 76 3 0 0 0 0 0 0 0 0 0 0 0 0 0 0 0 0 0 1 1 1 0 0 2 1 0 0 0 0 0 0 0 0 0 0 0 0
227 156 251 366 219 108 47 0 0 2 0 0 0 0 0 0 0 0 0 1 0 0 0 1 1 1 0 0 0 0 1 0 0 0 0 0 0 0 0 0 0 0 0
54 91 167 354 164 85 20 0 0 1 0 0 0 0 0 1 0 0 0 0 0 0 0 0 0 0 0 0 0 0 0 0 0 0 0 0 0 0 0 0 0 0 0
0 27 29 110 113 98 26 0 0 0 0 0 0 0 0 0 0 0 0 9 1 0 8 0 0 0 0 0 0 0 0 0 0 0 1 2 0 0 0 0 0 0 0
14 14 34 58 107 192 149 144 17 0 0 0 0 0 0 0 0 0 1 2 7 1 4 5 0 0 0 0 0 0 1 0 2 7 23 13 5 2 0 0 0 0 23
19 19 49 72 75 176 347 309 158 75 0 0 0 0 0 0 0 3 12 12 13 8 0 0 6 0 0 0 0 0 4 6 7 12 27 35 21 25 32 17 12 17 22
38 11 44 96 153 235 267 413 327 224 7 0 0 0 0 0 8 2 0 0 0 0 0 0 0 0 0 0 0 0 0 0 0 0 9 61 55 37 49 62 68 121 145
19 27 69 41 163 208 221 496 389 108 3 0 0 0 0 0 0 0 0 0 0 0 0 0 0 0 0 0 0 0 0 0 0 0 1 3 7 3 12 20 10 30 20
0 6 0 11 18 2 30 45 25 0 0 0 0 0 0 0 0 0 0 0 0 0 0 0 0 0 0 0 0 0 0 0 0 0 0 0 0 0 0 0 0 0 0

GFSGL_con_mlcape_069.txt.gz
CAPE
0 0 30 43 35 4 5 72 275 646 914 1166 1189 1098 829 812 774 669 496 306 229 26 4 0 0 0 0 0 0 0 0 0 0 0 0 0 0 2 1 0 0 0 0
0 0 73 83 67 30 73 233 494 661 1027 1266 1175 840 794 803 673 507 233 19 0 15 0 0 0 0 0 0 0 0 0 0 0 0 0 0 0 6 2 1 0 0 0
0 3 30 72 75 167 442 596 731 745 931 1201 984 836 824 740 490 123 0 0 3 9 0 0 0 0 0 0 0 0 0 3 0 0 0 0 2 7 0 1 2 0 0
59 133 137 184 472 712 796 851 796 877 1144 1041 820 837 806 573 276 29 0 7 24 4 0 0 0 0 0 1 0 2 0 8 0 0 0 0 4 1 0 1 0 0 0
529 375 419 742 793 1009 1192 1268 1212 1165 1077 830 773 743 493 210 50 2 4 5 6 1 0 0 0 0 0 0 0 8 26 10 7 0 0 0 0 4 0 0 0 0 0
1118 886 882 1188 1409 1339 1169 1245 1173 1023 771 689 714 326 8 0 5 5 5 0 10 18 8 0 0 0 0 0 2 23 23 12 8 5 0 0 0 0 1 0 0 0 0
1280 1287 1412 1384 1286 1177 1187 979 918 857 665 509 155 0 0 0 1 9 22 24 15 9 0 0 0 0 0 0 2 6 2 0 1 0 0 0 0 0 0 1 1 0 0
1520 1420 1343 1201 1106 1029 868 633 474 342 265 89 0 0 0 0 6 13 18 10 0 0 0 0 0 1 13 5 2 15 9 1 0 0 0 0 0 0 1 0 0 0 0
1066 1080 929 807 678 435 345 155 43 16 1 0 0 0 0 0 0 1 2 0 0 0 0 0 1 11 5 4 7 1 1 6 0 0 0 0 0 0 0 0 0 0 0
773 787 570 600 377 314 139 46 1 0 0 0 0 0 0 0 0 0 0 0 0 0 0 0 4 9 0 0 0 0 5 0 0 0 0 0 0 0 0 1 0 0 0
504 446 278 250 226 104 18 2 0 0 0 0 0 0 0 0 0 0 0 0 0 0 0 0 1 0 0 0 0 0 0 1 0 0 0 0 0 0 0 0 1 0 0
0 67 147 97 56 9 0 0 0 0 0 0 0 0 0 0 0 0 0 0 0 0 0 0 0 0 0 0 0 0 0 1 1 0 0 0 0 1 1 0 0 0 0
6 142 73 35 35 0 0 0 0 0 0 0 0 0 0 0 0 0 0 0 0 0 0 0 0 0 0 0 0 0 0 0 2 2 1 0 1 1 0 0 0 0 0
184 152 51 84 2 2 0 0 0 0 0 0 0 0 0 0 0 0 0 0 0 0 0 0 0 0 0 0 0 1 0 0 0 0 0 0 1 0 0 0 0 0 0
197 161 88 17 0 0 0 0 0 0 0 0 0 0 0 0 0 0 0 0 0 0 0 0 0 0 0 1 2 1 0 0 0 0 0 0 1 1 1 0 0 0 0
179 143 59 15 0 0 0 0 0 0 0 0 1 3 2 0 0 0 0 0 0 0 0 1 0 1 0 2 1 0 0 0 0 0 0 0 1 0 0 1 0 0 0
103 65 26 5 2 0 0 0 0 0 0 0 0 6 10 0 0 0 0 0 0 1 1 1 0 1 1 2 0 0 0 0 0 0 0 0 0 0 0 0 0 0 0
86 49 21 10 6 0 0 0 0 0 0 0 0 0 0 0 0 0 0 0 0 0 0 0 0 2 2 3 0 0 0 0 0 0 0 0 0 0 0 0 0 0 0
30 42 32 11 0 0 0 0 0 0 0 0 0 0 0 0 0 0 0 1 0 0 0 1 3 2 2 6 4 0 0 0 0 0 0 0 0 0 0 0 0 0 0
44 24 19 0 0 0 0 0 0 0 0 0 0 0 0 0 4 0 1 0 3 0 0 0 0 0 0 0 0 0 0 0 0 0 0 0 0 0 0 0 0 0 0
64 17 13 0 3 0 0 0 0 0 0 0 0 0 0 0 1 2 2 10 2 0 0 0 0 0 1 2 0 0 1 2 1 0 0 0 0 0 0 0 0 0 0
78 32 28 6 3 0 0 0 0 0 0 0 0 0 0 0 0 0 1 2 0 0 0 0 0 0 0 0 0 0 0 0 0 0 0 0 0 0 0 0 0 0 0
75 50 21 7 0 0 0 0 0 0 0 0 0 1 2 0 0 0 0 0 0 0 0 0 0 0 0 0 0 0 0 0 0 1 6 2 1 1 0 0 0 0 0
64 69 60 22 0 0 0 0 0 0 0 0 0 0 1 0 0 0 1 4 3 1 0 0 0 0 0 0 0 0 0 0 0 0 0 0 17 13 35 30 20 19 19
33 81 78 23 27 1 0 0 0 0 0 0 0 0 0 0 0 0 3 4 5 3 1 0 0 0 0 0 0 0 0 0 0 0 0 0 0 0 0 1 0 0 0
9 37 35 39 82 51 1 0 0 0 0 0 0 0 0 0 1 2 2 1 1 0 0 0 0 0 0 0 0 0 0 0 0 0 0 0 0 0 0 0 0 0 0

GFSGL_con_mlcape_072.txt.gz
CAPE
0 0 0 0 0 2 70 217 215 74 125 377 750 1020 1048 967 763 736 749 509 489 315 124 61 0 0 0 0 0 0 0 0 0 0 1 1 4 4 1 0 0 0 0
0 0 0 0 0 13 85 179 79 58 364 457 824 1040 1015 874 652 728 560 487 423 189 21 0 0 0 0 0 0 0 0 0 0 0 1 1 2 0 0 0 0 0 0
0 0 0 0 0 54 161 132 89 214 370 640 811 1063 959 642 604 628 538 323 81 0 0 0 0 0 0 0 0 0 0 0 0 0 0 2 1 1 0 1 0 0 0
0 0 0 0 30 145 136 117 267 374 485 674 959 963 757 583 628 479 127 0 0 4 4 0 0 0 0 0 0 0 0 0 0 0 0 2 0 2 0 1 0 1 0
0 0 0 51 269 312 343 411 424 530 725 829 894 827 560 612 484 98 0 0 7 4 0 0 0 0 0 0 0 0 1 4 3 3 4 0 3 2 0 0 0 0 0
194 23 141 383 472 523 647 660 771 837 761 727 896 680 619 614 197 2 0 0 1 0 0 0 0 0 0 0 0 1 7 17 20 14 0 1 3 2 1 0 0 2 1
1072 778 594 756 836 1002 877 794 789 806 797 804 605 664 623 228 0 0 0 0 1 5 5 0 0 0 0 0 0 2 20 6 0 0 3 2 1 0 0 0 0 0 0
1332 1162 1033 1012 826 940 1173 1160 1122 948 812 667 680 424 63 0 0 0 0 4 5 4 0 0 0 0 0 0 3 2 9 4 0 0 0 0 0 0 1 0 0 0 0
1299 1267 1298 1250 1262 1260 1154 1028 751 692 593 568 185 4 0 0 0 0 3 3 0 0 0 0 0 0 7 7 8 5 0 4 0 0 0 0 0 0 0 0 0 0 0
1083 1179 1131 1047 1113 985 832 656 493 475 308 9 0 0 0 0 0 1 3 2 0 0 0 0 0 3 7 8 9 0 4 7 0 0 0 0 0 0 0 0 0 0 0
684 815 662 520 530 392 334 462 312 69 1 0 0 0 0 0 0 0 2 4 0 0 0 0 0 0 0 0 0 0 0 0 1 0 0 0 0 0 1 0 1 1 0
29 243 487 263 166 87 124 32 6 0 0 0 0 0 0 0 0 0 0 0 0 0 0 0 0 0 0 0 0 0 0 2 2 0 0 0 0 1 1 0 0 0 0
5 180 246 120 4 1 0 0 0 0 0 0 0 0 0 0 0 0 0 0 0 0 0 0 0 0 0 0 0 0 1 0 0 0 0 0 0 1 0 0 0 0 0
0 0 70 25 21 2 6 0 0 0 0 0 0 0 0 0 0 0 0 0 0 0 0 0 0 0 0 0 0 2 1 0 1 0 0 0 1 1 0 0 1 0 0
20 5 8 31 18 0 0 0 0 0 0 0 0 0 0 0 0 0 0 0 0 0 0 0 0 0 0 1 2 1 0 1 1 1 0 0 1 1 0 0 0 0 1
109 30 56 56 3 0 0 0 0 0 0 0 0 0 0 0 0 0 0 0 0 0 0 0 0 0 0 1 1 1 0 0 0 1 1 1 0 0 0 1 0 0 1
126 74 43 11 0 0 0 0 0 0 0 0 0 0 1 0 0 0 0 0 0 1 0 0 1 0 0 1 0 0 0 0 0 0 0 1 0 0 0 1 0 0 0
88 9 21 12 0 0 0 0 0 0 0 0 0 0 0 0 0 0 0 0 0 1 1 1 0 0 1 0 0 0 0 0 0 0 0 0 0 0 1 0 1 0 0
57 14 10 6 0 0 0 0 0 0 0 0 0 0 0 0 0 0 0 0 0 0 0 1 1 1 2 3 1 0 0 0 0 0 0 0 0 0 0 0 0 0 0
4 0 1 0 0 0 0 0 0 0 0 0 1 0 0 0 0 0 1 1 0 0 1 1 0 0 4 4 2 1 0 0 0 0 0 0 0 0 0 0 0 0 0
0 0 0 0 0 0 0 0 0 0 0 0 0 0 1 0 5 2 0 0 0 0 0 0 1 6 2 1 1 1 1 0 0 0 0 0 0 0 0 0 0 0 0
0 0 2 15 5 0 0 0 1 0 0 0 0 0 0 4 3 4 4 7 6 3 2 0 0 0 0 0 0 0 3 4 1 0 0 0 0 0 0 0 0 0 0
12 16 16 10 1 0 0 1 0 0 0 0 0 0 0 0 3 2 0 0 0 0 0 0 0 0 0 0 0 0 0 1 0 0 0 1 1 3 0 0 0 0 0
37 34 6 0 0 0 0 0 1 0 0 0 2 1 1 0 0 0 1 2 1 1 0 0 0 0 0 0 0 0 0 0 0 0 0 0 3 5 7 9 1 0 0
36 34 4 0 0 0 0 0 0 0 0 1 2 0 0 0 1 3 3 4 4 0 0 0 0 0 0 0 0 0 0 0 0 0 0 1 0 0 2 3 1 0 0
27 25 2 0 0 0 0 0 0 0 2 2 0 0 0 1 3 5 5 3 1 0 0 0 0 0 0 0 0 0 0 0 0 0 0 0 0 0 0 0 0 0 0

GFSGL_con_mlcape_075.txt.gz
CAPE
0 0 0 0 0 0 0 0 90 419 567 694 576 584 884 1483 1670 1526 1391 1174 905 625 643 585 484 373 226 132 107 92 62 0 53 25 0 3 3 2 3 1 0 47 17
0 0 0 0 0 0 0 0 244 387 620 806 787 796 1215 1701 1664 1458 1359 886 657 550 521 518 402 125 165 152 121 148 157 136 146 271 1 2 1 2 3 2 1 3 97
0 1 5 0 0 0 0 4 291 550 710 805 925 865 1462 1641 1529 1412 1172 904 536 492 488 323 200 118 159 118 128 197 226 177 78 73 36 1 0 2 2 3 3 1 2
0 2 53 26 0 0 0 145 493 748 835 872 1048 1167 1643 1558 1398 1188 908 538 504 400 213 218 136 109 157 132 209 302 311 182 109 106 47 3 2 1 3 1 0 1 0
0 0 143 74 6 27 152 378 748 795 846 1068 1048 1604 1649 1464 1164 828 684 459 214 112 187 154 132 82 51 127 182 254 145 136 152 161 41 3 4 2 8 1 0 0 2
0 0 56 50 73 260 404 749 915 932 1055 1070 1455 1601 1546 1265 498 512 340 70 140 142 128 57 20 0 0 0 0 0 113 149 184 83 83 66 15 10 0 0 0 2 1
0 0 66 76 295 692 850 1077 933 890 1083 1435 1562 1483 1540 1029 291 240 5 123 148 132 105 38 13 0 0 0 0 0 0 5 38 201 27 25 25 5 0 1 0 18 7
0 3 184 257 707 1086 1131 979 947 1023 1439 1490 1354 1504 1344 708 146 0 0 157 133 121 86 53 22 0 0 0 0 7 37 14 4 3 7 10 57 54 4 1 2 1 1
142 600 609 888 1112 941 1086 1065 1165 1322 1292 1227 1299 1019 828 186 0 0 0 56 68 55 30 6 0 0 0 0 17 52 24 1 0 0 0 1 1 10 56 6 6 6 3
908 986 1136 1201 1253 1277 1250 1135 1182 1166 1178 884 943 776 316 0 0 0 0 22 50 20 0 0 0 0 0 0 39 33 6 0 0 0 0 0 0 0 0 5 1 12 8
137 908 1500 1701 1568 1233 1052 1061 1068 840 802 657 450 111 0 0 0 0 3 56 58 18 0 0 0 0 0 0 2 2 4 2 0 1 2 1 2 0 2 4 15 29 8
84 895 1111 1220 1135 981 978 857 636 646 370 198 9 0 0 0 0 0 1 31 2 32 0 2 0 0 0 0 0 0 0 0 2 2 3 2 0 1 2 2 10 18 4
307 606 667 686 586 631 781 682 537 275 82 0 0 0 0 0 0 0 0 0 0 0 1 0 0 0 0 0 0 0 1 3 4 3 3 2 2 2 3 2 0 0 0
105 374 376 324 276 204 190 255 202 101 30 0 0 0 0 0 0 0 0 0 0 0 0 0 0 0 1 0 1 2 3 3 2 3 2 2 3 2 2 1 1 2 0
6 169 118 90 81 21 0 43 111 61 27 13 0 0 0 0 0 0 0 0 0 0 0 1 0 0 0 0 2 4 2 2 4 3 2 1 1 1 0 1 1 1 0
97 56 49 25 0 0 0 0 0 0 0 0 0 0 0 0 0 0 0 0 0 0 2 1 0 0 0 0 0 1 1 0 5 2 2 1 0 1 1 1 1 0 25
60 61 45 51 29 4 11 0 0 0 0 0 0 0 0 0 0 0 0 0 0 1 1 2 0 0 0 0 1 1 1 1 5 5 4 1 2 1 1 1 1 1 1
18 2 0 12 43 16 26 15 0 0 0 0 0 0 0 0 0 0 0 0 0 0 3 0 4 0 1 2 1 0 0 0 0 1 5 4 0 0 2 4 3 5 4
49 54 42 41 33 45 24 1 3 3 1 0 0 0 0 0 0 0 0 0 0 2 3 2 6 4 2 1 1 0 0 0 0 1 2 8 4 2 1 1 1 0 0
158 23 34 4 2 46 38 55 28 3 2 2 0 0 0 0 0 0 1 1 11 7 5 6 14 1 1 3 2 0 1 0 5 6 0 0 1 1 1 2 0 2 2
19 8 0 10 26 75 69 29 1 0 2 1 0 0 0 0 0 1 1 0 0 4 10 4 5 1 2 22 5 3 5 0 1 0 2 15 0 0 0 0 0 22 35
26 23 58 87 37 27 2 0 0 1 0 0 0 0 0 0 2 1 1 0 3 12 11 8 8 4 7 1 0 0 3 2 8 2 2 0 17 1 3 8 8 8 1
104 112 50 31 14 0 0 1 1 0 0 1 1 3 2 5 1 0 0 0 0 0 0 0 0 0 0 0 0 0 5 50 10 20 0 0 0 4 0 1 0 0 34
179 102 45 1 0 2 2 1 1 2 1 2 3 3 1 1 1 1 2 3 2 0 0 0 0 1 1 0 0 0 0 0 0 1 0 6 28 16 26 0 0 0 0
224 105 33 0 0 3 1 1 3 3 3 3 3 1 4 4 6 9 9 6 3 0 0 0 0 0 0 0 0 0 0 0 0 0 2 2 1 0 1 0 0 0 0
181 112 32 0 2 4 3 2 2 2 2 1 1 5 5 9 11 7 7 1 0 0 0 0 0 0 0 0 1 0 0 0 0 0 0 0 0 0 0 0 0 0 0

GFSGL_con_mlcape_078.txt.gz
CAPE
0 0 0 0 0 0 0 0 0 208 511 571 1453 2020 2060 1830 2039 2338 2401 2371 2249 2005 1469 1282 1396 1047 810 326 368 216 184 94 66 493 307 100 48 332 137 253 252 389 132
0 0 0 0 0 0 0 0 11 100 391 307 1187 1687 1559 1700 2274 2558 2475 2101 2024 1886 1401 1413 1093 972 873 433 309 274 171 191 126 502 163 58 74 102 6 3 153 368 248
0 0 0 0 0 0 0 0 23 265 522 493 1069 1440 1537 1719 2351 2459 2250 1999 1916 1538 1365 1190 1061 893 551 303 335 280 275 284 318 285 267 66 7 1 2 3 6 32 65
5 0 1 0 0 1 22 10 66 107 343 685 1171 1461 1444 1723 2156 2196 2106 1950 1624 1354 1215 1173 908 562 406 371 313 242 280 311 244 274 190 112 16 1 5 1 2 3 2
6 2 0 0 0 0 79 91 114 206 392 886 1339 1537 1495 1862 1948 2030 1991 1705 1447 1174 1199 752 503 373 213 278 198 252 299 343 195 121 224 91 68 2 15 2 2 2 2
1 5 1 0 0 0 219 192 269 307 827 1283 1573 1518 1804 1774 1528 1793 1692 1499 1283 908 683 417 388 109 12 13 5 0 109 407 320 234 245 248 207 109 83 13 1 0 0
11 9 4 2 0 0 381 288 450 977 1725 1993 1866 1789 2068 1750 1337 1167 1210 1312 709 555 454 407 293 41 25 32 0 0 0 0 15 395 392 412 510 59 47 4 8 0 0
0 0 6 4 4 22 537 455 1039 1963 2206 2247 2204 2141 2190 1389 860 727 593 670 497 464 495 378 264 214 153 111 44 6 43 83 65 68 125 297 177 64 89 57 16 49 21
4 7 4 1 1 399 488 1008 1975 2404 2396 2367 2250 2253 2195 684 374 345 137 487 482 469 383 303 233 213 7 0 3 46 98 52 0 0 4 17 18 59 88 3 0 8 10
11 5 0 0 23 680 1009 1982 2339 2355 2360 2053 2255 2268 1820 662 95 0 154 105 279 235 237 250 0 72 0 0 6 68 53 27 0 0 0 0 1 14 8 55 4 21 3
0 0 0 143 556 1172 1856 1715 1820 1972 2152 2038 2015 1831 1416 579 0 0 30 49 101 128 96 95 0 0 0 0 0 59 43 27 1 0 1 0 33 32 62 85 79 66 42
77 417 622 910 1253 1406 1330 1505 1705 1831 1708 1645 1298 1116 576 147 0 0 3 6 127 148 100 85 19 0 0 0 0 0 0 2 4 2 2 2 4 2 10 49 75 203 38
224 722 1007 1100 1121 1174 1362 1411 1478 1617 1122 966 1012 283 161 11 0 0 0 7 3 198 88 5 0 0 0 0 0 0 0 5 18 32 16 10 6 3 3 27 24 6 9
65 505 739 947 1091 1195 1409 1581 1602 1168 1111 610 171 128 39 0 0 0 0 0 0 0 0 0 0 0 0 0 0 0 1 13 2 2 3 10 11 3 2 1 3 20 28
128 296 439 625 750 857 822 1331 1420 846 569 276 210 104 46 24 9 0 0 0 0 0 0 0 2 3 4 2 2 7 22 8 5 0 1 5 4 3 2 1 2 14 14
133 143 137 127 248 374 317 33 0 6 3 9 14 38 56 14 0 0 0 0 0 0 2 6 1 2 1 3 10 27 19 7 1 4 6 6 4 2 0 1 3 0 12
36 76 86 200 293 272 255 42 0 0 0 0 0 0 0 0 0 0 0 0 0 0 16 5 4 3 4 3 25 21 21 22 11 6 10 7 4 2 1 1 2 2 0
15 57 199 355 249 253 95 22 0 18 0 0 0 0 0 0 0 0 0 0 0 2 6 6 4 4 4 1 21 26 14 8 10 12 5 2 3 1 1 1 1 3 3
1 49 167 259 157 178 148 81 31 22 0 0 0 0 0 0 0 0 0 2 3 4 6 10 16 9 4 4 29 0 5 1 12 12 15 14 3 1 2 6 0 0 4
136 61 179 253 233 206 188 155 46 2 1 2 1 0 0 1 1 1 3 18 15 8 4 5 11 26 6 21 0 12 3 4 9 11 10 17 15 5 1 1 0 0 0
21 39 115 230 270 268 248 223 109 25 10 34 0 0 0 25 3 3 16 16 37 22 20 24 24 24 22 16 21 10 12 30 34 33 26 3 0 6 7 2 0 0 2
105 166 174 219 235 227 162 73 72 49 14 1 1 0 0 4 3 2 0 0 0 3 42 17 19 3 2 24 43 26 22 8 25 11 0 22 14 0 0 0 0 1 16
152 152 221 198 133 27 35 32 33 44 4 2 2 4 9 3 0 0 0 2 2 1 0 1 0 0 0 3 0 6 8 29 32 16 22 2 1 22 8 1 6 25 6
173 125 132 94 64 55 54 19 6 2 3 3 5 1 0 1 1 2 3 5 5 1 0 0 3 0 0 0 0 0 0 0 35 23 58 4 0 0 2 1 8 0 0
163 106 72 64 37 7 5 5 3 3 2 1 3 1 4 4 3 5 4 3 0 0 0 0 1 3 2 1 0 1 0 0 0 0 1 1 0 0 0 0 0 0 0
97 77 33 12 1 2 3 3 2 2 2 3 5 3 5 8 9 5 0 0 0 0 0 0 0 0 0 1 1 0 0 0 0 0 0 0 0 0 0 0 0 0 0

GFSGL_con_mlcape_081.txt.gz
CAPE
0 0 0 0 0 0 0 0 0 22 62 14 806 1597 2660 3154 3359 3192 2870 2491 2474 2581 2599 2495 2151 1725 1459 1065 683 125 175 232 162 416 518 626 278 418 449 310 550 509 121
0 0 0 0 0 0 0 0 0 5 101 253 683 348 2336 2859 3058 3005 2587 2147 2530 2853 2634 2060 1704 1649 1446 1040 453 280 316 349 188 213 589 337 212 322 431 303 255 505 380
0 0 0 0 0 0 0 0 33 34 69 257 321 554 1530 2526 2833 2699 2307 2527 2696 2535 2313 1863 1630 1626 1352 1039 643 294 319 367 398 317 733 264 53 284 16 1 106 244 36
0 0 1 7 3 3 3 2 1 153 67 162 463 279 985 2036 2210 2381 2387 2551 2477 2294 2292 1869 1605 1499 1175 1030 758 561 424 270 134 186 366 398 113 75 4 2 6 4 16
4 1 2 2 12 10 7 5 2 29 297 218 630 800 1176 1855 1982 2463 2597 2537 2399 2295 1902 1630 1664 1358 982 717 547 470 225 319 318 210 205 271 230 116 104 38 36 1 1
2 0 9 14 4 6 25 13 2 26 606 413 521 788 1525 1992 1696 2293 2662 2544 2339 1946 1686 1525 1198 597 246 108 85 43 220 495 442 92 143 344 255 89 198 209 49 5 3
21 5 4 6 11 4 18 9 4 14 846 738 656 1079 1845 2413 1508 1922 2274 2526 2157 1808 1665 1206 857 540 342 232 10 0 0 0 13 439 560 522 543 373 296 390 208 114 35
20 8 8 7 5 2 0 2 7 9 735 1021 1095 1941 2482 2729 1434 1698 1929 2244 1917 1688 1314 948 556 422 238 159 81 15 5 13 20 31 66 337 401 142 162 181 109 89 1
12 0 0 7 1 1 0 0 9 119 753 1212 1955 2521 2871 1826 1286 1580 1607 1971 1537 1194 875 606 519 467 263 62 127 40 34 59 0 0 0 15 19 22 38 38 60 70 26
26 35 21 6 6 6 3 0 15 334 771 1762 2261 2631 2687 1698 1013 1399 1582 1326 1149 799 636 409 93 318 12 0 35 12 45 66 18 3 0 4 0 1 5 46 18 20 42
49 47 25 24 15 6 0 0 48 791 1288 1939 2369 2456 2036 1293 1002 959 894 1044 809 521 451 592 168 0 0 0 0 79 37 30 0 4 6 9 9 13 22 73 127 42 0
70 25 1 0 12 12 13 97 760 1165 1722 1988 2075 2182 2000 1028 671 106 215 188 298 340 254 273 19 0 0 0 0 0 0 2 6 3 1 2 10 38 79 121 166 126 42
10 4 1 0 1 0 5 451 1047 1577 1771 1811 1899 1756 1241 925 21 0 0 34 95 393 30 39 0 0 0 0 0 0 0 5 15 14 1 0 4 13 40 105 117 150 85
3 137 0 0 0 0 441 1047 1347 1545 1865 1882 1728 1310 1000 413 93 170 45 36 14 0 0 0 0 0 0 0 0 0 4 14 18 14 13 11 17 8 5 50 39 39 34
1 266 459 647 853 939 828 1094 1501 1754 1850 1820 1486 1071 675 345 193 132 256 308 181 73 0 0 0 2 8 4 5 3 0 2 1 1 6 8 8 2 2 7 2 9 30
36 179 373 492 404 345 269 132 9 365 860 882 914 817 416 62 0 0 12 8 0 0 0 1 1 2 5 2 2 13 26 3 0 0 2 3 9 8 2 2 1 24 15
6 199 373 794 940 775 777 704 475 0 0 1 4 3 0 0 0 0 0 0 0 0 8 5 1 0 5 5 18 25 27 6 7 1 6 4 8 15 2 1 0 0 7
60 174 484 806 718 741 711 490 348 269 163 0 0 0 0 0 0 0 0 0 0 0 7 1 2 1 5 9 9 16 19 16 9 2 4 5 8 4 3 1 0 0 8
1 14 289 618 672 513 452 373 248 172 4 0 0 0 0 0 0 0 0 0 3 10 7 3 12 7 8 10 16 22 16 17 20 4 12 20 11 3 3 2 0 0 1
0 6 206 281 349 273 182 146 67 15 25 9 0 0 0 0 0 0 1 7 7 16 24 18 20 6 4 16 21 2 4 3 14 4 4 9 13 3 0 1 4 1 0
0 131 149 196 235 181 222 155 108 139 98 14 0 2 0 0 0 4 40 21 23 17 14 20 10 12 26 22 6 9 17 28 25 10 20 3 11 18 0 0 0 0 1
181 207 314 224 217 252 232 238 269 163 9 3 0 0 0 7 18 25 25 21 21 16 53 42 38 35 28 32 7 10 21 29 27 23 25 22 3 0 11 10 9 0 0
137 211 223 160 190 146 169 166 136 9 1 7 6 16 13 13 2 1 0 1 1 0 0 0 0 0 0 5 25 31 40 37 41 48 11 35 12 4 3 0 0 16 7
181 283 267 191 192 183 154 196 6 0 5 6 0 0 3 3 1 3 1 1 1 1 2 3 2 0 0 0 0 0 0 0 1 44 20 19 13 0 34 40 0 0 0
215 194 231 183 95 57 33 1 3 3 1 0 3 4 2 3 8 9 5 2 1 2 2 2 1 2 2 1 0 1 0 0 0 0 6 1 0 0 0 0 0 0 0
152 105 63 36 3 1 1 1 1 2 3 6 5 3 5 3 2 5 0 0 0 0 0 0 0 0 0 0 0 0 0 0 0 0 0 1 0 0 0 0 0 0 0

GFSGL_con_mlcape_084.txt.gz
CAPE
15 3 0 0 0 0 0 0 1 9 28 7 0 0 63 1015 2509 2674 2660 2464 2520 2598 2904 2486 2250 2309 2140 1441 975 798 300 111 181 303 563 609 361 187 395 255 399 151 106
7 0 0 6 1 6 0 0 0 0 43 68 29 2 0 193 1623 2770 2717 2852 2782 3032 2656 2199 2642 2494 2032 1386 987 807 280 112 384 285 429 364 182 119 245 266 68 357 226
9 5 0 0 0 1 9 0 0 0 2 128 92 77 67 11 63 1973 2712 2885 2900 2799 2565 2617 2731 2256 1862 1476 944 778 213 285 344 323 202 292 144 162 113 9 1 24 31
22 5 4 0 0 0 5 25 9 0 0 0 64 173 131 217 276 664 2745 2918 2814 2475 2455 2949 2338 1865 1949 1502 874 681 463 350 284 81 131 218 124 33 2 0 2 2 33
86 54 7 0 0 0 0 0 0 2 3 0 0 275 299 207 279 1258 2501 2644 2663 2222 2758 2539 2013 1843 1721 1252 849 744 457 346 328 171 62 122 261 94 4 3 17 0 0
23 21 2 0 0 0 0 0 0 0 7 5 0 37 257 571 110 567 2489 2855 2350 2139 2618 2325 1720 1391 844 617 455 448 573 240 314 105 66 54 166 170 56 134 26 7 0
119 30 1 4 1 0 0 0 0 0 0 17 0 0 507 555 366 225 2026 2281 2121 2109 2377 1789 1214 909 454 172 1 6 42 46 93 182 71 29 39 155 86 106 123 42 53
69 48 13 21 10 0 0 2 0 0 0 0 14 0 317 724 740 585 1634 2017 1942 1939 2009 1656 1194 760 513 279 56 38 9 0 0 0 2 104 286 153 203 81 102 71 19
33 19 28 37 13 11 7 3 0 0 0 0 0 3 237 744 420 881 1488 1726 1822 1803 1771 1474 1104 657 224 74 131 4 0 0 0 0 0 0 3 25 100 49 36 36 16
41 30 32 34 16 4 11 0 0 0 0 0 0 1 186 924 560 953 1666 1705 1686 1576 1393 1006 657 478 20 33 160 97 69 15 0 0 0 0 0 0 3 27 20 23 31
36 36 36 46 40 24 4 3 6 0 1 1 0 16 431 1281 704 787 1581 1540 1633 1316 998 584 227 208 67 0 7 79 21 21 0 0 0 1 3 2 1 7 39 17 16
1 0 1 9 31 28 34 13 0 3 9 1 1 265 785 1225 770 437 1212 1442 1100 897 787 595 12 0 0 0 0 0 0 0 0 0 0 1 2 2 4 9 28 46 18
0 0 2 6 4 4 15 2 3 5 8 0 109 571 940 918 86 156 500 749 749 706 748 233 0 0 0 0 0 0 0 0 0 0 0 0 0 6 21 43 32 72 50
1 1 3 4 1 1 7 7 2 19 0 24 588 923 1240 347 165 131 71 149 68 0 0 0 0 0 0 0 0 0 0 0 1 5 9 5 5 9 0 18 33 23 38
11 3 6 2 1 1 2 0 3 9 181 618 954 1265 828 511 558 273 183 171 124 6 0 0 0 0 0 0 0 0 1 3 1 2 7 7 10 1 0 3 11 12 7
3 184 0 0 0 0 14 0 0 88 459 891 1055 1010 707 479 183 154 149 47 0 0 0 0 0 0 0 2 0 0 0 0 1 0 1 2 6 1 0 0 1 10 15
6 184 59 0 0 0 0 1 0 1 5 326 260 186 183 44 40 42 0 0 0 0 0 0 0 0 1 0 0 6 9 0 0 0 0 0 1 13 0 0 1 0 3
3 6 516 432 385 417 423 356 285 242 50 0 0 0 0 0 0 0 0 0 0 2 0 0 0 0 0 0 7 12 20 2 2 0 0 1 7 5 0 0 2 0 1
3 20 400 584 735 623 442 206 17 62 3 0 0 0 0 0 0 0 0 0 1 7 0 0 0 0 2 4 4 12 6 7 0 0 1 1 1 0 1 1 1 0 0
0 14 146 500 514 390 224 25 3 2 0 1 0 0 0 0 0 0 3 2 1 4 1 4 1 0 4 5 11 11 0 3 3 1 0 14 6 0 2 1 1 0 0
0 49 153 432 331 180 66 24 6 0 1 2 1 1 0 0 0 5 3 4 4 5 3 4 4 5 9 10 15 0 2 4 5 0 0 10 5 4 6 0 1 0 0
0 112 235 287 201 132 91 80 3 0 1 2 1 0 0 2 14 9 10 7 4 7 15 22 23 16 19 32 17 13 18 17 3 9 18 1 0 3 1 1 1 6 1
4 101 145 151 169 136 256 126 18 4 0 1 0 1 7 0 0 0 1 0 0 0 0 0 1 0 0 2 0 9 14 13 29 36 14 23 11 3 0 0 2 2 9
148 93 100 83 176 154 18 3 3 4 5 6 1 1 1 1 0 0 0 0 2 2 0 1 0 0 0 0 0 0 0 0 21 47 22 4 2 3 14 5 3 2 8
137 72 53 74 87 2 0 0 0 0 0 0 1 1 1 1 0 0 1 2 1 2 2 2 3 1 1 0 0 0 0 0 0 0 0 0 0 0 0 0 0 0 0
70 79 104 95 20 0 0 0 0 0 0 1 2 3 4 2 3 1 1 0 2 0 0 0 0 0 1 0 0 0 0 0 0 0 0 0 0 0 0 0 0 0 0

GFSGL_con_mlcape_087.txt.gz
CAPE
10 4 0 0 0 0 0 0 0 0 0 7 22 15 0 0 0 24 630 584 275 765 1371 1192 764 236 5 1124 1466 1021 716 363 63 103 254 200 147 170 55 56 67 20 10
17 15 9 1 0 0 0 0 0 0 0 0 4 33 22 7 0 0 4 1345 1286 1795 2016 1948 1865 1862 1604 1602 1572 1066 664 180 55 63 231 224 125 12 65 50 0 84 83
25 17 1 0 0 0 0 0 0 0 0 0 0 0 41 48 21 1 0 16 1790 2135 2010 2346 2115 1997 1884 1607 1460 932 614 279 75 48 132 110 41 3 0 0 0 0 0
0 8 1 0 0 0 0 0 0 0 0 0 0 0 0 0 48 63 14 0 48 1932 2396 2514 2029 2100 2029 1670 1423 837 510 187 84 39 74 49 1 0 0 0 0 0 1
0 6 5 1 0 0 0 0 0 0 0 0 0 0 0 0 0 144 81 116 49 393 1992 2351 2318 2043 1766 1873 1407 943 396 150 78 22 36 14 0 0 0 0 0 2 1
29 26 13 13 0 0 0 0 0 0 0 0 0 0 0 0 0 0 102 159 248 1911 2183 2176 1956 1715 1623 1511 1324 995 432 224 122 66 7 0 0 19 0 0 0 6 0
1 55 48 43 5 0 0 0 0 0 0 0 0 0 0 0 0 0 0 64 171 857 1829 1752 1749 1178 1258 1026 750 424 348 212 164 92 36 0 0 30 24 20 17 13 8
2 1 0 17 43 10 0 0 0 0 0 0 0 0 0 0 0 0 1 1 88 362 1550 1604 1332 569 732 637 423 227 140 89 39 26 0 0 13 29 28 27 20 10 8
0 0 0 0 1 0 0 0 0 0 0 0 0 0 0 0 0 0 0 0 153 675 1463 1390 731 534 271 349 256 135 12 0 0 0 0 0 0 0 19 17 3 14 5
0 1 5 5 4 10 10 0 0 0 0 0 0 0 0 0 0 0 0 0 169 773 1150 907 633 405 159 159 209 60 28 0 0 0 0 0 0 0 0 7 4 10 23
0 0 0 0 0 19 24 22 1 0 0 0 0 0 0 0 0 0 0 0 224 981 821 457 484 278 161 71 88 32 2 0 0 0 0 0 0 0 0 0 0 2 10
0 0 0 0 8 15 43 51 25 1 0 0 0 0 0 0 0 0 0 0 313 734 453 346 203 65 0 0 24 15 0 0 0 0 0 0 0 0 0 0 0 0 0
0 0 2 22 28 28 32 36 36 25 0 0 0 0 0 0 0 0 0 0 380 601 217 137 36 0 0 0 0 0 0 0 0 0 0 0 0 1 0 0 0 5 8
0 0 0 4 5 2 11 18 22 23 6 1 2 4 0 0 1 0 0 0 132 79 0 0 0 0 0 0 0 0 0 0 0 0 0 0 1 0 0 3 3 0 9
3 3 2 3 5 3 1 4 7 3 4 3 1 0 3 2 4 6 47 122 50 51 0 0 0 0 0 0 0 0 0 0 2 2 3 2 4 1 0 1 1 0 1
3 2 3 0 1 1 2 1 0 1 0 0 0 3 1 175 14 25 96 134 1 9 43 0 0 0 0 0 0 0 0 0 0 1 4 6 1 0 0 0 2 8 7
3 2 0 0 2 1 2 2 4 2 0 0 0 0 0 27 0 0 1 0 0 10 0 0 0 0 0 0 0 0 0 0 0 0 0 0 2 4 0 1 0 0 5
4 8 0 0 0 2 1 0 0 0 5 0 0 0 0 0 0 0 0 0 0 0 0 0 0 0 0 0 0 0 2 0 0 0 0 0 0 2 3 0 1 2 1
4 4 24 0 0 1 7 7 6 6 1 2 4 1 0 0 0 0 0 0 0 0 0 0 0 0 0 0 1 15 9 0 0 0 0 0 2 1 0 0 0 0 0
0 9 214 29 140 24 2 0 29 3 3 3 2 0 0 0 0 0 0 0 0 0 0 0 0 0 0 2 7 7 1 2 0 0 0 3 1 0 0 0 0 0 0
6 113 0 0 5 1 4 0 2 2 2 2 2 0 0 0 0 0 0 1 0 0 0 0 0 1 8 21 9 0 2 7 1 0 3 10 0 0 0 0 0 0 0
1 142 71 58 86 16 1 2 1 1 2 0 0 0 0 0 0 0 0 0 0 0 3 2 5 10 10 13 4 2 1 1 0 0 0 0 0 1 4 2 0 1 3
15 214 133 71 4 0 1 1 0 0 0 0 1 0 0 0 0 0 0 0 0 0 0 0 0 0 0 0 0 8 13 3 0 1 6 3 0 1 2 2 5 3 7
81 138 143 48 2 0 1 2 0 0 2 2 2 0 0 0 0 0 0 0 0 0 0 0 0 0 0 0 0 0 0 4 7 8 15 15 7 8 1 0 1 2 0
93 55 4 0 0 0 1 0 1 1 1 0 0 0 0 0 1 2 2 2 1 1 1 0 1 1 0 0 0 0 0 0 0 0 0 0 0 0 0 0 0 0 0
92 30 0 0 0 1 1 2 1 1 1 2 0 2 1 3 5 5 5 1 1 0 0 0 0 0 0 0 0 0 0 0 0 0 0 0 0 0 0 0 0 0 0

GFSGL_con_mlcape_093.txt.gz
CAPE
0 0 0 0 0 0 0 0 0 0 0 0 0 0 0 0 4 6 40 66 47 23 0 9 63 332 214 229 374 292 441 197 109 159 42 95 126 84 27 0 20 8 0
0 0 0 0 0 2 0 0 0 0 0 0 0 0 0 0 0 0 104 169 99 95 108 156 17 73 199 161 50 147 257 237 234 192 55 87 107 33 6 0 5 0 0
0 0 0 0 0 0 0 0 0 0 0 0 0 0 0 0 0 0 0 6 8 30 27 83 177 164 83 314 267 174 132 176 190 170 108 56 41 0 0 0 0 0 0
0 0 0 0 0 0 0 0 0 0 0 0 0 0 0 0 0 0 0 0 0 0 24 79 82 182 181 175 129 136 218 196 150 105 70 98 60 1 0 27 0 0 0
0 0 0 0 0 0 0 0 0 0 0 0 0 0 8 11 0 0 0 0 0 0 2 11 13 16 166 210 0 5 297 170 96 90 63 62 45 17 26 0 0 0 0
0 0 0 0 0 0 0 0 0 0 0 0 0 0 0 0 0 0 0 0 0 0 0 0 0 2 40 232 98 0 1 126 129 68 96 94 64 23 0 0 0 0 0
0 0 0 0 0 0 0 0 0 0 0 0 0 0 0 0 0 0 0 0 0 0 0 0 0 0 29 111 461 17 41 186 104 104 61 90 47 1 0 0 0 0 0
0 0 0 0 0 0 0 0 0 0 0 0 0 0 0 0 0 0 0 0 0 0 0 0 0 0 9 77 425 401 223 134 61 41 72 98 44 0 0 0 0 0 0
0 0 0 0 0 0 0 0 0 0 0 0 0 0 0 0 0 0 0 0 0 0 0 0 0 0 0 48 380 246 245 98 1 9 2 1 0 0 0 0 0 0 0
0 0 0 0 0 0 0 0 0 0 0 0 0 0 0 0 0 0 0 0 0 0 0 0 0 0 0 49 255 306 311 99 21 7 0 0 0 0 0 0 0 0 0
0 0 0 0 0 0 0 0 0 0 0 0 0 0 0 0 0 0 0 0 0 0 0 0 0 0 0 18 147 302 286 55 11 33 1 0 0 0 0 0 0 0 0
0 0 0 0 0 0 0 0 0 0 0 0 0 0 0 0 0 0 0 0 0 0 0 0 0 0 0 1 12 160 68 23 5 4 0 0 0 0 0 0 0 0 0
0 0 0 0 0 0 0 0 0 0 0 0 2 0 0 0 0 0 0 0 0 0 0 0 0 0 0 0 1 0 6 9 2 1 0 0 0 0 0 0 0 0 0
0 0 0 0 0 0 0 0 0 1 2 0 0 0 0 0 0 0 0 0 0 0 0 0 0 0 0 1 0 0 9 17 0 0 0 0 0 0 0 0 0 0 0
1 1 1 1 2 2 2 2 2 1 0 1 0 0 0 0 0 0 0 0 0 0 0 0 0 0 0 1 0 14 3 0 0 0 0 0 0 0 0 0 0 0 0
2 3 3 3 2 2 2 2 0 0 0 0 1 1 0 0 0 0 0 0 0 0 0 0 1 1 3 2 4 2 0 0 0 0 0 0 0 0 0 0 1 3 0
4 8 9 6 7 3 2 3 2 0 0 0 0 1 1 0 0 0 0 0 0 0 0 3 3 1 28 29 2 0 0 0 0 0 0 0 0 2 0 0 6 5 7
3 3 4 4 4 0 2 7 16 6 1 1 0 0 0 0 0 0 0 0 0 0 0 8 7 39 16 2 0 0 0 0 0 0 0 3 1 0 0 0 1 5 5
6 6 6 4 0 0 5 1 2 6 2 2 1 0 0 0 0 0 0 0 0 3 5 6 13 0 0 0 0 0 0 0 0 0 0 0 1 0 0 0 0 0 0
10 7 1 0 0 2 5 4 3 3 3 2 1 0 0 0 0 0 0 0 3 8 2 1 0 0 0 0 0 0 0 0 0 0 0 0 0 0 0 0 0 0 0
12 2 16 23 0 0 5 2 3 2 1 0 0 0 0 0 0 0 0 0 2 2 1 2 1 1 0 0 0 0 0 0 0 0 0 0 1 0 0 0 0 0 0
3 1 15 39 15 10 3 1 1 3 5 2 0 0 0 0 3 4 2 1 2 2 1 0 0 0 0 0 0 0 0 0 0 0 2 2 0 0 0 0 0 0 0
0 6 5 10 4 4 8 6 6 5 4 3 2 2 2 3 1 1 1 1 1 0 0 0 0 0 0 0 0 0 0 0 0 0 2 0 0 0 0 0 1 1 0
4 4 3 2 3 2 2 2 1 1 2 2 3 2 0 0 0 1 1 1 0 0 0 0 0 0 0 0 1 8 1 0 0 0 4 5 1 3 1 0 0 0 0
0 3 2 2 3 3 3 3 3 4 5 4 3 4 1 0 0 0 0 0 0 0 0 0 0 0 0 0 0 0 0 0 0 0 1 4 4 0 0 0 0 0 0
1 1 2 3 3 4 4 6 6 5 4 4 2 1 1 0 1 1 3 0 0 0 0 0 0 0 0 0 0 0 0 0 0 0 0 0 0 0 0 0 0 0 0

GFSGL_con_mlcape_096.txt.gz
CAPE
0 0 0 0 0 0 0 0 0 0 0 0 0 0 0 0 0 0 0 11 25 52 93 101 89 128 19 8 160 237 127 125 105 61 22 37 94 45 46 77 74 80 26
0 0 0 0 0 0 0 0 0 0 0 0 0 0 0 0 0 0 0 1 60 53 9 3 13 117 136 160 125 82 124 85 25 27 118 78 92 15 38 47 39 1 5
0 0 0 0 0 0 4 35 2 33 3 0 0 0 0 0 0 0 0 0 0 0 0 0 0 0 135 262 159 111 104 115 111 186 125 29 27 27 21 11 17 9 0
0 0 0 0 0 0 0 6 14 13 34 15 0 0 0 0 0 0 0 0 0 0 0 0 0 3 50 137 221 248 199 139 116 94 40 26 14 0 18 25 23 0 1
0 0 0 0 0 0 0 0 0 2 0 8 9 8 1 4 0 0 0 0 0 0 0 0 0 0 0 4 51 82 168 101 100 65 29 16 2 6 50 19 29 0 0
0 0 0 0 0 0 0 0 0 0 0 0 0 0 1 0 0 0 7 0 0 0 0 0 0 0 0 0 23 27 114 115 95 69 7 13 16 4 8 36 0 0 10
0 0 0 0 0 0 0 0 0 0 0 0 0 0 0 0 0 0 0 0 0 0 0 0 0 0 0 0 4 34 85 59 20 6 2 32 5 0 7 21 0 0 0
0 0 0 0 0 0 0 0 0 0 0 0 0 0 0 0 0 0 0 0 0 0 0 0 0 0 0 0 0 1 101 143 21 0 89 28 6 12 3 4 0 0 0
0 0 0 0 0 0 0 0 0 0 0 0 0 0 0 0 0 0 0 0 0 0 0 0 0 0 0 0 0 0 13 180 33 1 60 78 25 16 0 0 0 0 0
0 0 0 0 0 0 0 0 0 0 0 0 0 0 0 0 0 0 0 0 0 0 0 0 0 0 0 0 0 0 4 142 49 1 0 0 0 0 0 0 0 0 0
0 0 0 0 0 0 0 0 0 0 0 0 0 0 0 0 0 0 0 0 0 0 0 0 0 0 0 0 0 0 0 110 19 13 11 0 0 0 0 0 0 0 0
0 0 0 0 0 0 0 0 0 0 0 0 0 0 0 0 0 0 0 0 0 0 0 0 0 0 0 0 0 0 0 1 1 2 14 0 0 0 0 0 0 0 0
0 0 0 0 0 0 0 0 0 0 0 0 0 0 0 0 0 0 0 0 0 0 0 0 0 0 0 0 0 0 0 1 6 4 0 0 0 0 0 0 0 0 0
1 1 0 0 0 0 0 0 0 0 0 0 0 0 0 0 0 0 0 0 0 0 0 0 0 0 0 0 0 0 1 3 1 11 1 0 0 0 0 0 0 1 0
2 2 2 2 2 2 1 1 2 0 0 0 0 0 1 1 0 0 0 0 0 0 0 0 0 0 0 0 0 0 4 1 1 0 0 0 0 0 0 0 0 1 1
3 5 10 5 2 2 2 2 0 0 0 0 0 0 0 0 0 0 0 0 0 0 0 0 0 0 0 0 0 1 3 9 15 0 0 0 0 0 0 1 2 0 0
4 7 8 16 13 14 3 3 4 1 0 0 0 0 0 0 0 0 0 0 0 0 0 0 0 0 0 0 2 3 2 3 0 0 0 0 0 0 0 4 2 0 0
5 5 2 3 3 3 5 5 17 16 1 2 0 0 0 0 0 0 0 0 0 0 0 0 0 0 0 2 2 10 13 1 0 0 0 0 0 0 0 1 2 1 4
4 4 4 4 4 3 3 9 17 29 1 2 2 0 0 0 0 0 0 0 0 0 0 0 0 0 1 3 6 0 0 1 0 0 0 0 0 0 0 1 0 3 4
7 7 8 7 4 1 3 3 4 27 2 3 2 1 0 0 0 0 0 0 0 0 0 0 0 2 1 1 0 0 1 0 0 0 0 0 0 0 0 1 0 0 0
9 10 3 9 0 1 3 3 2 2 2 3 3 1 0 0 1 0 0 0 0 0 0 1 1 1 0 1 1 1 0 0 0 0 0 0 0 0 0 0 0 0 0
9 2 67 0 0 3 3 2 2 3 4 4 1 0 0 1 0 0 0 0 0 0 2 1 1 0 0 0 0 0 0 0 0 0 0 0 0 0 0 0 0 0 0
0 2 4 7 2 0 8 4 3 2 2 2 2 0 0 0 0 0 0 0 2 1 1 0 1 1 2 0 0 0 0 0 0 0 0 1 0 0 0 0 0 0 0
3 4 3 2 2 3 2 0 1 1 3 0 0 0 0 0 3 1 0 0 0 0 2 2 1 0 0 0 0 0 0 0 0 0 0 0 0 0 1 6 1 0 0
3 3 3 3 3 2 2 2 2 2 2 1 1 1 3 3 2 1 1 1 1 0 0 0 0 0 0 0 0 0 0 0 0 0 2 2 3 0 1 0 0 0 0
2 1 2 2 4 4 4 3 3 3 4 5 5 5 5 4 4 3 2 0 0 0 0 0 0 0 0 0 0 0 0 0 0 0 1 1 0 0 0 0 0 0 0

GFSGL_con_mlcape_102.txt.gz
CAPE
0 63 123 310 509 948 1225 1459 933 589 339 54 83 25 230 369 515 738 838 580 732 1244 1256 1196 1114 1446 1360 986 820 646 315 204 104 10 0 8 11 290 474 606 532 792 643
0 8 111 192 183 188 281 409 529 611 514 366 312 210 127 173 324 551 579 332 458 633 829 932 794 754 977 940 647 524 314 228 102 5 0 0 123 362 627 567 304 659 147
0 0 46 160 380 372 427 532 403 631 830 646 491 312 264 266 332 425 283 222 207 347 414 483 539 468 488 363 366 236 234 288 301 207 67 134 162 533 608 546 218 99 103
0 0 1 0 9 343 614 577 620 542 488 707 719 517 311 381 333 357 281 263 177 118 160 107 53 69 161 92 228 204 173 173 200 204 154 137 205 461 522 101 58 8 16
0 0 0 0 0 0 32 384 389 254 247 329 499 719 522 329 229 236 232 359 321 332 146 112 70 10 0 0 0 0 0 3 4 6 18 103 149 399 159 106 23 4 12
0 0 0 0 0 0 0 31 23 19 163 225 242 522 817 667 292 122 415 426 417 431 333 248 56 0 0 0 0 0 0 0 0 0 89 98 139 205 308 171 6 11 33
0 0 0 0 0 0 0 1 70 200 211 73 45 195 781 1221 600 157 69 551 590 572 498 355 144 1 0 0 0 0 0 0 0 0 0 127 252 315 275 105 6 30 33
0 0 0 0 0 0 0 0 0 29 213 504 485 620 737 995 1018 434 73 348 678 708 650 595 374 41 26 23 0 0 0 0 0 0 0 68 298 465 137 10 15 14 22
3 3 0 0 0 0 0 0 0 0 5 161 294 526 735 764 617 589 287 294 483 609 531 605 400 148 30 0 0 0 0 0 0 0 0 0 2 6 38 0 0 25 54
1 0 0 0 0 0 0 0 0 0 0 0 2 138 277 558 522 284 180 420 403 509 673 636 228 54 9 0 0 0 0 0 0 0 0 0 5 66 27 0 0 55 166
4 3 1 1 2 0 0 0 0 0 0 0 0 4 30 123 293 91 45 307 235 420 476 609 457 17 0 0 0 0 0 0 0 0 0 0 69 0 0 0 2 60 146
1 2 1 0 2 5 7 6 5 5 2 0 0 0 0 33 21 9 0 1 111 379 513 467 374 30 0 0 0 0 0 0 0 0 0 0 54 0 0 0 13 56 95
3 2 1 2 0 3 5 4 6 5 5 1 0 0 0 0 31 0 0 0 0 110 444 385 184 1 0 0 0 0 0 0 0 0 0 0 0 0 0 1 21 59 115
2 1 2 2 2 2 3 4 5 4 6 4 3 1 0 0 0 25 0 0 0 0 0 18 0 0 0 0 0 0 0 0 0 0 0 0 29 0 12 18 30 77 111
3 5 3 4 4 4 3 1 2 2 5 15 8 5 3 0 0 1 20 0 0 0 0 0 0 0 0 0 0 0 0 0 0 0 0 47 2 35 33 26 58 73 95
4 3 5 6 7 7 7 7 1 1 1 0 0 2 0 1 0 0 1 2 0 0 0 0 0 0 0 0 0 0 0 0 0 0 8 80 50 46 12 52 44 72 50
4 4 5 5 6 6 7 7 6 5 0 0 0 0 0 0 0 0 0 0 0 0 0 0 0 0 0 0 0 0 0 0 0 0 49 81 71 26 29 66 35 47 42
3 2 5 5 5 6 7 10 7 9 10 1 0 0 0 0 0 0 0 0 9 12 0 0 0 0 0 0 0 0 0 0 5 0 49 56 47 20 52 63 37 70 58
2 3 3 4 5 5 5 7 8 5 21 10 4 0 0 0 0 0 0 0 22 16 1 0 0 0 0 0 0 0 0 0 7 11 50 81 33 18 71 70 63 35 45
4 4 4 4 4 4 4 3 4 4 5 3 4 2 2 1 1 0 0 0 5 19 14 8 8 0 0 0 2 0 0 1 0 10 44 63 46 107 86 60 43 5 27
7 7 9 6 6 3 3 3 5 3 4 5 2 5 0 2 2 1 2 9 2 7 14 9 4 4 7 7 3 0 5 4 3 44 51 36 83 50 21 9 16 23 37
9 7 3 1 3 5 8 3 2 4 2 5 12 0 0 1 2 3 3 9 1 12 7 9 5 14 8 0 0 0 10 7 23 45 46 23 25 6 11 14 15 18 13
2 2 0 1 2 3 4 3 2 2 2 2 1 1 1 4 4 3 9 16 8 14 10 13 17 6 2 0 1 7 21 25 20 59 46 57 11 12 16 13 6 5 0
4 1 3 19 4 2 2 4 3 1 1 2 3 3 10 10 4 4 17 2 6 27 15 26 18 2 0 3 7 21 42 109 97 150 69 11 3 0 11 12 22 16 2
2 2 1 5 6 10 4 4 4 6 7 7 6 10 10 13 20 14 8 16 36 31 9 0 0 0 66 41 24 89 56 33 137 79 66 16 8 18 15 1 1 1 0
5 3 3 2 3 3 5 3 1 0 1 4 15 20 14 17 34 35 30 16 2 0 0 0 26 55 30 67 109 7 0 0 16 2 13 24 13 13 4 0 0 0 0

GFSGL_con_mlcape_105.txt.gz
CAPE
3 0 0 64 189 355 934 1160 1660 2179 1862 1751 1524 1102 436 1438 1096 1142 1408 1508 1325 1713 1894 1717 1512 1865 1616 1493 1123 465 198 458 673 416 106 59 142 104 30 83 511 601 842
10 0 0 56 190 192 350 715 1182 1493 1577 1120 488 388 34 12 2 18 25 49 402 773 853 1386 1255 1547 1662 1562 1183 1146 801 1026 845 428 216 77 60 115 205 621 654 773 568
26 19 0 0 96 358 399 292 399 644 761 404 182 82 61 24 29 138 207 248 344 445 638 689 998 1077 1125 1074 774 492 373 542 419 377 236 120 176 231 247 514 891 920 766
0 2 1 1 1 55 152 162 140 384 586 680 359 155 66 31 69 146 198 216 213 295 433 621 646 835 823 835 708 529 430 338 144 97 60 77 64 105 234 426 553 429 268
0 0 0 0 0 0 55 3 34 1 335 576 756 545 403 227 209 227 213 271 362 361 382 408 545 445 237 488 383 347 209 112 0 0 3 14 15 83 204 413 283 242 184
0 0 0 0 0 0 0 140 5 25 8 425 496 461 726 605 320 189 399 491 582 539 520 436 375 335 141 32 0 0 0 0 0 0 0 0 0 85 237 333 294 210 54
6 5 1 0 0 0 0 3 106 5 0 42 429 588 546 460 770 227 85 831 943 791 868 746 617 328 134 23 0 0 0 0 0 0 0 0 0 0 96 298 310 179 85
0 4 2 2 0 0 0 0 2 167 207 41 55 111 555 782 88 142 467 313 1145 1210 1179 1112 999 655 449 264 144 166 47 0 0 0 0 0 20 91 112 76 186 101 46
6 7 3 2 0 2 0 2 6 0 50 306 489 529 682 626 393 459 414 625 599 1299 1449 1449 1262 1069 728 86 199 147 9 0 0 0 0 0 0 0 0 13 50 92 14
4 5 1 5 7 5 9 12 8 1 0 16 193 549 641 791 726 493 344 897 917 863 1256 1375 962 1135 875 326 245 231 83 48 0 0 0 0 0 0 0 0 84 20 8
4 7 3 6 4 1 1 22 28 9 1 2 28 204 534 746 903 627 474 803 945 1019 903 1092 1192 621 452 184 111 341 158 128 0 0 0 0 0 0 145 26 42 3 0
7 10 5 4 2 1 7 0 6 30 27 10 0 30 156 426 420 377 346 329 776 791 876 847 1069 638 457 168 12 7 5 0 0 0 0 0 0 0 55 40 38 8 0
9 1 2 0 4 5 1 9 0 2 10 14 11 2 0 36 317 152 109 101 189 441 599 651 743 534 383 109 7 1 0 0 0 0 0 0 0 0 105 0 16 0 1
4 5 3 1 0 5 4 3 1 1 11 18 10 11 3 2 2 431 21 0 16 32 37 268 407 300 387 248 4 0 0 0 0 0 0 0 0 0 135 0 0 0 12
2 6 2 1 2 4 3 4 3 0 5 6 13 11 8 7 0 1 171 154 120 54 46 94 483 358 319 219 126 43 0 0 0 0 0 0 0 3 0 0 6 11 7
3 4 4 6 4 5 7 6 1 0 0 0 1 7 18 4 0 0 0 0 27 8 1 43 140 452 324 199 82 12 9 5 0 0 1 0 2 71 0 12 21 0 30
4 3 4 6 6 5 4 4 5 4 0 0 0 0 0 0 0 0 0 0 0 2 21 0 66 161 242 146 47 2 0 0 1 12 24 0 9 48 0 9 32 47 32
3 3 2 3 4 5 3 3 4 3 3 4 0 0 0 0 0 0 0 0 0 0 12 12 0 34 56 5 2 1 0 0 2 6 19 1 68 41 54 12 18 47 57
2 3 3 2 3 4 5 5 8 9 10 10 14 0 0 0 0 0 0 0 0 1 0 6 5 0 0 0 2 0 0 0 4 34 0 5 120 74 30 19 39 55 83
3 2 1 3 2 3 3 3 4 3 3 7 4 15 1 0 1 0 0 0 0 0 0 3 1 0 0 0 0 0 0 3 0 0 0 41 104 68 17 32 78 111 104
3 5 5 4 5 5 5 5 4 3 3 6 1 3 0 2 2 2 1 0 0 0 7 4 5 1 1 0 0 0 6 0 3 0 7 92 114 37 17 73 98 129 130
8 8 7 6 1 3 4 3 4 3 2 3 3 2 0 1 2 2 4 0 0 3 34 23 12 15 10 0 2 17 7 0 2 12 64 132 84 8 19 108 102 96 56
1 2 0 0 11 3 4 1 2 2 1 2 7 1 0 2 2 2 2 3 4 8 12 0 17 3 6 28 24 5 0 0 31 57 124 91 15 53 57 49 69 37 17
0 0 7 3 8 1 1 2 0 1 3 1 1 0 1 4 3 1 4 8 3 8 5 4 0 0 9 14 6 0 0 6 62 133 125 118 60 23 14 0 2 7 0
2 1 8 9 11 8 4 2 3 3 1 1 1 1 4 2 2 12 4 0 0 6 1 4 0 1 18 2 0 1 2 20 195 135 116 92 57 33 12 1 0 0 0
3 3 3 3 1 3 11 10 11 9 2 2 2 1 8 7 1 0 0 10 25 20 18 23 25 2 0 0 0 15 0 10 18 41 88 48 6 0 2 0 0 0 0

GFSGL_con_mlcape_108.txt.gz
CAPE
15 7 0 0 0 29 165 196 581 936 1316 1398 1676 1752 1143 339 69 171 176 60 30 0 131 996 2151 2004 1953 1931 1592 1283 696 111 23 0 0 1 0 584 482 351 199 189 280
11 24 39 10 0 0 37 163 332 455 736 1161 1311 1282 890 439 45 148 6 0 0 0 69 823 1630 1554 1305 1216 1232 967 544 107 16 0 0 18 159 291 212 278 363 816 806
0 0 0 22 5 0 0 10 177 137 88 213 877 885 742 184 0 128 84 37 105 232 683 1353 1098 1153 1267 1244 1034 816 617 185 7 0 0 91 583 385 409 561 555 379 435
0 0 0 0 4 10 0 0 26 78 88 27 0 4 231 362 86 56 35 31 131 248 401 458 591 654 811 877 693 710 466 298 206 184 114 130 148 143 89 240 224 121 264
0 0 0 0 0 0 1 0 0 18 0 9 0 0 15 41 158 118 241 211 224 251 312 463 398 431 288 579 727 584 387 217 181 129 29 2 2 1 11 165 64 78 147
5 8 4 10 11 0 0 0 0 9 14 0 0 0 0 0 80 97 169 246 299 323 398 343 434 223 170 98 81 17 0 0 0 0 0 0 0 0 0 13 53 0 10
1 0 0 0 0 0 10 1 0 5 26 0 0 0 1 0 3 36 31 351 258 382 346 456 159 257 149 23 0 0 0 0 0 0 0 0 0 0 0 16 83 53 97
0 0 0 1 3 0 0 1 5 5 19 1 0 0 0 1 27 185 122 162 642 708 618 570 355 221 160 10 0 0 0 14 0 0 0 0 0 0 0 0 0 0 0
1 2 2 5 0 7 0 0 0 11 16 84 45 20 0 0 10 73 117 162 0 39 824 680 635 412 587 88 353 413 331 421 261 0 0 0 0 0 0 0 0 0 0
5 2 3 3 10 4 2 2 0 2 15 28 35 120 154 90 143 268 44 356 187 377 124 539 822 969 643 285 295 529 628 459 287 58 0 0 0 0 0 0 0 90 57
12 15 5 6 5 4 12 5 2 0 1 9 12 4 48 195 270 297 150 352 678 738 232 121 927 801 835 611 355 426 430 507 492 173 0 0 0 0 0 0 48 51 3
2 21 6 3 7 12 11 3 5 0 0 0 20 1 1 1 187 215 154 340 590 753 754 582 640 646 832 709 517 589 411 381 245 37 0 0 0 0 0 0 64 35 0
5 3 4 1 4 4 7 11 5 1 7 5 22 27 2 0 89 151 166 339 402 750 865 916 828 681 649 392 332 350 70 157 83 1 0 0 0 0 0 2 58 0 0
3 2 2 6 3 10 10 8 8 6 1 7 1 17 27 12 0 92 152 129 80 207 571 677 642 275 158 114 34 0 1 18 11 0 0 0 0 0 0 0 3 0 0
2 5 4 2 3 8 4 1 0 2 3 5 6 18 19 12 30 1 1 314 235 208 291 411 382 244 326 287 223 37 0 2 0 0 0 0 0 7 0 4 20 0 9
5 5 5 6 5 6 8 3 0 0 1 0 2 8 18 4 0 0 0 0 1 90 169 260 221 137 257 509 563 345 60 0 0 0 0 0 0 23 0 5 0 0 2
3 2 1 3 4 2 3 6 6 4 0 0 0 0 0 0 0 0 0 0 0 0 127 105 160 118 161 606 542 448 362 180 48 12 11 12 16 31 0 0 0 7 50
2 2 2 3 4 4 4 5 5 4 3 3 1 0 0 0 0 0 0 0 0 0 10 139 91 138 104 451 561 405 199 107 53 41 129 37 35 0 0 0 34 2 2
2 2 3 3 2 2 2 4 6 5 2 3 3 1 0 0 0 0 0 0 0 0 0 28 106 75 133 180 221 205 83 66 14 96 83 23 1 0 0 10 7 0 8
4 3 4 3 4 3 2 2 3 5 4 6 5 5 4 0 0 0 0 0 0 0 0 0 34 23 45 3 10 33 7 0 30 132 32 0 0 0 0 29 9 0 5
3 4 5 4 6 6 4 4 4 3 3 4 6 5 11 1 1 0 0 0 0 0 0 0 6 20 19 14 0 0 0 0 18 22 14 0 0 0 64 35 2 19 15
7 4 6 6 6 5 5 4 4 3 3 3 2 2 0 1 1 0 0 1 0 0 0 0 1 5 8 1 0 0 0 12 39 17 0 0 0 0 63 17 0 1 5
0 0 0 0 1 4 0 2 1 3 2 2 5 4 0 2 4 2 3 0 0 0 0 2 6 4 7 2 1 0 15 32 22 0 0 0 1 30 24 0 0 5 0
3 4 3 3 0 1 2 0 1 1 1 1 3 1 2 4 2 2 3 2 0 0 0 19 12 3 14 2 11 65 50 46 41 6 0 0 32 42 6 9 39 2 0
2 2 2 1 11 2 2 2 2 2 2 3 4 0 2 5 3 5 6 3 0 1 5 10 15 8 6 0 26 19 2 3 13 32 65 70 0 0 6 0 0 0 0
3 2 1 0 1 2 5 6 3 1 1 1 0 0 0 3 0 2 2 1 0 2 8 4 0 3 0 27 30 1 0 0 1 10 63 61 31 0 0 0 0 0 0

GFSGL_con_mlcape_111.txt.gz
CAPE
0 0 0 0 0 0 0 0 0 0 0 8 160 353 576 654 422 165 30 0 3 0 0 0 0 0 0 31 484 549 442 184 105 47 0 0 0 0 0 51 144 3 24
0 0 0 0 0 0 0 0 0 0 0 0 0 12 142 397 295 91 1 1 33 6 5 0 0 0 0 0 381 404 432 201 84 42 0 0 0 0 0 157 302 204 199
0 0 0 0 0 0 0 0 0 0 0 0 0 0 0 1 365 265 116 57 58 37 0 0 0 0 0 19 748 665 369 165 46 27 34 0 0 12 186 173 218 276 327
0 0 0 0 0 0 0 0 0 0 0 0 0 0 0 0 75 334 229 25 14 6 0 0 19 74 173 560 628 603 487 283 88 73 13 6 11 28 3 11 8 28 0
0 0 0 0 0 0 0 0 0 0 0 0 0 0 0 0 0 0 2 78 93 12 1 66 41 102 486 765 743 570 455 316 206 116 11 0 0 0 0 0 0 0 0
0 0 0 0 0 0 0 0 0 0 0 0 0 0 0 0 0 0 0 5 3 99 234 298 438 303 355 638 514 421 341 235 119 1 0 0 0 0 0 0 0 0 0
0 0 0 0 0 0 0 0 0 0 0 0 0 0 0 0 0 0 0 0 2 87 335 389 301 182 154 153 138 53 0 0 0 0 0 0 0 0 0 0 0 0 0
0 0 0 0 0 0 0 0 0 0 0 0 0 0 0 0 0 0 0 0 2 11 333 386 230 284 175 84 8 0 0 0 0 0 0 0 0 0 0 0 0 0 0
0 0 0 0 0 0 0 0 0 0 0 0 0 0 0 0 0 0 0 0 3 1 501 645 333 301 272 95 0 0 0 0 0 0 0 0 0 0 0 0 0 0 0
0 2 9 2 1 6 4 1 1 0 0 0 0 0 14 1 0 0 0 0 8 5 48 625 647 307 428 216 33 2 41 80 180 128 0 0 0 0 0 0 0 0 0
3 1 1 7 8 9 2 2 1 1 0 8 0 0 1 13 4 16 9 23 85 35 3 34 291 380 248 218 99 293 147 273 462 148 48 0 0 0 0 0 0 6 0
0 1 4 5 8 10 10 1 0 1 14 9 0 0 0 0 0 0 0 2 130 306 213 244 145 83 0 16 115 109 286 379 375 304 167 11 0 0 0 0 0 6 0
8 0 6 3 12 7 6 3 1 10 20 10 3 1 0 0 1 0 0 0 4 147 306 170 168 142 61 1 55 103 86 243 326 278 110 0 0 0 0 32 74 83 0
7 6 4 3 0 0 0 1 6 7 11 14 8 5 0 0 0 0 0 0 0 0 210 175 194 180 62 19 1 1 38 245 314 249 81 0 0 0 0 0 0 0 0
4 6 4 4 3 8 5 4 5 8 11 11 11 5 5 0 0 0 0 0 0 0 25 151 138 175 113 23 13 1 0 0 41 38 0 0 0 0 0 0 0 0 0
3 3 3 3 4 5 4 4 2 1 9 3 1 0 3 3 0 0 0 0 0 0 0 83 91 126 44 31 29 1 0 0 0 0 0 0 0 0 0 0 0 0 0
3 2 2 4 4 3 2 4 2 2 2 0 0 0 0 0 0 0 0 0 0 0 0 29 60 63 37 8 30 42 9 1 4 0 0 3 0 0 0 0 0 0 0
0 2 2 3 3 5 4 4 3 2 3 7 1 0 0 0 0 0 0 0 0 0 0 0 50 96 68 20 69 193 166 56 8 3 0 1 0 0 0 1 0 0 0
3 3 3 3 3 2 3 2 4 4 3 4 6 3 1 0 0 0 0 0 0 0 0 0 12 42 51 12 2 252 215 178 91 26 11 24 4 0 1 0 5 0 1
4 4 4 4 5 5 3 3 2 3 2 5 3 2 2 0 1 0 0 0 0 0 0 0 0 32 17 26 6 0 108 71 31 32 73 31 9 2 0 0 0 3 14
8 8 7 5 6 7 5 5 3 3 2 2 3 4 2 2 1 1 0 0 0 0 0 0 0 30 51 27 1 2 0 0 1 4 27 15 3 0 0 0 0 22 19
7 4 2 2 3 3 3 5 5 3 2 2 3 3 0 0 5 0 0 0 0 0 0 0 0 4 27 6 4 0 0 0 0 3 8 4 0 0 0 12 33 16 29
1 1 0 0 1 1 1 1 1 2 2 2 3 2 1 0 4 0 0 0 0 0 0 0 0 4 10 6 0 0 0 0 0 0 0 0 0 1 15 17 15 16 15
4 4 2 2 6 1 0 0 0 1 1 1 2 2 1 0 0 1 0 0 1 0 0 0 0 2 16 5 3 4 0 0 0 10 24 10 6 6 11 18 2 14 2
5 4 2 3 1 2 3 2 2 0 0 0 2 1 0 0 1 1 0 3 2 0 0 0 0 3 7 4 0 0 0 0 12 20 27 28 19 9 14 10 0 2 1
6 6 6 5 1 3 1 1 2 2 1 0 0 0 2 1 0 1 1 1 1 0 0 0 0 0 1 0 6 11 8 30 29 41 60 36 16 11 4 0 1 0 0

GFSGL_con_mlcape_114.txt.gz
CAPE
0 0 0 0 0 0 0 0 0 0 0 0 0 0 0 0 9 124 190 291 192 129 55 19 0 0 0 0 0 0 0 0 0 14 46 70 19 8 0 0 9 5 22
0 0 0 0 0 0 0 0 0 0 0 0 0 0 0 0 0 0 51 127 119 78 55 10 0 0 0 0 0 0 18 33 16 111 25 27 0 0 0 0 0 3 101
0 0 0 0 0 0 0 0 0 0 0 0 0 0 0 0 0 0 15 33 45 31 11 0 0 0 0 0 0 0 91 77 63 64 63 0 0 0 0 0 13 31 72
0 0 0 0 0 0 0 0 0 0 0 0 0 0 0 0 0 0 7 94 86 63 25 0 0 0 0 0 0 0 40 135 50 51 0 0 0 0 5 5 6 0 0
0 0 0 0 0 0 0 0 0 0 0 0 0 0 0 0 0 0 0 6 34 49 33 2 10 0 4 0 33 44 55 111 72 34 26 0 0 0 0 0 0 0 0
0 0 0 0 0 0 0 0 0 0 0 0 0 0 0 0 0 0 0 0 7 14 33 44 5 3 3 1 23 194 219 106 82 68 0 0 0 0 0 0 0 0 0
0 0 0 0 0 0 0 0 0 0 0 0 0 0 0 0 0 0 0 0 0 4 0 0 7 60 35 36 22 162 315 192 154 11 0 0 0 0 0 0 0 0 0
0 0 0 0 0 0 0 0 0 0 0 0 0 0 0 0 0 0 0 0 0 0 0 0 0 17 48 126 158 212 124 9 0 0 0 0 0 0 0 0 0 0 0
0 0 0 0 0 0 0 0 0 0 0 0 0 0 0 0 0 0 0 0 0 0 0 0 0 9 8 76 101 79 1 0 0 0 0 0 0 0 0 0 0 0 0
0 0 0 0 0 2 6 9 5 0 0 0 0 0 0 0 0 0 0 0 0 0 0 0 1 10 0 2 4 0 0 0 0 0 0 0 0 0 0 0 0 0 0
6 1 1 11 1 0 0 0 13 0 0 0 0 0 0 0 0 0 0 9 1 0 0 0 3 19 68 8 0 0 0 0 22 16 0 0 0 0 0 0 0 0 0
7 4 3 3 7 1 1 2 5 4 9 1 1 3 7 3 0 0 0 1 5 15 5 0 0 0 50 61 50 27 0 6 33 72 16 0 0 0 0 0 0 0 0
5 4 4 4 3 0 0 0 9 8 14 4 2 0 8 1 0 0 0 0 0 12 67 21 0 0 3 7 48 58 93 100 140 150 106 42 0 2 0 0 0 0 2
3 3 2 3 2 2 4 3 1 0 0 2 3 17 13 3 1 1 0 0 0 0 2 28 24 43 13 6 0 0 0 49 211 264 143 76 1 0 0 0 0 0 0
2 2 2 2 2 3 2 3 4 2 5 10 8 13 11 4 0 0 0 0 0 0 0 0 2 7 22 15 4 0 1 1 100 124 93 74 61 0 0 0 0 0 0
1 1 2 2 3 3 2 2 2 0 0 0 0 1 14 5 1 0 0 0 0 0 0 0 11 39 29 49 27 19 2 10 62 91 45 50 53 4 0 0 0 0 0
3 3 3 3 3 2 3 3 2 1 2 0 0 0 0 0 0 0 0 0 0 0 0 0 0 19 39 50 61 83 27 3 3 8 8 0 0 9 0 0 0 0 0
3 3 3 3 2 3 2 2 3 3 2 3 0 0 0 0 0 0 0 0 0 0 0 0 0 0 17 43 63 94 41 11 12 1 0 0 0 0 0 0 0 0 1
5 5 4 4 4 3 3 3 2 2 3 1 3 2 0 0 0 0 0 0 0 0 0 0 0 0 0 12 48 75 10 0 0 0 0 0 0 0 0 0 5 0 2
8 8 7 6 6 5 5 5 4 3 2 2 4 3 2 0 0 0 0 0 0 0 0 0 0 0 1 27 13 19 26 50 20 14 0 0 0 0 0 6 2 0 5
9 7 6 5 5 5 5 4 4 3 2 2 2 4 2 2 1 1 1 0 0 0 0 0 0 0 0 26 20 0 0 52 27 13 17 0 0 0 7 8 1 3 0
6 3 1 0 0 1 1 2 4 2 2 2 2 1 0 1 3 2 1 0 0 0 0 0 0 0 0 0 0 0 0 0 0 0 10 1 0 5 16 15 6 3 2
5 4 4 2 3 1 1 0 1 2 2 1 2 3 1 2 4 2 0 0 0 0 0 0 0 0 0 0 2 0 0 0 0 2 3 4 10 16 16 8 9 7 0
7 6 5 3 3 3 2 1 1 1 1 1 1 2 2 2 2 4 0 0 1 0 0 0 0 0 0 4 3 3 0 0 1 0 0 0 15 14 8 13 35 34 7
7 7 6 5 5 4 2 5 1 1 0 0 1 1 0 0 0 1 0 0 1 0 0 0 0 0 0 2 0 0 0 0 0 0 0 0 18 10 17 37 46 4 1
8 8 8 7 5 5 5 2 1 1 0 0 0 0 0 0 0 0 1 0 3 0 0 0 0 0 0 6 12 0 0 0 0 0 0 14 15 15 32 28 0 0 1

GFSGL_con_mlcape_117.txt.gz
CAPE
0 0 0 0 0 0 0 0 0 0 0 0 0 0 0 0 0 0 0 0 0 12 7 23 56 70 19 0 0 0 0 0 0 0 0 0 0 1 35 30 0 0 0
0 0 0 0 0 0 0 0 0 0 0 0 0 0 0 0 0 0 0 0 0 0 0 0 14 40 14 0 0 0 0 0 0 0 0 12 26 35 12 0 0 0 0
0 0 0 0 0 0 0 0 0 0 0 0 0 0 0 0 0 0 0 0 0 0 3 0 14 1 0 0 0 0 0 0 0 0 11 5 19 0 0 0 0 0 0
0 0 0 0 0 0 0 0 0 0 0 0 0 0 0 0 0 0 0 0 0 0 11 7 10 2 0 0 0 0 0 0 12 18 12 2 0 0 2 9 24 0 0
0 0 0 0 0 0 0 0 0 0 0 0 0 0 0 0 0 0 0 0 0 0 0 2 39 20 0 0 0 0 0 0 3 15 6 4 2 5 14 0 0 0 0
0 0 0 0 0 0 0 0 0 0 0 0 0 0 0 0 0 0 0 0 0 0 0 0 12 6 0 0 0 0 0 0 0 16 6 21 0 0 0 0 0 0 0
0 0 0 0 0 0 0 0 0 0 0 0 0 0 0 0 0 0 0 0 0 0 0 0 0 6 0 0 0 0 29 38 29 83 28 11 0 0 0 0 0 0 0
0 0 0 0 0 0 0 0 0 0 0 0 0 0 0 0 0 0 0 0 0 0 0 0 0 0 0 8 14 14 3 6 9 16 50 11 0 0 0 0 0 0 0
0 0 0 0 0 0 1 0 0 0 0 0 0 0 0 0 0 0 0 0 0 0 0 0 0 0 0 0 15 40 85 55 16 1 2 0 0 0 0 0 0 0 0
1 0 0 0 4 0 0 6 1 0 0 1 0 0 0 0 0 0 0 0 0 0 0 0 0 0 0 5 21 28 59 12 0 0 0 0 0 0 0 0 0 0 0
0 5 3 2 4 3 3 2 0 0 0 0 1 0 0 0 0 0 0 0 0 0 0 0 0 0 0 0 0 1 52 0 0 0 0 0 0 0 0 0 0 0 0
3 4 2 3 3 4 2 1 1 1 2 1 9 2 0 0 0 0 0 0 0 0 0 0 0 0 3 4 0 0 0 0 0 0 0 0 0 0 0 0 0 0 0
2 2 1 1 2 1 1 1 2 0 0 4 9 12 0 0 0 1 0 0 0 0 0 0 0 0 0 0 0 0 0 0 0 0 0 0 0 0 0 0 0 0 0
3 2 2 1 0 1 1 2 2 4 1 0 1 5 0 0 0 2 0 0 0 0 0 0 0 0 0 0 0 0 0 0 2 12 32 21 0 0 0 0 0 0 0
1 1 0 1 1 2 2 1 3 3 3 5 1 0 0 0 3 1 1 0 0 0 0 0 0 1 8 0 0 0 0 30 56 69 54 26 13 0 0 0 0 0 0
3 3 2 3 2 3 3 3 2 2 2 1 0 1 1 0 2 0 0 0 0 0 0 0 4 0 0 0 0 0 0 0 0 34 47 16 9 17 14 0 0 0 0
4 4 4 3 3 3 3 4 3 2 2 0 0 0 0 0 0 0 0 0 0 0 0 0 0 2 0 3 6 7 13 0 0 0 6 0 0 0 0 0 0 0 0
4 5 5 4 4 4 5 4 3 3 3 2 0 0 0 0 0 0 0 0 0 0 0 0 0 0 0 20 17 27 31 2 2 0 0 0 0 0 0 0 0 0 0
6 6 6 5 5 4 4 5 4 3 3 2 2 2 0 0 0 0 0 0 0 0 0 0 0 0 0 10 42 42 29 27 0 0 0 0 0 0 0 0 0 0 0
7 9 6 7 6 6 5 4 5 4 3 2 2 1 3 1 0 0 0 0 0 0 0 0 0 0 0 0 13 18 17 18 0 0 0 0 0 0 0 0 0 0 4
8 7 5 2 0 0 2 2 3 3 2 2 2 2 2 2 3 1 1 0 0 0 0 0 0 0 0 0 0 0 8 12 0 0 0 0 0 0 0 0 1 9 1
5 4 4 3 3 1 0 0 0 2 2 1 1 1 0 1 4 2 0 0 0 0 0 0 0 0 0 0 0 0 0 0 0 0 15 0 0 0 0 0 10 8 7
5 6 6 5 5 2 1 0 1 1 3 1 1 2 0 1 4 2 1 0 0 0 0 0 0 0 0 0 0 0 0 0 0 0 0 0 2 0 0 3 13 11 13
7 7 7 6 6 5 2 1 0 1 2 1 1 2 1 1 4 4 0 0 0 0 0 0 0 0 0 0 0 0 0 0 0 0 0 0 0 0 7 9 22 17 6
7 8 8 7 7 6 3 2 1 0 1 0 0 1 1 0 1 1 0 0 0 0 0 0 0 0 0 0 0 0 0 0 0 0 0 0 0 2 11 22 14 25 18
4 5 6 8 8 7 6 2 0 0 1 1 1 0 0 0 0 0 1 0 0 0 0 0 0 0 0 0 0 0 0 0 0 0 0 0 0 2 10 18 40 32 12

GFSGL_con_mlcape_123.txt.gz
CAPE
0 0 0 0 0 0 0 0 0 0 0 0 0 0 0 0 0 0 0 0 0 0 0 0 0 0 0 0 2 40 3 13 22 7 45 19 2 0 0 0 0 0 0
0 0 0 0 0 0 0 0 0 0 0 0 0 0 0 0 0 0 0 0 0 0 0 0 0 0 0 0 0 4 9 6 3 4 1 38 61 0 0 0 0 0 0
0 0 0 0 0 0 0 0 0 0 0 0 0 0 0 0 0 0 0 0 0 0 0 0 0 0 0 0 0 2 4 4 7 4 2 82 52 0 0 2 5 14 14
0 0 0 0 0 0 0 0 0 0 0 0 0 0 0 0 0 0 0 0 0 0 0 0 0 0 0 5 8 2 5 7 2 7 2 49 74 23 15 57 6 12 42
0 0 0 0 0 0 0 0 0 0 0 0 0 0 0 0 0 0 0 0 0 0 8 11 21 15 4 4 0 0 16 3 5 4 16 84 27 124 136 194 85 74 137
0 0 0 0 0 0 0 0 0 0 0 0 0 0 0 0 0 0 0 0 0 1 0 14 35 53 30 0 0 0 1 11 4 6 35 47 63 310 283 275 209 123 74
0 0 0 0 0 0 0 0 0 0 0 0 0 0 0 0 0 0 0 0 0 13 11 14 20 13 9 14 18 5 1 2 9 15 56 213 384 361 286 273 200 164 47
0 0 0 0 0 0 0 1 2 0 3 4 2 1 0 1 0 0 0 2 6 29 20 10 6 5 1 0 0 0 8 40 7 13 2 167 442 319 121 50 22 5 1
0 0 0 0 0 0 0 0 0 0 2 3 4 4 4 5 0 0 0 0 1 10 21 21 5 0 0 0 0 0 0 29 32 15 33 73 143 26 10 8 6 2 0
0 0 0 0 0 0 0 1 2 1 0 1 1 2 1 4 1 0 0 0 1 10 15 16 1 0 0 0 0 0 0 60 125 62 12 1 27 1 0 2 5 9 3
0 0 1 1 1 2 2 3 3 2 3 2 2 2 3 1 1 0 0 0 1 5 11 16 9 0 0 0 0 12 0 164 242 241 37 33 0 0 0 24 35 17 4
1 2 2 1 2 2 2 2 2 2 2 2 2 3 4 1 1 1 0 0 0 0 1 11 10 0 0 0 0 0 0 4 170 226 43 19 1 0 0 61 59 48 73
3 1 2 2 2 2 2 2 3 2 2 3 3 3 3 3 0 0 2 0 0 0 0 4 0 0 0 0 0 0 0 0 88 70 6 12 9 0 58 43 58 38 22
2 2 1 2 2 2 2 2 3 3 3 3 3 3 3 1 0 0 8 0 0 0 0 0 0 0 0 0 3 0 2 3 6 21 2 37 39 41 16 24 60 79 185
2 2 2 2 3 4 3 3 3 3 2 3 3 3 3 3 3 0 0 0 0 4 6 14 0 0 0 2 3 1 1 5 5 1 41 76 54 80 120 167 247 264 305
3 3 3 4 4 4 4 5 1 0 1 1 1 1 1 2 0 0 0 0 0 0 0 16 0 1 2 5 4 0 0 2 0 0 35 88 145 249 241 234 311 309 299
4 4 4 4 4 5 5 5 5 1 1 0 0 1 1 1 0 1 0 0 0 0 0 19 5 30 7 1 9 1 1 45 50 75 139 237 278 367 226 263 303 342 411
3 5 5 4 5 6 6 6 6 5 3 4 1 1 1 0 0 0 0 0 2 0 1 0 0 50 2 0 19 59 140 106 200 212 258 311 412 354 368 380 352 385 461
4 5 5 5 5 6 5 4 5 4 3 2 3 2 1 0 0 0 0 2 3 25 2 0 2 8 34 3 16 66 170 143 197 303 256 340 385 359 305 344 392 276 353
5 6 6 5 5 3 1 2 1 0 1 2 1 1 1 1 1 1 2 2 2 0 22 3 13 11 6 39 27 29 221 114 240 227 206 264 288 316 349 352 370 80 154
4 6 5 3 3 3 3 4 2 2 3 1 0 1 2 3 2 2 4 2 2 1 9 18 9 2 46 13 10 30 243 247 274 250 255 265 227 193 173 161 359 386 271
4 5 4 5 3 4 4 3 3 1 3 1 1 1 0 1 3 1 3 2 0 0 0 3 11 0 5 18 14 37 238 261 247 245 224 197 116 108 95 214 346 307 299
4 5 5 5 5 6 6 5 4 2 1 2 1 1 0 2 1 2 2 1 0 0 0 0 0 0 0 0 0 40 144 232 256 281 247 176 124 221 270 290 303 360 282
4 5 6 6 8 8 7 7 6 4 2 0 1 1 2 3 2 0 2 3 5 3 0 0 0 0 0 0 0 0 12 101 169 208 214 146 204 154 317 399 343 348 195
3 5 6 6 8 9 9 8 7 6 4 3 0 1 2 2 4 1 3 0 2 0 0 0 0 0 0 0 0 0 0 0 24 50 156 349 386 296 410 363 302 213 0
3 4 4 4 5 6 7 9 8 7 7 5 3 1 0 5 3 3 2 0 2 1 0 0 0 0 0 0 0 0 0 0 0 0 45 94 156 207 245 275 266 54 0

GFSGL_con_mlcape_129.txt.gz
CAPE
0 0 0 0 0 0 0 0 0 0 10 20 50 71 112 187 299 313 319 384 242 240 168 42 17 76 0 0 0 0 0 0 0 0 0 3 9 21 59 187 306 238 325
0 0 0 0 0 0 0 0 0 0 0 0 0 0 0 14 95 200 224 253 259 223 230 189 131 171 34 19 0 0 0 0 0 0 0 0 3 19 14 15 132 65 45
0 0 0 0 0 0 0 0 0 0 0 0 0 0 0 0 0 2 45 87 197 251 256 261 223 163 126 135 71 59 11 3 7 16 16 0 3 19 12 3 44 97 196
0 0 0 0 0 0 0 0 0 0 0 0 0 0 0 0 0 0 0 0 0 24 147 262 272 276 265 122 54 73 72 44 4 6 8 6 0 18 33 28 0 74 101
0 0 0 0 0 0 0 0 0 0 0 0 0 0 0 0 0 0 0 0 0 0 0 11 59 224 229 214 202 107 95 30 75 22 7 21 17 21 36 34 21 64 92
0 0 0 0 0 0 0 0 0 0 0 0 0 0 0 0 0 0 0 0 0 0 0 0 4 28 0 3 47 51 36 43 35 28 17 0 15 3 4 13 49 99 160
0 0 0 0 0 0 0 0 0 0 0 0 0 3 3 1 0 0 0 0 0 0 1 2 2 2 4 20 58 46 41 31 17 35 25 12 4 0 0 20 72 104 173
0 0 0 0 0 0 0 0 0 0 2 1 1 2 0 0 0 0 0 0 0 0 0 0 1 1 3 2 5 11 12 22 30 40 44 9 10 0 11 37 49 30 24
0 0 0 0 0 0 0 0 0 0 2 0 0 0 0 0 0 0 0 0 1 0 0 0 0 0 0 0 0 0 9 21 24 33 15 23 5 7 0 1 5 8 13
0 0 0 0 0 0 0 2 3 0 0 0 2 2 0 0 0 0 0 0 2 2 2 4 4 0 0 0 0 0 10 42 15 19 6 6 1 0 0 0 0 31 76
0 0 0 0 1 1 2 0 0 1 2 2 2 2 1 1 1 0 0 0 2 3 3 2 2 0 0 0 0 1 7 26 11 2 1 3 0 9 18 64 32 79 12
0 0 0 2 2 0 1 2 2 2 2 3 3 3 1 1 1 0 0 0 0 1 3 6 2 0 1 0 0 0 0 0 4 13 11 0 18 3 39 158 189 82 50
2 2 1 0 0 1 3 2 3 2 3 4 3 3 2 0 0 0 0 0 0 0 0 0 0 0 0 0 0 0 0 0 1 3 0 1 1 60 150 102 29 57 83
2 0 1 2 2 2 2 1 2 3 3 3 3 3 2 2 1 0 0 4 0 0 1 1 2 1 0 0 0 0 0 1 7 12 6 22 40 110 110 34 0 0 1
0 2 2 2 2 2 1 2 2 2 1 4 3 2 3 3 2 1 2 1 1 1 0 0 3 0 0 1 4 11 21 13 1 0 3 34 91 109 25 38 0 0 2
2 2 2 3 3 3 4 4 1 0 0 0 0 1 2 2 1 1 0 0 0 0 1 2 4 1 6 16 9 20 3 1 0 15 35 119 194 164 0 0 10 0 3
2 3 3 2 3 4 4 4 4 1 0 0 0 0 0 0 0 1 1 0 1 1 3 2 1 0 15 0 9 23 32 20 28 9 41 117 130 112 0 0 6 1 43
1 2 2 3 4 4 4 4 3 3 2 1 1 0 0 0 0 0 1 1 2 2 2 1 2 0 1 1 20 0 7 45 14 24 25 71 16 3 0 14 37 62 127
2 3 3 3 3 3 3 3 2 2 3 3 2 1 0 0 0 0 0 2 3 2 3 2 2 0 0 17 32 23 10 0 6 11 43 49 1 0 0 13 68 85 94
1 2 2 2 2 3 3 2 3 3 2 3 3 2 1 3 2 1 2 2 3 1 0 0 0 0 0 4 11 4 0 0 2 19 62 19 0 4 40 83 197 195 385
1 2 1 2 2 3 3 3 3 3 3 3 3 2 0 0 1 2 2 1 4 0 2 0 0 5 0 0 0 0 0 0 3 22 21 0 66 60 7 187 291 187 204
1 1 1 2 2 2 3 2 2 2 3 4 2 2 0 2 1 4 3 1 2 3 1 0 0 5 0 11 12 7 0 4 6 0 0 0 15 120 101 199 248 273 261
1 1 2 2 2 2 3 3 3 3 3 3 3 2 1 4 2 0 7 1 2 5 0 0 0 8 4 10 26 24 16 28 27 30 20 190 192 190 197 72 291 233 170
1 1 1 1 2 3 3 3 3 3 3 4 5 3 2 1 4 0 0 1 0 0 0 0 0 0 13 0 5 25 22 1 33 2 13 269 248 170 197 146 194 259 208
1 1 1 2 2 3 3 3 3 3 3 5 6 5 2 3 0 0 1 0 3 0 0 0 0 0 0 0 1 0 0 0 0 0 56 240 214 204 197 177 216 195 287
1 1 1 0 1 2 3 3 3 3 4 4 4 6 5 2 3 3 0 0 1 0 0 0 1 0 6 0 0 0 0 0 0 0 0 271 243 171 194 194 242 259 245

GFSGL_con_mlcape_132.txt.gz
CAPE
0 0 0 0 0 0 0 0 0 0 0 0 0 4 34 84 170 323 454 452 361 370 319 256 156 157 132 94 0 0 0 0 0 0 0 0 0 0 0 0 0 19 52
0 0 0 0 0 0 0 0 0 0 0 0 0 0 0 0 2 51 177 246 366 390 389 274 211 206 253 247 133 50 19 0 0 0 0 0 0 0 9 43 15 2 0
0 0 0 0 0 0 0 0 0 0 0 0 0 0 0 0 0 0 0 0 43 189 211 230 216 279 240 209 234 298 280 200 59 28 7 2 0 0 0 0 11 0 9
0 0 0 0 0 0 0 0 0 0 0 0 0 0 0 0 0 0 0 0 0 0 0 9 98 241 201 170 205 181 229 189 166 133 22 0 0 0 0 10 27 23 2
0 0 0 0 0 0 0 0 0 0 0 0 0 0 0 0 0 0 0 0 0 0 0 0 0 0 0 3 35 71 114 115 108 102 65 23 7 0 27 39 17 0 0
0 0 0 0 0 0 0 0 0 0 0 0 0 0 0 0 0 0 0 0 0 0 0 0 0 0 0 0 0 0 29 60 47 51 37 43 35 23 0 2 12 0 0
0 0 0 0 0 0 0 0 0 0 0 0 0 0 0 0 0 0 0 0 0 0 0 0 0 0 0 0 0 0 5 8 17 44 47 32 40 0 0 9 12 0 0
0 0 0 0 0 0 0 0 0 0 0 0 0 0 0 0 0 0 0 0 0 0 0 0 0 0 0 0 0 0 0 2 3 11 29 6 30 25 33 38 25 6 28
0 0 0 0 0 0 0 0 0 0 0 0 0 0 0 0 0 0 0 0 1 0 1 0 0 2 4 0 0 0 0 0 0 0 13 50 18 8 4 18 21 23 0
0 0 0 0 0 0 0 0 0 0 0 0 0 0 0 1 0 0 0 0 1 2 2 2 1 2 0 0 0 1 4 0 0 0 4 29 22 15 0 0 0 0 0
0 0 0 0 0 0 0 0 0 0 1 2 1 1 1 1 0 0 0 1 1 1 2 1 1 1 0 0 0 0 1 0 2 5 0 20 16 2 0 2 3 11 4
0 0 0 0 0 0 0 1 1 1 2 2 2 2 1 0 0 0 0 0 0 0 0 0 0 0 0 1 0 0 0 0 2 2 15 27 8 0 2 20 29 22 109
0 0 0 0 0 1 1 2 2 1 2 3 2 2 2 0 0 0 0 0 0 0 0 1 0 0 0 0 0 0 0 1 3 2 4 10 4 0 3 3 6 17 80
0 0 0 1 1 1 0 0 1 2 2 2 3 3 2 1 1 0 1 2 0 1 1 1 0 0 1 1 1 1 0 2 0 0 4 0 0 0 0 0 17 58 66
1 1 2 2 1 1 1 1 2 1 1 2 3 3 3 3 2 1 1 1 3 1 0 1 1 2 1 1 0 0 1 0 3 5 0 1 4 17 4 0 71 54 0
2 2 2 2 2 2 2 4 1 0 0 0 0 1 2 2 2 1 1 1 1 1 2 1 2 2 4 0 0 0 1 8 0 3 3 2 0 1 0 16 17 0 0
2 2 1 2 3 4 3 4 4 2 1 0 0 0 0 0 0 0 0 1 0 1 1 1 2 3 2 2 3 10 6 9 9 13 0 3 8 39 4 37 0 0 0
1 2 2 2 2 3 3 4 3 3 2 1 0 1 0 0 0 0 0 0 1 1 0 1 2 0 0 0 3 1 0 3 7 0 5 4 36 64 1 3 1 0 0
1 1 1 1 1 2 2 2 1 3 3 3 3 1 1 0 0 0 0 1 1 0 2 1 0 0 0 0 0 0 17 17 9 24 15 18 42 109 2 8 5 0 1
1 1 1 1 2 2 2 3 3 3 3 3 3 3 1 1 1 2 0 1 1 2 0 0 0 0 0 0 0 4 7 33 32 11 58 50 89 79 28 0 1 0 3
0 1 0 1 2 2 3 3 2 3 2 3 4 2 0 0 1 0 0 1 1 0 0 0 0 0 10 0 0 5 15 15 22 78 70 58 53 25 38 48 23 9 0
1 0 1 1 1 2 2 2 2 2 2 2 3 3 1 0 4 0 1 0 0 0 0 0 0 0 0 3 1 4 5 1 0 1 24 41 0 0 5 6 5 0 1
0 0 1 1 1 1 2 2 2 2 2 2 4 5 3 2 5 2 0 0 0 0 0 0 0 0 3 0 13 9 2 6 1 11 9 2 0 0 0 0 3 157 144
1 1 1 1 1 1 2 2 2 2 2 3 3 6 6 2 2 4 1 0 0 0 0 0 0 0 1 3 12 2 0 0 2 4 0 0 0 35 13 14 105 218 141
0 1 1 1 1 1 1 1 2 1 2 3 3 4 5 3 3 1 3 2 0 0 0 0 0 0 21 0 0 0 0 0 0 0 16 2 49 8 39 87 122 77 91
0 0 0 0 1 1 1 1 1 1 2 2 2 3 4 6 4 3 1 0 0 0 0 0 0 0 5 0 0 0 0 0 0 0 0 0 10 319 158 266 155 95 61

GFSGL_con_mlcape_138.txt.gz
CAPE
0 0 0 0 0 0 0 0 0 0 0 0 0 0 0 0 0 0 0 0 0 0 0 0 1 47 143 187 181 125 84 77 75 0 0 0 0 0 0 0 2 0 0
0 0 0 0 0 0 0 0 0 0 0 0 0 0 0 0 0 0 0 0 0 0 0 0 0 0 13 81 142 147 96 97 68 1 0 0 0 0 0 0 0 0 0
0 0 0 0 0 0 0 0 0 0 0 0 0 0 0 0 0 0 0 0 0 0 0 0 0 0 0 0 0 0 45 66 66 52 30 5 0 0 0 0 0 0 0
0 0 0 0 0 0 0 0 0 0 0 0 0 0 0 0 0 0 0 0 0 0 0 0 0 0 0 0 0 0 0 0 0 0 7 28 2 0 0 0 0 0 0
0 0 0 0 0 0 0 0 0 0 0 0 0 0 0 0 0 0 0 0 0 0 0 0 0 0 0 0 0 0 0 0 0 0 0 9 27 10 0 0 1 0 0
0 0 0 0 0 0 0 0 0 0 0 0 0 0 0 0 0 0 0 0 0 0 0 0 0 0 0 0 0 0 0 0 0 0 0 0 7 19 35 24 29 24 5
0 0 0 0 0 0 0 0 0 0 0 0 0 0 0 0 0 0 0 0 0 0 0 0 0 0 0 0 0 0 0 0 0 0 0 0 0 0 17 41 20 50 41
0 0 0 0 0 0 0 0 0 0 0 0 0 0 0 0 0 0 0 0 1 1 1 1 1 1 2 2 0 0 0 0 0 0 2 4 7 14 10 16 22 17 22
0 0 0 0 0 0 0 0 0 0 0 0 0 0 0 0 0 0 0 1 1 2 1 2 1 0 1 0 0 1 1 0 0 0 0 0 0 0 0 0 0 26 42
0 0 0 0 0 0 0 0 0 0 0 0 0 0 1 1 0 0 0 1 1 1 1 1 0 1 0 0 0 2 2 0 0 0 1 5 1 0 0 0 0 3 41
0 0 0 0 0 0 0 0 0 0 1 0 0 0 0 0 0 0 0 0 1 1 1 1 0 1 0 0 0 0 0 0 0 1 1 1 2 0 0 0 5 1 0
0 0 0 0 0 0 0 1 1 0 0 0 1 0 0 0 0 0 0 0 0 1 1 1 1 0 0 0 0 0 0 0 0 2 2 3 1 2 1 0 0 8 0
0 0 0 0 0 0 2 0 1 1 2 2 3 3 1 0 0 0 0 0 0 1 1 1 0 0 0 0 0 0 0 0 2 3 2 2 1 0 1 2 1 6 3
0 0 0 0 1 0 1 1 2 2 2 2 3 3 3 2 2 1 1 1 1 2 4 3 2 0 1 2 0 0 0 0 2 3 3 2 0 1 2 0 6 13 0
0 0 1 1 1 1 2 2 1 1 1 4 3 3 2 1 1 1 1 2 2 1 2 2 2 2 3 2 2 2 0 2 2 2 3 3 2 2 1 0 2 0 6
2 1 1 2 2 2 2 3 1 1 0 0 0 0 1 0 0 0 1 0 0 0 0 1 1 1 2 2 2 3 1 2 1 2 2 6 3 3 5 4 6 2 0
1 1 1 1 1 1 2 3 3 1 0 0 0 1 1 1 1 1 0 0 0 0 1 1 1 1 2 2 2 1 1 2 2 5 2 1 1 0 0 5 1 16 3
1 2 1 1 1 1 1 2 2 3 5 5 0 1 1 1 3 0 0 0 0 0 0 1 1 2 2 3 3 2 1 1 0 2 1 2 2 8 6 1 2 2 7
1 1 0 0 1 1 0 1 2 2 3 2 2 0 1 3 1 0 0 0 0 1 1 0 1 2 1 0 1 3 3 3 2 2 4 1 1 1 10 12 10 0 0
0 0 0 0 0 1 1 2 2 2 2 2 3 4 3 3 0 1 1 0 0 0 0 0 1 2 1 1 1 1 3 1 0 0 0 2 0 1 14 6 0 0 0
0 0 0 0 0 1 1 1 1 1 2 2 3 2 2 3 5 4 3 2 0 0 0 0 1 1 1 2 3 1 2 1 0 0 0 0 3 7 4 13 2 0 0
0 0 0 0 0 1 1 1 1 1 1 2 2 2 2 4 4 6 5 2 2 1 0 0 0 1 3 2 1 1 1 0 0 0 2 3 0 2 6 2 0 1 0
0 1 0 0 0 0 0 0 0 0 1 1 2 3 3 4 5 4 4 4 4 3 2 1 0 3 0 1 1 1 0 0 0 0 21 16 12 3 4 15 15 16 0
0 0 1 1 1 0 0 1 1 0 0 0 1 2 3 3 4 5 5 4 4 0 0 3 1 0 0 0 1 0 0 0 1 0 2 18 10 13 9 20 26 11 0
0 0 1 1 1 1 1 0 0 0 0 0 0 1 2 2 4 5 4 5 2 1 0 0 1 0 0 0 0 0 0 0 0 0 0 7 18 9 8 3 3 6 0
0 0 0 0 0 1 1 1 1 1 0 0 0 0 0 2 2 3 4 5 3 0 0 0 0 0 0 0 0 0 0 0 0 0 0 0 0 0 0 0 0 0 0

GFSGL_con_mlcape_141.txt.gz
CAPE
0 0 0 0 0 0 0 0 0 0 0 0 0 0 0 0 0 0 0 0 0 0 0 0 0 0 0 0 11 39 24 15 43 0 0 9 0 8 9 0 0 16 0
0 0 0 0 0 0 0 0 0 0 0 0 0 0 0 0 0 0 0 0 0 0 0 0 0 0 0 0 0 0 0 20 48 49 0 0 0 1 1 0 0 0 0
0 0 0 0 0 0 0 0 0 0 0 0 0 0 0 0 0 0 0 0 0 0 0 0 0 0 0 0 0 0 0 0 0 0 6 7 15 14 19 6 6 6 3
0 0 0 0 0 0 0 0 0 0 0 0 0 0 0 0 0 0 0 0 0 0 0 0 0 0 0 0 0 0 0 0 0 0 0 0 0 0 0 0 0 0 0
0 0 0 0 0 0 0 0 0 0 0 0 0 0 0 0 0 0 0 0 0 0 0 0 0 0 0 0 0 0 0 0 0 0 0 0 0 0 0 0 3 0 0
0 0 0 0 0 0 0 0 0 0 0 0 0 0 0 0 0 0 0 0 0 0 0 0 0 0 0 0 0 0 0 0 0 0 0 0 0 0 0 0 0 3 6
0 0 0 0 0 0 0 0 0 0 0 0 0 0 0 0 0 0 0 0 0 0 0 0 0 0 0 0 0 0 1 3 8 2 0 0 0 0 0 0 0 0 0
0 0 0 0 0 0 0 0 0 0 0 0 0 0 0 0 0 0 0 0 1 1 0 0 1 0 0 1 0 3 1 0 0 0 1 3 2 0 1 4 7 8 2
0 0 0 0 0 0 0 0 0 0 0 0 0 0 0 0 0 0 0 0 1 1 0 0 0 0 0 0 0 2 2 1 3 3 1 0 0 0 0 0 0 4 3
0 0 0 0 0 0 0 0 0 0 0 0 0 0 0 0 0 0 0 0 2 1 0 0 0 0 0 0 0 1 2 0 1 0 0 0 0 0 0 0 0 4 3
0 0 0 0 0 0 0 0 1 1 2 0 0 0 0 0 0 0 0 0 1 1 1 1 0 0 0 0 0 0 1 0 1 2 2 0 0 0 0 0 0 2 3
0 0 0 0 0 0 0 2 0 0 0 0 0 0 0 0 0 0 0 0 0 1 1 1 0 0 0 0 0 0 0 0 1 1 2 2 2 2 0 0 0 0 0
0 0 0 0 0 0 0 1 1 0 1 1 1 1 0 1 0 0 0 0 0 1 1 2 2 1 0 0 0 0 0 0 1 2 2 2 1 0 0 0 3 3 0
0 0 0 0 1 0 1 1 1 3 3 3 3 2 1 2 2 1 1 1 1 2 2 1 2 1 2 2 1 1 1 1 2 2 3 2 1 1 1 1 1 2 5
1 2 2 1 1 1 1 1 1 1 1 2 2 2 2 1 1 1 1 2 3 2 1 1 1 2 2 2 1 1 1 1 3 2 2 2 3 3 3 2 2 1 3
2 2 1 1 2 1 2 2 1 0 0 0 0 0 0 2 1 1 3 3 0 0 0 0 1 1 2 2 2 2 3 4 2 3 2 2 2 2 1 2 1 1 3
1 1 1 1 1 1 2 3 4 1 1 0 0 1 1 1 2 4 0 0 0 0 0 1 2 3 3 3 3 4 1 2 1 3 2 1 4 6 7 12 3 2 1
1 1 1 1 1 1 1 2 2 3 4 2 0 0 0 1 0 0 0 0 0 0 0 0 0 0 1 1 2 0 1 2 4 3 2 2 1 0 1 1 0 2 8
0 0 1 1 0 1 0 1 1 1 2 2 2 0 0 0 0 1 2 3 2 1 1 1 2 1 1 1 2 1 2 1 3 4 2 2 8 8 6 3 2 0 1
0 0 0 0 0 0 0 0 1 1 2 2 3 3 3 2 1 2 3 3 3 3 3 2 1 2 1 1 1 2 3 4 3 2 2 6 16 1 7 5 12 2 1
0 0 0 0 0 0 0 0 1 0 0 1 2 1 1 4 6 6 5 3 3 4 4 5 4 2 2 2 1 2 2 1 0 0 0 0 1 11 15 1 6 9 0
1 1 1 1 0 0 0 0 1 1 1 1 2 1 1 4 4 4 4 4 3 3 3 5 4 4 2 1 2 3 1 1 0 0 0 0 2 7 5 2 1 1 1
0 0 0 1 1 0 1 0 0 1 0 0 1 1 2 2 4 4 4 5 4 1 4 5 4 4 3 3 3 3 1 1 0 0 5 3 0 1 4 0 0 0 0
0 0 0 1 1 0 1 1 1 0 0 0 0 1 1 2 3 3 4 3 4 2 2 4 3 4 2 3 3 4 3 0 0 0 2 5 2 8 1 0 0 0 0
0 0 0 0 0 0 0 0 1 1 0 0 0 0 0 1 2 2 2 2 4 3 2 1 0 3 2 2 0 0 1 0 0 1 13 7 9 16 16 1 0 0 0
0 0 0 0 0 0 0 0 1 0 1 0 0 0 0 0 1 1 1 2 3 4 5 2 0 0 0 1 0 0 0 0 0 0 3 7 6 20 1 0 0 0 0

GFSGL_con_mlcape_144.txt.gz
CAPE
0 0 0 0 0 0 0 0 0 0 0 0 0 0 0 0 0 0 0 0 0 0 0 0 0 0 0 0 0 0 0 4 6 0 0 0 0 25 58 43 28 51 81
0 0 0 0 0 0 0 0 0 0 0 0 0 0 0 0 0 0 0 0 0 0 0 0 0 0 0 0 0 0 0 0 0 0 3 0 0 1 3 51 91 46 13
0 0 0 0 0 0 0 0 0 0 0 0 0 0 0 0 0 0 0 0 0 0 0 0 0 0 0 0 0 0 0 0 0 0 0 0 0 0 28 49 70 70 65
0 0 0 0 0 0 0 0 0 0 0 0 0 0 0 0 0 0 0 0 0 0 0 0 0 0 0 0 0 0 0 0 0 0 0 0 0 0 0 0 5 48 103
0 0 0 0 0 0 0 0 0 0 0 0 0 0 0 0 0 0 0 0 0 0 0 0 0 0 0 0 0 0 1 0 0 0 0 0 0 0 0 0 0 0 1
0 0 0 0 0 0 0 0 0 0 0 0 0 0 0 0 0 0 0 0 0 0 0 0 0 0 0 0 0 0 0 2 3 3 1 0 0 0 0 0 0 0 0
0 0 0 0 0 0 0 0 0 0 0 0 0 0 0 0 0 0 0 1 1 0 0 0 0 0 0 0 0 0 0 0 0 2 5 4 1 0 1 0 0 1 0
0 0 0 0 0 0 0 0 0 0 0 0 0 0 0 0 0 0 0 0 1 1 1 1 2 0 0 1 1 1 0 0 1 1 0 0 0 1 1 1 2 2 1
0 0 0 0 0 0 0 0 0 0 0 0 0 0 0 0 0 0 0 0 0 1 0 1 0 1 0 0 1 1 1 2 5 1 0 0 0 0 0 0 1 3 2
0 0 0 0 0 0 0 0 0 2 3 1 0 0 0 0 0 0 0 1 1 1 0 0 0 0 0 0 0 1 2 1 2 0 2 0 0 0 0 0 0 2 2
0 0 0 0 0 0 0 0 1 3 0 0 0 0 0 0 0 0 0 1 1 1 1 1 0 0 0 0 0 0 1 1 1 4 3 2 2 1 0 0 1 0 4
0 0 0 0 0 0 0 0 0 0 1 1 1 0 1 0 0 1 1 0 0 2 2 1 1 0 0 0 0 0 0 0 1 2 2 2 2 1 0 1 0 0 3
0 2 2 1 2 0 0 1 1 1 2 2 2 3 3 1 0 1 1 1 1 3 2 2 1 0 0 0 1 0 0 2 1 2 2 2 2 1 1 1 2 1 0
1 1 0 1 1 0 1 1 2 2 2 2 3 4 3 3 3 1 2 2 3 3 3 2 3 1 1 1 1 2 3 2 2 2 2 2 1 1 1 1 2 1 2
0 1 2 2 1 1 1 1 1 1 1 2 2 2 2 3 2 2 3 5 4 2 1 1 2 2 3 2 1 1 1 1 2 2 3 3 3 2 2 2 2 2 2
2 1 1 1 1 1 2 2 0 0 0 0 0 1 1 2 2 3 2 0 0 0 0 0 0 1 2 2 2 1 4 3 3 2 3 3 2 3 3 3 2 2 3
1 1 1 1 1 1 2 2 3 1 0 0 0 0 0 2 2 1 0 0 0 0 1 1 3 2 2 2 2 2 1 1 2 3 3 2 1 2 1 2 2 2 1
0 1 0 1 1 1 1 1 1 2 2 1 0 0 0 1 1 1 1 0 1 1 3 3 2 2 3 2 2 2 3 3 4 4 3 1 2 3 2 1 2 6 4
0 0 0 0 0 1 0 0 1 1 1 1 1 0 1 1 0 1 2 3 4 3 3 4 4 4 3 0 1 2 2 3 3 4 3 3 2 2 1 1 3 2 1
1 1 0 0 0 1 0 1 1 1 1 2 2 2 2 2 2 3 4 4 5 5 4 6 5 4 4 3 2 1 1 2 2 2 2 1 5 4 8 15 0 0 1
1 1 0 1 1 1 1 1 1 1 1 2 1 0 0 2 3 4 4 4 5 5 4 6 5 4 3 1 5 3 3 2 1 0 0 1 10 12 4 9 6 5 1
0 0 1 1 1 1 1 1 1 1 1 1 0 0 0 0 2 3 4 3 3 3 4 5 5 4 3 2 3 4 6 3 1 1 1 1 0 14 2 6 5 4 0
1 0 0 1 1 0 1 1 0 1 1 0 1 0 1 1 1 2 2 2 2 3 4 5 5 5 4 4 3 3 7 7 0 0 1 10 15 18 11 8 1 2 2
0 0 0 1 1 1 0 1 0 1 0 0 0 0 0 0 1 1 1 1 2 3 4 5 4 4 4 6 3 5 6 12 2 0 13 16 1 2 1 0 3 1 1
0 0 0 1 0 1 1 1 1 1 1 0 0 0 0 0 0 1 1 1 1 3 4 3 3 3 3 3 6 5 8 8 2 0 12 6 11 6 0 0 0 1 0
0 1 0 0 1 0 1 1 1 1 1 1 0 0 0 0 0 0 1 1 1 2 2 3 3 3 1 4 4 3 2 0 0 0 0 36 27 15 1 0 0 0 0